<?xml version="1.0" encoding="UTF-8" standalone="no" ?>
<gpx xmlns="http://www.topografix.com/GPX/1/1" xmlns:xsi="http://www.w3.org/2001/XMLSchema-instance" xsi:schemaLocation="http://www.topografix.com/GPX/1/1 http://www.topografix.com/GPX/1/1/gpx.xsd" version="1.1" creator="VisuGPX - https://www.visugpx.com">
  <metadata>
    <name>Rabastens - Raust   2019-12-04</name>
    <desc><![CDATA[
]]></desc>
  </metadata>
  <trk>
    <name><![CDATA[Rabastens - Raust   2019-12-04]]></name>
    <trkseg>
      <trkpt lat="43.82231" lon="1.71833">
        <ele>98.3</ele>
        <time>2019-12-04T08:42:48.305Z</time>
      </trkpt>
      <trkpt lat="43.8223" lon="1.71833">
        <ele>106</ele>
        <time>2019-12-04T08:42:52.000Z</time>
      </trkpt>
      <trkpt lat="43.82227" lon="1.71821">
        <ele>125.6</ele>
        <time>2019-12-04T08:43:10.000Z</time>
      </trkpt>
      <trkpt lat="43.82235" lon="1.71827">
        <ele>136.7</ele>
        <time>2019-12-04T08:46:51.000Z</time>
      </trkpt>
      <trkpt lat="43.82244" lon="1.71832">
        <ele>136.7</ele>
        <time>2019-12-04T08:47:1.000Z</time>
      </trkpt>
      <trkpt lat="43.82252" lon="1.71839">
        <ele>136.7</ele>
        <time>2019-12-04T08:47:12.000Z</time>
      </trkpt>
      <trkpt lat="43.82255" lon="1.71851">
        <ele>136.7</ele>
        <time>2019-12-04T08:47:22.000Z</time>
      </trkpt>
      <trkpt lat="43.82251" lon="1.71863">
        <ele>136.5</ele>
        <time>2019-12-04T08:47:34.000Z</time>
      </trkpt>
      <trkpt lat="43.82247" lon="1.71875">
        <ele>136.4</ele>
        <time>2019-12-04T08:47:44.000Z</time>
      </trkpt>
      <trkpt lat="43.82246" lon="1.71888">
        <ele>136</ele>
        <time>2019-12-04T08:47:54.000Z</time>
      </trkpt>
      <trkpt lat="43.82245" lon="1.71901">
        <ele>135.7</ele>
        <time>2019-12-04T08:48:3.000Z</time>
      </trkpt>
      <trkpt lat="43.82252" lon="1.71909">
        <ele>135.5</ele>
        <time>2019-12-04T08:48:23.000Z</time>
      </trkpt>
      <trkpt lat="43.82262" lon="1.71914">
        <ele>135.4</ele>
        <time>2019-12-04T08:48:31.000Z</time>
      </trkpt>
      <trkpt lat="43.82271" lon="1.71915">
        <ele>135.4</ele>
        <time>2019-12-04T08:48:41.000Z</time>
      </trkpt>
      <trkpt lat="43.82281" lon="1.71915">
        <ele>135.3</ele>
        <time>2019-12-04T08:48:49.000Z</time>
      </trkpt>
      <trkpt lat="43.82291" lon="1.71916">
        <ele>135.2</ele>
        <time>2019-12-04T08:48:55.000Z</time>
      </trkpt>
      <trkpt lat="43.82301" lon="1.71921">
        <ele>135.1</ele>
        <time>2019-12-04T08:49:6.000Z</time>
      </trkpt>
      <trkpt lat="43.82309" lon="1.71926">
        <ele>135</ele>
        <time>2019-12-04T08:49:13.000Z</time>
      </trkpt>
      <trkpt lat="43.82319" lon="1.71931">
        <ele>135</ele>
        <time>2019-12-04T08:49:19.000Z</time>
      </trkpt>
      <trkpt lat="43.82329" lon="1.71934">
        <ele>135</ele>
        <time>2019-12-04T08:49:25.000Z</time>
      </trkpt>
      <trkpt lat="43.82338" lon="1.71939">
        <ele>135</ele>
        <time>2019-12-04T08:49:34.000Z</time>
      </trkpt>
      <trkpt lat="43.82348" lon="1.71944">
        <ele>134.8</ele>
        <time>2019-12-04T08:49:42.000Z</time>
      </trkpt>
      <trkpt lat="43.82357" lon="1.71949">
        <ele>134.8</ele>
        <time>2019-12-04T08:49:48.000Z</time>
      </trkpt>
      <trkpt lat="43.82367" lon="1.71951">
        <ele>134.9</ele>
        <time>2019-12-04T08:49:58.000Z</time>
      </trkpt>
      <trkpt lat="43.82376" lon="1.71949">
        <ele>134.9</ele>
        <time>2019-12-04T08:50:5.000Z</time>
      </trkpt>
      <trkpt lat="43.82386" lon="1.71952">
        <ele>135</ele>
        <time>2019-12-04T08:50:11.000Z</time>
      </trkpt>
      <trkpt lat="43.82396" lon="1.7195">
        <ele>135</ele>
        <time>2019-12-04T08:50:19.000Z</time>
      </trkpt>
      <trkpt lat="43.82405" lon="1.71949">
        <ele>135.2</ele>
        <time>2019-12-04T08:50:26.000Z</time>
      </trkpt>
      <trkpt lat="43.82415" lon="1.71951">
        <ele>135.4</ele>
        <time>2019-12-04T08:50:34.000Z</time>
      </trkpt>
      <trkpt lat="43.82425" lon="1.71953">
        <ele>135.6</ele>
        <time>2019-12-04T08:50:43.000Z</time>
      </trkpt>
      <trkpt lat="43.82434" lon="1.71955">
        <ele>136</ele>
        <time>2019-12-04T08:50:51.000Z</time>
      </trkpt>
      <trkpt lat="43.82443" lon="1.71955">
        <ele>136.4</ele>
        <time>2019-12-04T08:51:0.000Z</time>
      </trkpt>
      <trkpt lat="43.82453" lon="1.71956">
        <ele>136.6</ele>
        <time>2019-12-04T08:51:8.000Z</time>
      </trkpt>
      <trkpt lat="43.82462" lon="1.71956">
        <ele>136.7</ele>
        <time>2019-12-04T08:51:14.000Z</time>
      </trkpt>
      <trkpt lat="43.82471" lon="1.71956">
        <ele>136.8</ele>
        <time>2019-12-04T08:51:23.000Z</time>
      </trkpt>
      <trkpt lat="43.82481" lon="1.71956">
        <ele>136.8</ele>
        <time>2019-12-04T08:51:32.000Z</time>
      </trkpt>
      <trkpt lat="43.8249" lon="1.71958">
        <ele>136.9</ele>
        <time>2019-12-04T08:51:40.000Z</time>
      </trkpt>
      <trkpt lat="43.82499" lon="1.71962">
        <ele>136.9</ele>
        <time>2019-12-04T08:51:49.000Z</time>
      </trkpt>
      <trkpt lat="43.82508" lon="1.71964">
        <ele>136.9</ele>
        <time>2019-12-04T08:51:57.000Z</time>
      </trkpt>
      <trkpt lat="43.82517" lon="1.71962">
        <ele>136.9</ele>
        <time>2019-12-04T08:52:6.000Z</time>
      </trkpt>
      <trkpt lat="43.82526" lon="1.71962">
        <ele>137</ele>
        <time>2019-12-04T08:52:14.000Z</time>
      </trkpt>
      <trkpt lat="43.82536" lon="1.71961">
        <ele>137.3</ele>
        <time>2019-12-04T08:52:22.000Z</time>
      </trkpt>
      <trkpt lat="43.82546" lon="1.71963">
        <ele>137.6</ele>
        <time>2019-12-04T08:52:33.000Z</time>
      </trkpt>
      <trkpt lat="43.82555" lon="1.71964">
        <ele>137.9</ele>
        <time>2019-12-04T08:52:41.000Z</time>
      </trkpt>
      <trkpt lat="43.82565" lon="1.71961">
        <ele>138.2</ele>
        <time>2019-12-04T08:52:51.000Z</time>
      </trkpt>
      <trkpt lat="43.82575" lon="1.7196">
        <ele>138.3</ele>
        <time>2019-12-04T08:53:0.000Z</time>
      </trkpt>
      <trkpt lat="43.82584" lon="1.71959">
        <ele>138.4</ele>
        <time>2019-12-04T08:53:10.000Z</time>
      </trkpt>
      <trkpt lat="43.82594" lon="1.71959">
        <ele>138.4</ele>
        <time>2019-12-04T08:53:18.000Z</time>
      </trkpt>
      <trkpt lat="43.82603" lon="1.71957">
        <ele>138.4</ele>
        <time>2019-12-04T08:53:24.000Z</time>
      </trkpt>
      <trkpt lat="43.82612" lon="1.71955">
        <ele>138.5</ele>
        <time>2019-12-04T08:53:31.000Z</time>
      </trkpt>
      <trkpt lat="43.82622" lon="1.71953">
        <ele>138.7</ele>
        <time>2019-12-04T08:53:39.000Z</time>
      </trkpt>
      <trkpt lat="43.82631" lon="1.71953">
        <ele>138.7</ele>
        <time>2019-12-04T08:53:46.000Z</time>
      </trkpt>
      <trkpt lat="43.82641" lon="1.71954">
        <ele>138.8</ele>
        <time>2019-12-04T08:53:54.000Z</time>
      </trkpt>
      <trkpt lat="43.8265" lon="1.71954">
        <ele>138.9</ele>
        <time>2019-12-04T08:54:3.000Z</time>
      </trkpt>
      <trkpt lat="43.82659" lon="1.71954">
        <ele>139</ele>
        <time>2019-12-04T08:54:11.000Z</time>
      </trkpt>
      <trkpt lat="43.82668" lon="1.71955">
        <ele>139</ele>
        <time>2019-12-04T08:54:18.000Z</time>
      </trkpt>
      <trkpt lat="43.82678" lon="1.71955">
        <ele>139.2</ele>
        <time>2019-12-04T08:54:26.000Z</time>
      </trkpt>
      <trkpt lat="43.82687" lon="1.71958">
        <ele>139.3</ele>
        <time>2019-12-04T08:54:33.000Z</time>
      </trkpt>
      <trkpt lat="43.82696" lon="1.71959">
        <ele>139.4</ele>
        <time>2019-12-04T08:54:40.000Z</time>
      </trkpt>
      <trkpt lat="43.82706" lon="1.71963">
        <ele>139.6</ele>
        <time>2019-12-04T08:54:48.000Z</time>
      </trkpt>
      <trkpt lat="43.82715" lon="1.71965">
        <ele>139.8</ele>
        <time>2019-12-04T08:54:57.000Z</time>
      </trkpt>
      <trkpt lat="43.82725" lon="1.71967">
        <ele>139.9</ele>
        <time>2019-12-04T08:55:5.000Z</time>
      </trkpt>
      <trkpt lat="43.82734" lon="1.71969">
        <ele>139.9</ele>
        <time>2019-12-04T08:55:13.000Z</time>
      </trkpt>
      <trkpt lat="43.82743" lon="1.71971">
        <ele>139.7</ele>
        <time>2019-12-04T08:55:21.000Z</time>
      </trkpt>
      <trkpt lat="43.82752" lon="1.71973">
        <ele>139.9</ele>
        <time>2019-12-04T08:55:30.000Z</time>
      </trkpt>
      <trkpt lat="43.8276" lon="1.7198">
        <ele>140</ele>
        <time>2019-12-04T08:55:39.000Z</time>
      </trkpt>
      <trkpt lat="43.8277" lon="1.71978">
        <ele>140</ele>
        <time>2019-12-04T08:55:46.000Z</time>
      </trkpt>
      <trkpt lat="43.8278" lon="1.7198">
        <ele>139.9</ele>
        <time>2019-12-04T08:55:55.000Z</time>
      </trkpt>
      <trkpt lat="43.8279" lon="1.71982">
        <ele>139.9</ele>
        <time>2019-12-04T08:56:2.000Z</time>
      </trkpt>
      <trkpt lat="43.82798" lon="1.71986">
        <ele>139.9</ele>
        <time>2019-12-04T08:56:9.000Z</time>
      </trkpt>
      <trkpt lat="43.82807" lon="1.71993">
        <ele>139.9</ele>
        <time>2019-12-04T08:56:17.000Z</time>
      </trkpt>
      <trkpt lat="43.82816" lon="1.71998">
        <ele>139.8</ele>
        <time>2019-12-04T08:56:26.000Z</time>
      </trkpt>
      <trkpt lat="43.82824" lon="1.72005">
        <ele>139.8</ele>
        <time>2019-12-04T08:56:35.000Z</time>
      </trkpt>
      <trkpt lat="43.82833" lon="1.7201">
        <ele>139.9</ele>
        <time>2019-12-04T08:56:44.000Z</time>
      </trkpt>
      <trkpt lat="43.82842" lon="1.72017">
        <ele>139.9</ele>
        <time>2019-12-04T08:56:52.000Z</time>
      </trkpt>
      <trkpt lat="43.8285" lon="1.7202">
        <ele>140.1</ele>
        <time>2019-12-04T08:56:59.000Z</time>
      </trkpt>
      <trkpt lat="43.8286" lon="1.72023">
        <ele>140.4</ele>
        <time>2019-12-04T08:57:8.000Z</time>
      </trkpt>
      <trkpt lat="43.82868" lon="1.7203">
        <ele>140.6</ele>
        <time>2019-12-04T08:57:15.000Z</time>
      </trkpt>
      <trkpt lat="43.82877" lon="1.72035">
        <ele>140.8</ele>
        <time>2019-12-04T08:57:22.000Z</time>
      </trkpt>
      <trkpt lat="43.82886" lon="1.72042">
        <ele>140.9</ele>
        <time>2019-12-04T08:57:29.000Z</time>
      </trkpt>
      <trkpt lat="43.82893" lon="1.72052">
        <ele>141</ele>
        <time>2019-12-04T08:57:37.000Z</time>
      </trkpt>
      <trkpt lat="43.82901" lon="1.7206">
        <ele>141.1</ele>
        <time>2019-12-04T08:57:46.000Z</time>
      </trkpt>
      <trkpt lat="43.82909" lon="1.72067">
        <ele>141.3</ele>
        <time>2019-12-04T08:57:54.000Z</time>
      </trkpt>
      <trkpt lat="43.82916" lon="1.72075">
        <ele>141.4</ele>
        <time>2019-12-04T08:58:2.000Z</time>
      </trkpt>
      <trkpt lat="43.82924" lon="1.72081">
        <ele>141.6</ele>
        <time>2019-12-04T08:58:12.000Z</time>
      </trkpt>
      <trkpt lat="43.82933" lon="1.72088">
        <ele>141.7</ele>
        <time>2019-12-04T08:58:19.000Z</time>
      </trkpt>
      <trkpt lat="43.82941" lon="1.72094">
        <ele>141.8</ele>
        <time>2019-12-04T08:58:26.000Z</time>
      </trkpt>
      <trkpt lat="43.8295" lon="1.721">
        <ele>141.8</ele>
        <time>2019-12-04T08:58:33.000Z</time>
      </trkpt>
      <trkpt lat="43.82958" lon="1.72105">
        <ele>141.9</ele>
        <time>2019-12-04T08:58:41.000Z</time>
      </trkpt>
      <trkpt lat="43.82967" lon="1.72112">
        <ele>142</ele>
        <time>2019-12-04T08:58:50.000Z</time>
      </trkpt>
      <trkpt lat="43.82975" lon="1.72117">
        <ele>142.2</ele>
        <time>2019-12-04T08:58:59.000Z</time>
      </trkpt>
      <trkpt lat="43.82984" lon="1.72123">
        <ele>142.5</ele>
        <time>2019-12-04T08:59:10.000Z</time>
      </trkpt>
      <trkpt lat="43.82991" lon="1.72131">
        <ele>142.5</ele>
        <time>2019-12-04T08:59:18.000Z</time>
      </trkpt>
      <trkpt lat="43.82998" lon="1.7214">
        <ele>142.6</ele>
        <time>2019-12-04T08:59:26.000Z</time>
      </trkpt>
      <trkpt lat="43.83005" lon="1.7215">
        <ele>142.6</ele>
        <time>2019-12-04T08:59:34.000Z</time>
      </trkpt>
      <trkpt lat="43.83012" lon="1.72159">
        <ele>142.7</ele>
        <time>2019-12-04T08:59:39.000Z</time>
      </trkpt>
      <trkpt lat="43.83019" lon="1.72168">
        <ele>142.7</ele>
        <time>2019-12-04T08:59:46.000Z</time>
      </trkpt>
      <trkpt lat="43.83025" lon="1.72178">
        <ele>142.7</ele>
        <time>2019-12-04T08:59:53.000Z</time>
      </trkpt>
      <trkpt lat="43.83032" lon="1.72187">
        <ele>142.8</ele>
        <time>2019-12-04T09:00:0.000Z</time>
      </trkpt>
      <trkpt lat="43.8304" lon="1.72196">
        <ele>142.9</ele>
        <time>2019-12-04T09:00:8.000Z</time>
      </trkpt>
      <trkpt lat="43.83047" lon="1.72203">
        <ele>142.9</ele>
        <time>2019-12-04T09:00:16.000Z</time>
      </trkpt>
      <trkpt lat="43.83055" lon="1.72212">
        <ele>143</ele>
        <time>2019-12-04T09:00:24.000Z</time>
      </trkpt>
      <trkpt lat="43.83063" lon="1.72219">
        <ele>143</ele>
        <time>2019-12-04T09:00:31.000Z</time>
      </trkpt>
      <trkpt lat="43.8307" lon="1.72227">
        <ele>143</ele>
        <time>2019-12-04T09:00:40.000Z</time>
      </trkpt>
      <trkpt lat="43.83078" lon="1.72237">
        <ele>142.9</ele>
        <time>2019-12-04T09:00:48.000Z</time>
      </trkpt>
      <trkpt lat="43.83086" lon="1.72245">
        <ele>142.8</ele>
        <time>2019-12-04T09:00:55.000Z</time>
      </trkpt>
      <trkpt lat="43.83094" lon="1.72252">
        <ele>142.8</ele>
        <time>2019-12-04T09:01:2.000Z</time>
      </trkpt>
      <trkpt lat="43.83102" lon="1.7226">
        <ele>142.7</ele>
        <time>2019-12-04T09:01:11.000Z</time>
      </trkpt>
      <trkpt lat="43.8311" lon="1.72267">
        <ele>142.7</ele>
        <time>2019-12-04T09:01:19.000Z</time>
      </trkpt>
      <trkpt lat="43.83119" lon="1.72273">
        <ele>142.7</ele>
        <time>2019-12-04T09:01:27.000Z</time>
      </trkpt>
      <trkpt lat="43.83128" lon="1.72278">
        <ele>142.6</ele>
        <time>2019-12-04T09:01:35.000Z</time>
      </trkpt>
      <trkpt lat="43.83136" lon="1.72286">
        <ele>142.5</ele>
        <time>2019-12-04T09:01:43.000Z</time>
      </trkpt>
      <trkpt lat="43.83145" lon="1.72294">
        <ele>142.4</ele>
        <time>2019-12-04T09:01:51.000Z</time>
      </trkpt>
      <trkpt lat="43.83153" lon="1.72301">
        <ele>142.3</ele>
        <time>2019-12-04T09:01:59.000Z</time>
      </trkpt>
      <trkpt lat="43.8316" lon="1.72311">
        <ele>142</ele>
        <time>2019-12-04T09:02:11.000Z</time>
      </trkpt>
      <trkpt lat="43.83167" lon="1.72318">
        <ele>141.9</ele>
        <time>2019-12-04T09:02:21.000Z</time>
      </trkpt>
      <trkpt lat="43.83174" lon="1.72327">
        <ele>141.8</ele>
        <time>2019-12-04T09:02:28.000Z</time>
      </trkpt>
      <trkpt lat="43.83181" lon="1.72335">
        <ele>141.8</ele>
        <time>2019-12-04T09:02:37.000Z</time>
      </trkpt>
      <trkpt lat="43.83189" lon="1.72344">
        <ele>141.8</ele>
        <time>2019-12-04T09:02:44.000Z</time>
      </trkpt>
      <trkpt lat="43.83196" lon="1.72353">
        <ele>141.8</ele>
        <time>2019-12-04T09:02:52.000Z</time>
      </trkpt>
      <trkpt lat="43.83204" lon="1.72361">
        <ele>141.8</ele>
        <time>2019-12-04T09:03:0.000Z</time>
      </trkpt>
      <trkpt lat="43.83212" lon="1.72368">
        <ele>141.8</ele>
        <time>2019-12-04T09:03:7.000Z</time>
      </trkpt>
      <trkpt lat="43.83221" lon="1.72376">
        <ele>141.8</ele>
        <time>2019-12-04T09:03:13.000Z</time>
      </trkpt>
      <trkpt lat="43.83228" lon="1.72383">
        <ele>141.7</ele>
        <time>2019-12-04T09:03:21.000Z</time>
      </trkpt>
      <trkpt lat="43.83236" lon="1.7239">
        <ele>141.7</ele>
        <time>2019-12-04T09:03:28.000Z</time>
      </trkpt>
      <trkpt lat="43.83245" lon="1.72397">
        <ele>141.7</ele>
        <time>2019-12-04T09:03:36.000Z</time>
      </trkpt>
      <trkpt lat="43.83252" lon="1.72406">
        <ele>141.6</ele>
        <time>2019-12-04T09:03:44.000Z</time>
      </trkpt>
      <trkpt lat="43.8326" lon="1.72413">
        <ele>141.5</ele>
        <time>2019-12-04T09:03:52.000Z</time>
      </trkpt>
      <trkpt lat="43.8327" lon="1.72417">
        <ele>141.4</ele>
        <time>2019-12-04T09:04:1.000Z</time>
      </trkpt>
      <trkpt lat="43.8328" lon="1.72415">
        <ele>141.2</ele>
        <time>2019-12-04T09:04:9.000Z</time>
      </trkpt>
      <trkpt lat="43.83289" lon="1.72414">
        <ele>141</ele>
        <time>2019-12-04T09:04:16.000Z</time>
      </trkpt>
      <trkpt lat="43.83299" lon="1.72412">
        <ele>140.8</ele>
        <time>2019-12-04T09:04:24.000Z</time>
      </trkpt>
      <trkpt lat="43.83309" lon="1.72411">
        <ele>140.7</ele>
        <time>2019-12-04T09:04:32.000Z</time>
      </trkpt>
      <trkpt lat="43.83319" lon="1.72409">
        <ele>140.6</ele>
        <time>2019-12-04T09:04:41.000Z</time>
      </trkpt>
      <trkpt lat="43.83327" lon="1.72407">
        <ele>140.6</ele>
        <time>2019-12-04T09:04:48.000Z</time>
      </trkpt>
      <trkpt lat="43.83336" lon="1.724">
        <ele>140.5</ele>
        <time>2019-12-04T09:04:56.000Z</time>
      </trkpt>
      <trkpt lat="43.83342" lon="1.72391">
        <ele>140.7</ele>
        <time>2019-12-04T09:05:5.000Z</time>
      </trkpt>
      <trkpt lat="43.8335" lon="1.72381">
        <ele>140.9</ele>
        <time>2019-12-04T09:05:13.000Z</time>
      </trkpt>
      <trkpt lat="43.83356" lon="1.72372">
        <ele>141</ele>
        <time>2019-12-04T09:05:21.000Z</time>
      </trkpt>
      <trkpt lat="43.83363" lon="1.72362">
        <ele>141.1</ele>
        <time>2019-12-04T09:05:29.000Z</time>
      </trkpt>
      <trkpt lat="43.8337" lon="1.72351">
        <ele>141.1</ele>
        <time>2019-12-04T09:05:37.000Z</time>
      </trkpt>
      <trkpt lat="43.83374" lon="1.7234">
        <ele>141.1</ele>
        <time>2019-12-04T09:05:44.000Z</time>
      </trkpt>
      <trkpt lat="43.83378" lon="1.72328">
        <ele>141.1</ele>
        <time>2019-12-04T09:05:51.000Z</time>
      </trkpt>
      <trkpt lat="43.83383" lon="1.72317">
        <ele>141.2</ele>
        <time>2019-12-04T09:05:58.000Z</time>
      </trkpt>
      <trkpt lat="43.83388" lon="1.72305">
        <ele>141.3</ele>
        <time>2019-12-04T09:06:7.000Z</time>
      </trkpt>
      <trkpt lat="43.83393" lon="1.72294">
        <ele>141.5</ele>
        <time>2019-12-04T09:06:17.000Z</time>
      </trkpt>
      <trkpt lat="43.83399" lon="1.72284">
        <ele>141.8</ele>
        <time>2019-12-04T09:06:26.000Z</time>
      </trkpt>
      <trkpt lat="43.83406" lon="1.72275">
        <ele>141.9</ele>
        <time>2019-12-04T09:06:33.000Z</time>
      </trkpt>
      <trkpt lat="43.83413" lon="1.72267">
        <ele>142.1</ele>
        <time>2019-12-04T09:06:41.000Z</time>
      </trkpt>
      <trkpt lat="43.83422" lon="1.72262">
        <ele>142.4</ele>
        <time>2019-12-04T09:06:50.000Z</time>
      </trkpt>
      <trkpt lat="43.8343" lon="1.72257">
        <ele>142.6</ele>
        <time>2019-12-04T09:06:59.000Z</time>
      </trkpt>
      <trkpt lat="43.8344" lon="1.72253">
        <ele>142.8</ele>
        <time>2019-12-04T09:07:7.000Z</time>
      </trkpt>
      <trkpt lat="43.83449" lon="1.7225">
        <ele>142.9</ele>
        <time>2019-12-04T09:07:16.000Z</time>
      </trkpt>
      <trkpt lat="43.83458" lon="1.72247">
        <ele>143</ele>
        <time>2019-12-04T09:07:24.000Z</time>
      </trkpt>
      <trkpt lat="43.83469" lon="1.72245">
        <ele>143.1</ele>
        <time>2019-12-04T09:07:33.000Z</time>
      </trkpt>
      <trkpt lat="43.83479" lon="1.72245">
        <ele>143.2</ele>
        <time>2019-12-04T09:07:41.000Z</time>
      </trkpt>
      <trkpt lat="43.83488" lon="1.72245">
        <ele>143.3</ele>
        <time>2019-12-04T09:07:48.000Z</time>
      </trkpt>
      <trkpt lat="43.83498" lon="1.72246">
        <ele>143.4</ele>
        <time>2019-12-04T09:07:56.000Z</time>
      </trkpt>
      <trkpt lat="43.83507" lon="1.72248">
        <ele>143.6</ele>
        <time>2019-12-04T09:08:4.000Z</time>
      </trkpt>
      <trkpt lat="43.83517" lon="1.7225">
        <ele>144</ele>
        <time>2019-12-04T09:08:12.000Z</time>
      </trkpt>
      <trkpt lat="43.83526" lon="1.72252">
        <ele>144.2</ele>
        <time>2019-12-04T09:08:20.000Z</time>
      </trkpt>
      <trkpt lat="43.83535" lon="1.72253">
        <ele>144.3</ele>
        <time>2019-12-04T09:08:28.000Z</time>
      </trkpt>
      <trkpt lat="43.83544" lon="1.72254">
        <ele>144.4</ele>
        <time>2019-12-04T09:08:35.000Z</time>
      </trkpt>
      <trkpt lat="43.83555" lon="1.72254">
        <ele>144.4</ele>
        <time>2019-12-04T09:08:43.000Z</time>
      </trkpt>
      <trkpt lat="43.83564" lon="1.72254">
        <ele>144.5</ele>
        <time>2019-12-04T09:08:51.000Z</time>
      </trkpt>
      <trkpt lat="43.83574" lon="1.72256">
        <ele>144.5</ele>
        <time>2019-12-04T09:08:58.000Z</time>
      </trkpt>
      <trkpt lat="43.83584" lon="1.72256">
        <ele>144.9</ele>
        <time>2019-12-04T09:09:7.000Z</time>
      </trkpt>
      <trkpt lat="43.83594" lon="1.72256">
        <ele>145.2</ele>
        <time>2019-12-04T09:09:15.000Z</time>
      </trkpt>
      <trkpt lat="43.83603" lon="1.72256">
        <ele>145.3</ele>
        <time>2019-12-04T09:09:23.000Z</time>
      </trkpt>
      <trkpt lat="43.83613" lon="1.72256">
        <ele>145.5</ele>
        <time>2019-12-04T09:09:31.000Z</time>
      </trkpt>
      <trkpt lat="43.83622" lon="1.72256">
        <ele>145.6</ele>
        <time>2019-12-04T09:09:39.000Z</time>
      </trkpt>
      <trkpt lat="43.83631" lon="1.72255">
        <ele>145.8</ele>
        <time>2019-12-04T09:09:46.000Z</time>
      </trkpt>
      <trkpt lat="43.83641" lon="1.72254">
        <ele>146.1</ele>
        <time>2019-12-04T09:09:55.000Z</time>
      </trkpt>
      <trkpt lat="43.8365" lon="1.72251">
        <ele>146.2</ele>
        <time>2019-12-04T09:10:2.000Z</time>
      </trkpt>
      <trkpt lat="43.8366" lon="1.7225">
        <ele>146.4</ele>
        <time>2019-12-04T09:10:10.000Z</time>
      </trkpt>
      <trkpt lat="43.83669" lon="1.7225">
        <ele>146.6</ele>
        <time>2019-12-04T09:10:19.000Z</time>
      </trkpt>
      <trkpt lat="43.83679" lon="1.72249">
        <ele>146.7</ele>
        <time>2019-12-04T09:10:27.000Z</time>
      </trkpt>
      <trkpt lat="43.83689" lon="1.72247">
        <ele>147</ele>
        <time>2019-12-04T09:10:38.000Z</time>
      </trkpt>
      <trkpt lat="43.83699" lon="1.72246">
        <ele>147.3</ele>
        <time>2019-12-04T09:10:47.000Z</time>
      </trkpt>
      <trkpt lat="43.83708" lon="1.72244">
        <ele>147.6</ele>
        <time>2019-12-04T09:10:55.000Z</time>
      </trkpt>
      <trkpt lat="43.83717" lon="1.72244">
        <ele>147.9</ele>
        <time>2019-12-04T09:11:2.000Z</time>
      </trkpt>
      <trkpt lat="43.83727" lon="1.7224">
        <ele>148.2</ele>
        <time>2019-12-04T09:11:10.000Z</time>
      </trkpt>
      <trkpt lat="43.83736" lon="1.72241">
        <ele>148.7</ele>
        <time>2019-12-04T09:11:19.000Z</time>
      </trkpt>
      <trkpt lat="43.83744" lon="1.72247">
        <ele>150.5</ele>
        <time>2019-12-04T09:14:22.000Z</time>
      </trkpt>
      <trkpt lat="43.83752" lon="1.72252">
        <ele>150.5</ele>
        <time>2019-12-04T09:14:34.000Z</time>
      </trkpt>
      <trkpt lat="43.83761" lon="1.72258">
        <ele>150.4</ele>
        <time>2019-12-04T09:14:42.000Z</time>
      </trkpt>
      <trkpt lat="43.8377" lon="1.72263">
        <ele>150.3</ele>
        <time>2019-12-04T09:14:51.000Z</time>
      </trkpt>
      <trkpt lat="43.83779" lon="1.72267">
        <ele>150.5</ele>
        <time>2019-12-04T09:15:0.000Z</time>
      </trkpt>
      <trkpt lat="43.83788" lon="1.72273">
        <ele>150.8</ele>
        <time>2019-12-04T09:15:12.000Z</time>
      </trkpt>
      <trkpt lat="43.83797" lon="1.72276">
        <ele>151.3</ele>
        <time>2019-12-04T09:15:23.000Z</time>
      </trkpt>
      <trkpt lat="43.83806" lon="1.72279">
        <ele>151.8</ele>
        <time>2019-12-04T09:15:33.000Z</time>
      </trkpt>
      <trkpt lat="43.83816" lon="1.72282">
        <ele>152.4</ele>
        <time>2019-12-04T09:15:42.000Z</time>
      </trkpt>
      <trkpt lat="43.83825" lon="1.72286">
        <ele>153.3</ele>
        <time>2019-12-04T09:15:52.000Z</time>
      </trkpt>
      <trkpt lat="43.83834" lon="1.72289">
        <ele>154.7</ele>
        <time>2019-12-04T09:16:5.000Z</time>
      </trkpt>
      <trkpt lat="43.83843" lon="1.72292">
        <ele>155.8</ele>
        <time>2019-12-04T09:16:15.000Z</time>
      </trkpt>
      <trkpt lat="43.83853" lon="1.72296">
        <ele>157.2</ele>
        <time>2019-12-04T09:16:27.000Z</time>
      </trkpt>
      <trkpt lat="43.83861" lon="1.72301">
        <ele>158.5</ele>
        <time>2019-12-04T09:16:38.000Z</time>
      </trkpt>
      <trkpt lat="43.8387" lon="1.72305">
        <ele>160</ele>
        <time>2019-12-04T09:16:50.000Z</time>
      </trkpt>
      <trkpt lat="43.83878" lon="1.72311">
        <ele>161.1</ele>
        <time>2019-12-04T09:17:0.000Z</time>
      </trkpt>
      <trkpt lat="43.83886" lon="1.72317">
        <ele>162.5</ele>
        <time>2019-12-04T09:17:11.000Z</time>
      </trkpt>
      <trkpt lat="43.83896" lon="1.72322">
        <ele>163.2</ele>
        <time>2019-12-04T09:17:20.000Z</time>
      </trkpt>
      <trkpt lat="43.83904" lon="1.72327">
        <ele>164.1</ele>
        <time>2019-12-04T09:17:30.000Z</time>
      </trkpt>
      <trkpt lat="43.83913" lon="1.72331">
        <ele>165.1</ele>
        <time>2019-12-04T09:17:41.000Z</time>
      </trkpt>
      <trkpt lat="43.83921" lon="1.72336">
        <ele>165.9</ele>
        <time>2019-12-04T09:17:50.000Z</time>
      </trkpt>
      <trkpt lat="43.83929" lon="1.72341">
        <ele>166.5</ele>
        <time>2019-12-04T09:17:59.000Z</time>
      </trkpt>
      <trkpt lat="43.83937" lon="1.72347">
        <ele>167.1</ele>
        <time>2019-12-04T09:18:9.000Z</time>
      </trkpt>
      <trkpt lat="43.83946" lon="1.72352">
        <ele>167.7</ele>
        <time>2019-12-04T09:18:19.000Z</time>
      </trkpt>
      <trkpt lat="43.83955" lon="1.72357">
        <ele>168.5</ele>
        <time>2019-12-04T09:18:30.000Z</time>
      </trkpt>
      <trkpt lat="43.83963" lon="1.72363">
        <ele>169.3</ele>
        <time>2019-12-04T09:18:39.000Z</time>
      </trkpt>
      <trkpt lat="43.83972" lon="1.72366">
        <ele>170.6</ele>
        <time>2019-12-04T09:18:51.000Z</time>
      </trkpt>
      <trkpt lat="43.8398" lon="1.72372">
        <ele>172.1</ele>
        <time>2019-12-04T09:19:4.000Z</time>
      </trkpt>
      <trkpt lat="43.83989" lon="1.72376">
        <ele>173.7</ele>
        <time>2019-12-04T09:19:16.000Z</time>
      </trkpt>
      <trkpt lat="43.83999" lon="1.72378">
        <ele>175.2</ele>
        <time>2019-12-04T09:19:28.000Z</time>
      </trkpt>
      <trkpt lat="43.84008" lon="1.7238">
        <ele>177</ele>
        <time>2019-12-04T09:19:42.000Z</time>
      </trkpt>
      <trkpt lat="43.84017" lon="1.72382">
        <ele>178.3</ele>
        <time>2019-12-04T09:19:53.000Z</time>
      </trkpt>
      <trkpt lat="43.84026" lon="1.72384">
        <ele>179.6</ele>
        <time>2019-12-04T09:20:4.000Z</time>
      </trkpt>
      <trkpt lat="43.84035" lon="1.72385">
        <ele>180.7</ele>
        <time>2019-12-04T09:20:16.000Z</time>
      </trkpt>
      <trkpt lat="43.84045" lon="1.72387">
        <ele>181.7</ele>
        <time>2019-12-04T09:20:25.000Z</time>
      </trkpt>
      <trkpt lat="43.84055" lon="1.7239">
        <ele>182.5</ele>
        <time>2019-12-04T09:20:36.000Z</time>
      </trkpt>
      <trkpt lat="43.84065" lon="1.72392">
        <ele>183.3</ele>
        <time>2019-12-04T09:20:46.000Z</time>
      </trkpt>
      <trkpt lat="43.84074" lon="1.72391">
        <ele>184.1</ele>
        <time>2019-12-04T09:20:57.000Z</time>
      </trkpt>
      <trkpt lat="43.84082" lon="1.72382">
        <ele>184.7</ele>
        <time>2019-12-04T09:21:7.000Z</time>
      </trkpt>
      <trkpt lat="43.84075" lon="1.72372">
        <ele>185.5</ele>
        <time>2019-12-04T09:21:18.000Z</time>
      </trkpt>
      <trkpt lat="43.84068" lon="1.72364">
        <ele>186.4</ele>
        <time>2019-12-04T09:21:29.000Z</time>
      </trkpt>
      <trkpt lat="43.8406" lon="1.72356">
        <ele>187.6</ele>
        <time>2019-12-04T09:21:40.000Z</time>
      </trkpt>
      <trkpt lat="43.84054" lon="1.72347">
        <ele>189</ele>
        <time>2019-12-04T09:21:51.000Z</time>
      </trkpt>
      <trkpt lat="43.84061" lon="1.72337">
        <ele>190.1</ele>
        <time>2019-12-04T09:22:1.000Z</time>
      </trkpt>
      <trkpt lat="43.84068" lon="1.72329">
        <ele>191.2</ele>
        <time>2019-12-04T09:22:10.000Z</time>
      </trkpt>
      <trkpt lat="43.84077" lon="1.72323">
        <ele>192.5</ele>
        <time>2019-12-04T09:22:20.000Z</time>
      </trkpt>
      <trkpt lat="43.84085" lon="1.72319">
        <ele>193.5</ele>
        <time>2019-12-04T09:22:31.000Z</time>
      </trkpt>
      <trkpt lat="43.84094" lon="1.72313">
        <ele>194.3</ele>
        <time>2019-12-04T09:22:41.000Z</time>
      </trkpt>
      <trkpt lat="43.84103" lon="1.72311">
        <ele>195.1</ele>
        <time>2019-12-04T09:22:51.000Z</time>
      </trkpt>
      <trkpt lat="43.84112" lon="1.7231">
        <ele>195.8</ele>
        <time>2019-12-04T09:23:1.000Z</time>
      </trkpt>
      <trkpt lat="43.84121" lon="1.72312">
        <ele>196.7</ele>
        <time>2019-12-04T09:23:13.000Z</time>
      </trkpt>
      <trkpt lat="43.84131" lon="1.72314">
        <ele>197.4</ele>
        <time>2019-12-04T09:23:23.000Z</time>
      </trkpt>
      <trkpt lat="43.84141" lon="1.72315">
        <ele>198.1</ele>
        <time>2019-12-04T09:23:34.000Z</time>
      </trkpt>
      <trkpt lat="43.8415" lon="1.72315">
        <ele>198.8</ele>
        <time>2019-12-04T09:23:42.000Z</time>
      </trkpt>
      <trkpt lat="43.8416" lon="1.72314">
        <ele>199.7</ele>
        <time>2019-12-04T09:23:53.000Z</time>
      </trkpt>
      <trkpt lat="43.84169" lon="1.72312">
        <ele>201</ele>
        <time>2019-12-04T09:24:4.000Z</time>
      </trkpt>
      <trkpt lat="43.84178" lon="1.7231">
        <ele>202.3</ele>
        <time>2019-12-04T09:24:16.000Z</time>
      </trkpt>
      <trkpt lat="43.84187" lon="1.72305">
        <ele>203.4</ele>
        <time>2019-12-04T09:24:27.000Z</time>
      </trkpt>
      <trkpt lat="43.84196" lon="1.72301">
        <ele>204.6</ele>
        <time>2019-12-04T09:24:39.000Z</time>
      </trkpt>
      <trkpt lat="43.84205" lon="1.72296">
        <ele>206.3</ele>
        <time>2019-12-04T09:24:52.000Z</time>
      </trkpt>
      <trkpt lat="43.84213" lon="1.72292">
        <ele>207.6</ele>
        <time>2019-12-04T09:25:4.000Z</time>
      </trkpt>
      <trkpt lat="43.84222" lon="1.72288">
        <ele>208.7</ele>
        <time>2019-12-04T09:25:15.000Z</time>
      </trkpt>
      <trkpt lat="43.84232" lon="1.72284">
        <ele>209.7</ele>
        <time>2019-12-04T09:25:26.000Z</time>
      </trkpt>
      <trkpt lat="43.8424" lon="1.72279">
        <ele>210.7</ele>
        <time>2019-12-04T09:25:35.000Z</time>
      </trkpt>
      <trkpt lat="43.84249" lon="1.72275">
        <ele>211.6</ele>
        <time>2019-12-04T09:25:44.000Z</time>
      </trkpt>
      <trkpt lat="43.84258" lon="1.72269">
        <ele>212.8</ele>
        <time>2019-12-04T09:25:55.000Z</time>
      </trkpt>
      <trkpt lat="43.84267" lon="1.72263">
        <ele>213.7</ele>
        <time>2019-12-04T09:26:5.000Z</time>
      </trkpt>
      <trkpt lat="43.84276" lon="1.72259">
        <ele>214.6</ele>
        <time>2019-12-04T09:26:14.000Z</time>
      </trkpt>
      <trkpt lat="43.84284" lon="1.72253">
        <ele>216.5</ele>
        <time>2019-12-04T09:26:39.000Z</time>
      </trkpt>
      <trkpt lat="43.84292" lon="1.72246">
        <ele>217.7</ele>
        <time>2019-12-04T09:29:6.000Z</time>
      </trkpt>
      <trkpt lat="43.84299" lon="1.72238">
        <ele>217.7</ele>
        <time>2019-12-04T09:29:15.000Z</time>
      </trkpt>
      <trkpt lat="43.84306" lon="1.72229">
        <ele>217.7</ele>
        <time>2019-12-04T09:29:24.000Z</time>
      </trkpt>
      <trkpt lat="43.84314" lon="1.72222">
        <ele>217.6</ele>
        <time>2019-12-04T09:29:33.000Z</time>
      </trkpt>
      <trkpt lat="43.84321" lon="1.72213">
        <ele>217.4</ele>
        <time>2019-12-04T09:29:42.000Z</time>
      </trkpt>
      <trkpt lat="43.8433" lon="1.72206">
        <ele>217.1</ele>
        <time>2019-12-04T09:29:51.000Z</time>
      </trkpt>
      <trkpt lat="43.84338" lon="1.722">
        <ele>216.7</ele>
        <time>2019-12-04T09:29:58.000Z</time>
      </trkpt>
      <trkpt lat="43.84346" lon="1.72192">
        <ele>216.3</ele>
        <time>2019-12-04T09:30:6.000Z</time>
      </trkpt>
      <trkpt lat="43.84354" lon="1.72185">
        <ele>216.1</ele>
        <time>2019-12-04T09:30:14.000Z</time>
      </trkpt>
      <trkpt lat="43.84361" lon="1.72176">
        <ele>216</ele>
        <time>2019-12-04T09:30:22.000Z</time>
      </trkpt>
      <trkpt lat="43.84367" lon="1.72167">
        <ele>215.9</ele>
        <time>2019-12-04T09:30:30.000Z</time>
      </trkpt>
      <trkpt lat="43.84374" lon="1.72159">
        <ele>215.9</ele>
        <time>2019-12-04T09:30:38.000Z</time>
      </trkpt>
      <trkpt lat="43.84382" lon="1.7215">
        <ele>215.8</ele>
        <time>2019-12-04T09:30:47.000Z</time>
      </trkpt>
      <trkpt lat="43.84388" lon="1.72141">
        <ele>215.8</ele>
        <time>2019-12-04T09:30:56.000Z</time>
      </trkpt>
      <trkpt lat="43.84396" lon="1.72131">
        <ele>215.8</ele>
        <time>2019-12-04T09:31:4.000Z</time>
      </trkpt>
      <trkpt lat="43.84402" lon="1.72122">
        <ele>215.8</ele>
        <time>2019-12-04T09:31:12.000Z</time>
      </trkpt>
      <trkpt lat="43.84409" lon="1.72112">
        <ele>215.9</ele>
        <time>2019-12-04T09:31:21.000Z</time>
      </trkpt>
      <trkpt lat="43.84416" lon="1.72103">
        <ele>216.2</ele>
        <time>2019-12-04T09:31:30.000Z</time>
      </trkpt>
      <trkpt lat="43.84423" lon="1.72094">
        <ele>216.4</ele>
        <time>2019-12-04T09:31:38.000Z</time>
      </trkpt>
      <trkpt lat="43.84429" lon="1.72085">
        <ele>217</ele>
        <time>2019-12-04T09:31:46.000Z</time>
      </trkpt>
      <trkpt lat="43.84436" lon="1.72075">
        <ele>217.7</ele>
        <time>2019-12-04T09:31:55.000Z</time>
      </trkpt>
      <trkpt lat="43.84442" lon="1.72066">
        <ele>218.2</ele>
        <time>2019-12-04T09:32:2.000Z</time>
      </trkpt>
      <trkpt lat="43.84449" lon="1.72057">
        <ele>218.8</ele>
        <time>2019-12-04T09:32:10.000Z</time>
      </trkpt>
      <trkpt lat="43.84456" lon="1.72048">
        <ele>219.4</ele>
        <time>2019-12-04T09:32:17.000Z</time>
      </trkpt>
      <trkpt lat="43.84462" lon="1.72038">
        <ele>220.2</ele>
        <time>2019-12-04T09:32:26.000Z</time>
      </trkpt>
      <trkpt lat="43.84469" lon="1.72029">
        <ele>220.9</ele>
        <time>2019-12-04T09:32:34.000Z</time>
      </trkpt>
      <trkpt lat="43.84476" lon="1.7202">
        <ele>221.6</ele>
        <time>2019-12-04T09:32:42.000Z</time>
      </trkpt>
      <trkpt lat="43.84483" lon="1.72012">
        <ele>222.2</ele>
        <time>2019-12-04T09:32:50.000Z</time>
      </trkpt>
      <trkpt lat="43.84491" lon="1.72004">
        <ele>223.1</ele>
        <time>2019-12-04T09:32:59.000Z</time>
      </trkpt>
      <trkpt lat="43.84499" lon="1.71996">
        <ele>224</ele>
        <time>2019-12-04T09:33:8.000Z</time>
      </trkpt>
      <trkpt lat="43.84505" lon="1.71987">
        <ele>224.6</ele>
        <time>2019-12-04T09:33:16.000Z</time>
      </trkpt>
      <trkpt lat="43.8451" lon="1.71976">
        <ele>225</ele>
        <time>2019-12-04T09:33:24.000Z</time>
      </trkpt>
      <trkpt lat="43.84509" lon="1.71963">
        <ele>225.5</ele>
        <time>2019-12-04T09:33:32.000Z</time>
      </trkpt>
      <trkpt lat="43.84507" lon="1.71949">
        <ele>226.1</ele>
        <time>2019-12-04T09:33:40.000Z</time>
      </trkpt>
      <trkpt lat="43.84506" lon="1.71936">
        <ele>226.7</ele>
        <time>2019-12-04T09:33:48.000Z</time>
      </trkpt>
      <trkpt lat="43.84509" lon="1.71922">
        <ele>227.1</ele>
        <time>2019-12-04T09:33:57.000Z</time>
      </trkpt>
      <trkpt lat="43.84517" lon="1.71914">
        <ele>227.3</ele>
        <time>2019-12-04T09:34:4.000Z</time>
      </trkpt>
      <trkpt lat="43.84524" lon="1.71905">
        <ele>227.6</ele>
        <time>2019-12-04T09:34:12.000Z</time>
      </trkpt>
      <trkpt lat="43.8453" lon="1.71894">
        <ele>227.8</ele>
        <time>2019-12-04T09:34:20.000Z</time>
      </trkpt>
      <trkpt lat="43.84535" lon="1.71884">
        <ele>227.9</ele>
        <time>2019-12-04T09:34:27.000Z</time>
      </trkpt>
      <trkpt lat="43.8454" lon="1.71871">
        <ele>228</ele>
        <time>2019-12-04T09:34:35.000Z</time>
      </trkpt>
      <trkpt lat="43.84544" lon="1.71859">
        <ele>228</ele>
        <time>2019-12-04T09:34:42.000Z</time>
      </trkpt>
      <trkpt lat="43.84548" lon="1.71847">
        <ele>228</ele>
        <time>2019-12-04T09:34:49.000Z</time>
      </trkpt>
      <trkpt lat="43.8455" lon="1.71835">
        <ele>228.1</ele>
        <time>2019-12-04T09:34:56.000Z</time>
      </trkpt>
      <trkpt lat="43.84553" lon="1.71823">
        <ele>228.1</ele>
        <time>2019-12-04T09:35:3.000Z</time>
      </trkpt>
      <trkpt lat="43.84558" lon="1.71811">
        <ele>228.1</ele>
        <time>2019-12-04T09:35:11.000Z</time>
      </trkpt>
      <trkpt lat="43.84565" lon="1.71802">
        <ele>228.1</ele>
        <time>2019-12-04T09:35:18.000Z</time>
      </trkpt>
      <trkpt lat="43.84574" lon="1.71797">
        <ele>228.1</ele>
        <time>2019-12-04T09:35:25.000Z</time>
      </trkpt>
      <trkpt lat="43.84582" lon="1.7179">
        <ele>228.1</ele>
        <time>2019-12-04T09:35:33.000Z</time>
      </trkpt>
      <trkpt lat="43.84591" lon="1.71786">
        <ele>227.1</ele>
        <time>2019-12-04T09:36:3.000Z</time>
      </trkpt>
      <trkpt lat="43.846" lon="1.71782">
        <ele>226.5</ele>
        <time>2019-12-04T09:36:13.000Z</time>
      </trkpt>
      <trkpt lat="43.84609" lon="1.71781">
        <ele>225.6</ele>
        <time>2019-12-04T09:36:23.000Z</time>
      </trkpt>
      <trkpt lat="43.84619" lon="1.71777">
        <ele>224.7</ele>
        <time>2019-12-04T09:36:33.000Z</time>
      </trkpt>
      <trkpt lat="43.84628" lon="1.71775">
        <ele>223.8</ele>
        <time>2019-12-04T09:36:42.000Z</time>
      </trkpt>
      <trkpt lat="43.84637" lon="1.71773">
        <ele>222.5</ele>
        <time>2019-12-04T09:36:51.000Z</time>
      </trkpt>
      <trkpt lat="43.84647" lon="1.71771">
        <ele>220.7</ele>
        <time>2019-12-04T09:37:1.000Z</time>
      </trkpt>
      <trkpt lat="43.84656" lon="1.7177">
        <ele>219.3</ele>
        <time>2019-12-04T09:37:11.000Z</time>
      </trkpt>
      <trkpt lat="43.84665" lon="1.71768">
        <ele>217.9</ele>
        <time>2019-12-04T09:37:20.000Z</time>
      </trkpt>
      <trkpt lat="43.84674" lon="1.71766">
        <ele>216.8</ele>
        <time>2019-12-04T09:37:28.000Z</time>
      </trkpt>
      <trkpt lat="43.84684" lon="1.71765">
        <ele>215.5</ele>
        <time>2019-12-04T09:37:37.000Z</time>
      </trkpt>
      <trkpt lat="43.84694" lon="1.71763">
        <ele>214.3</ele>
        <time>2019-12-04T09:37:46.000Z</time>
      </trkpt>
      <trkpt lat="43.84703" lon="1.71762">
        <ele>213.3</ele>
        <time>2019-12-04T09:37:54.000Z</time>
      </trkpt>
      <trkpt lat="43.84712" lon="1.71763">
        <ele>212.2</ele>
        <time>2019-12-04T09:38:2.000Z</time>
      </trkpt>
      <trkpt lat="43.84722" lon="1.71763">
        <ele>211.1</ele>
        <time>2019-12-04T09:38:10.000Z</time>
      </trkpt>
      <trkpt lat="43.84731" lon="1.71764">
        <ele>210</ele>
        <time>2019-12-04T09:38:18.000Z</time>
      </trkpt>
      <trkpt lat="43.84741" lon="1.71765">
        <ele>208.7</ele>
        <time>2019-12-04T09:38:27.000Z</time>
      </trkpt>
      <trkpt lat="43.8475" lon="1.71768">
        <ele>207.8</ele>
        <time>2019-12-04T09:38:34.000Z</time>
      </trkpt>
      <trkpt lat="43.84759" lon="1.71771">
        <ele>207.2</ele>
        <time>2019-12-04T09:38:42.000Z</time>
      </trkpt>
      <trkpt lat="43.84768" lon="1.71775">
        <ele>206.8</ele>
        <time>2019-12-04T09:38:50.000Z</time>
      </trkpt>
      <trkpt lat="43.84778" lon="1.71778">
        <ele>206.5</ele>
        <time>2019-12-04T09:38:59.000Z</time>
      </trkpt>
      <trkpt lat="43.84787" lon="1.71783">
        <ele>206.2</ele>
        <time>2019-12-04T09:39:7.000Z</time>
      </trkpt>
      <trkpt lat="43.84796" lon="1.71788">
        <ele>206</ele>
        <time>2019-12-04T09:39:15.000Z</time>
      </trkpt>
      <trkpt lat="43.84805" lon="1.71793">
        <ele>205.9</ele>
        <time>2019-12-04T09:39:25.000Z</time>
      </trkpt>
      <trkpt lat="43.84814" lon="1.71798">
        <ele>205.9</ele>
        <time>2019-12-04T09:39:34.000Z</time>
      </trkpt>
      <trkpt lat="43.84823" lon="1.71804">
        <ele>206.2</ele>
        <time>2019-12-04T09:39:43.000Z</time>
      </trkpt>
      <trkpt lat="43.84832" lon="1.71809">
        <ele>206.5</ele>
        <time>2019-12-04T09:39:51.000Z</time>
      </trkpt>
      <trkpt lat="43.84841" lon="1.71814">
        <ele>207</ele>
        <time>2019-12-04T09:39:59.000Z</time>
      </trkpt>
      <trkpt lat="43.8485" lon="1.71817">
        <ele>207.5</ele>
        <time>2019-12-04T09:40:9.000Z</time>
      </trkpt>
      <trkpt lat="43.84859" lon="1.7182">
        <ele>208</ele>
        <time>2019-12-04T09:40:17.000Z</time>
      </trkpt>
      <trkpt lat="43.84868" lon="1.71823">
        <ele>208.6</ele>
        <time>2019-12-04T09:40:25.000Z</time>
      </trkpt>
      <trkpt lat="43.84877" lon="1.71826">
        <ele>209</ele>
        <time>2019-12-04T09:40:33.000Z</time>
      </trkpt>
      <trkpt lat="43.84887" lon="1.7183">
        <ele>209.5</ele>
        <time>2019-12-04T09:40:41.000Z</time>
      </trkpt>
      <trkpt lat="43.84895" lon="1.71834">
        <ele>210</ele>
        <time>2019-12-04T09:40:49.000Z</time>
      </trkpt>
      <trkpt lat="43.84905" lon="1.71837">
        <ele>210.5</ele>
        <time>2019-12-04T09:40:57.000Z</time>
      </trkpt>
      <trkpt lat="43.84915" lon="1.7184">
        <ele>211.1</ele>
        <time>2019-12-04T09:41:6.000Z</time>
      </trkpt>
      <trkpt lat="43.84924" lon="1.71843">
        <ele>211.9</ele>
        <time>2019-12-04T09:41:15.000Z</time>
      </trkpt>
      <trkpt lat="43.84934" lon="1.71844">
        <ele>212.2</ele>
        <time>2019-12-04T09:41:22.000Z</time>
      </trkpt>
      <trkpt lat="43.84943" lon="1.71845">
        <ele>212.6</ele>
        <time>2019-12-04T09:41:30.000Z</time>
      </trkpt>
      <trkpt lat="43.84952" lon="1.71846">
        <ele>212.6</ele>
        <time>2019-12-04T09:41:39.000Z</time>
      </trkpt>
      <trkpt lat="43.84962" lon="1.71843">
        <ele>212.5</ele>
        <time>2019-12-04T09:41:48.000Z</time>
      </trkpt>
      <trkpt lat="43.84971" lon="1.71842">
        <ele>212.5</ele>
        <time>2019-12-04T09:41:55.000Z</time>
      </trkpt>
      <trkpt lat="43.8498" lon="1.71839">
        <ele>212.3</ele>
        <time>2019-12-04T09:42:3.000Z</time>
      </trkpt>
      <trkpt lat="43.84989" lon="1.71837">
        <ele>212.1</ele>
        <time>2019-12-04T09:42:11.000Z</time>
      </trkpt>
      <trkpt lat="43.84999" lon="1.71838">
        <ele>211.9</ele>
        <time>2019-12-04T09:42:20.000Z</time>
      </trkpt>
      <trkpt lat="43.85008" lon="1.71837">
        <ele>211.6</ele>
        <time>2019-12-04T09:42:28.000Z</time>
      </trkpt>
      <trkpt lat="43.85018" lon="1.71836">
        <ele>211.3</ele>
        <time>2019-12-04T09:42:37.000Z</time>
      </trkpt>
      <trkpt lat="43.85028" lon="1.71836">
        <ele>211</ele>
        <time>2019-12-04T09:42:46.000Z</time>
      </trkpt>
      <trkpt lat="43.85037" lon="1.71834">
        <ele>210.8</ele>
        <time>2019-12-04T09:42:56.000Z</time>
      </trkpt>
      <trkpt lat="43.85046" lon="1.71832">
        <ele>210.7</ele>
        <time>2019-12-04T09:43:4.000Z</time>
      </trkpt>
      <trkpt lat="43.85056" lon="1.7183">
        <ele>210.7</ele>
        <time>2019-12-04T09:43:13.000Z</time>
      </trkpt>
      <trkpt lat="43.85065" lon="1.71828">
        <ele>210.7</ele>
        <time>2019-12-04T09:43:21.000Z</time>
      </trkpt>
      <trkpt lat="43.85074" lon="1.7183">
        <ele>210.6</ele>
        <time>2019-12-04T09:43:30.000Z</time>
      </trkpt>
      <trkpt lat="43.85084" lon="1.7183">
        <ele>210.6</ele>
        <time>2019-12-04T09:43:39.000Z</time>
      </trkpt>
      <trkpt lat="43.85093" lon="1.71829">
        <ele>210.6</ele>
        <time>2019-12-04T09:43:47.000Z</time>
      </trkpt>
      <trkpt lat="43.85102" lon="1.71827">
        <ele>210.5</ele>
        <time>2019-12-04T09:43:55.000Z</time>
      </trkpt>
      <trkpt lat="43.85113" lon="1.71824">
        <ele>210.5</ele>
        <time>2019-12-04T09:44:3.000Z</time>
      </trkpt>
      <trkpt lat="43.85122" lon="1.71822">
        <ele>210.1</ele>
        <time>2019-12-04T09:44:11.000Z</time>
      </trkpt>
      <trkpt lat="43.85132" lon="1.7182">
        <ele>209.9</ele>
        <time>2019-12-04T09:44:19.000Z</time>
      </trkpt>
      <trkpt lat="43.85142" lon="1.71818">
        <ele>209.7</ele>
        <time>2019-12-04T09:44:26.000Z</time>
      </trkpt>
      <trkpt lat="43.85152" lon="1.71814">
        <ele>209.6</ele>
        <time>2019-12-04T09:44:34.000Z</time>
      </trkpt>
      <trkpt lat="43.85161" lon="1.71812">
        <ele>209.5</ele>
        <time>2019-12-04T09:44:44.000Z</time>
      </trkpt>
      <trkpt lat="43.8517" lon="1.71808">
        <ele>209.5</ele>
        <time>2019-12-04T09:44:56.000Z</time>
      </trkpt>
      <trkpt lat="43.8518" lon="1.71806">
        <ele>209.5</ele>
        <time>2019-12-04T09:45:7.000Z</time>
      </trkpt>
      <trkpt lat="43.85189" lon="1.71806">
        <ele>209.5</ele>
        <time>2019-12-04T09:45:17.000Z</time>
      </trkpt>
      <trkpt lat="43.85198" lon="1.71806">
        <ele>209.4</ele>
        <time>2019-12-04T09:45:27.000Z</time>
      </trkpt>
      <trkpt lat="43.85207" lon="1.71804">
        <ele>209.4</ele>
        <time>2019-12-04T09:45:36.000Z</time>
      </trkpt>
      <trkpt lat="43.85216" lon="1.71803">
        <ele>209.2</ele>
        <time>2019-12-04T09:45:45.000Z</time>
      </trkpt>
      <trkpt lat="43.85226" lon="1.71801">
        <ele>209.1</ele>
        <time>2019-12-04T09:45:53.000Z</time>
      </trkpt>
      <trkpt lat="43.85235" lon="1.71799">
        <ele>209</ele>
        <time>2019-12-04T09:46:1.000Z</time>
      </trkpt>
      <trkpt lat="43.85245" lon="1.71797">
        <ele>208.9</ele>
        <time>2019-12-04T09:46:9.000Z</time>
      </trkpt>
      <trkpt lat="43.85254" lon="1.71796">
        <ele>208.9</ele>
        <time>2019-12-04T09:46:16.000Z</time>
      </trkpt>
      <trkpt lat="43.85264" lon="1.71794">
        <ele>209</ele>
        <time>2019-12-04T09:46:24.000Z</time>
      </trkpt>
      <trkpt lat="43.85274" lon="1.71795">
        <ele>209.4</ele>
        <time>2019-12-04T09:46:35.000Z</time>
      </trkpt>
      <trkpt lat="43.85283" lon="1.71799">
        <ele>209.8</ele>
        <time>2019-12-04T09:46:46.000Z</time>
      </trkpt>
      <trkpt lat="43.85292" lon="1.71804">
        <ele>210</ele>
        <time>2019-12-04T09:46:55.000Z</time>
      </trkpt>
      <trkpt lat="43.85301" lon="1.7181">
        <ele>210.3</ele>
        <time>2019-12-04T09:47:3.000Z</time>
      </trkpt>
      <trkpt lat="43.8531" lon="1.71815">
        <ele>210.5</ele>
        <time>2019-12-04T09:47:11.000Z</time>
      </trkpt>
      <trkpt lat="43.8532" lon="1.71817">
        <ele>210.5</ele>
        <time>2019-12-04T09:47:19.000Z</time>
      </trkpt>
      <trkpt lat="43.8533" lon="1.71817">
        <ele>210.5</ele>
        <time>2019-12-04T09:47:27.000Z</time>
      </trkpt>
      <trkpt lat="43.8534" lon="1.71818">
        <ele>210.5</ele>
        <time>2019-12-04T09:47:34.000Z</time>
      </trkpt>
      <trkpt lat="43.85349" lon="1.7182">
        <ele>210.6</ele>
        <time>2019-12-04T09:47:41.000Z</time>
      </trkpt>
      <trkpt lat="43.85357" lon="1.71826">
        <ele>210.6</ele>
        <time>2019-12-04T09:47:48.000Z</time>
      </trkpt>
      <trkpt lat="43.85366" lon="1.71828">
        <ele>210.8</ele>
        <time>2019-12-04T09:47:57.000Z</time>
      </trkpt>
      <trkpt lat="43.85376" lon="1.7183">
        <ele>211.1</ele>
        <time>2019-12-04T09:48:7.000Z</time>
      </trkpt>
      <trkpt lat="43.85385" lon="1.71835">
        <ele>211.7</ele>
        <time>2019-12-04T09:48:17.000Z</time>
      </trkpt>
      <trkpt lat="43.85394" lon="1.71835">
        <ele>212.2</ele>
        <time>2019-12-04T09:48:25.000Z</time>
      </trkpt>
      <trkpt lat="43.85404" lon="1.71835">
        <ele>212.6</ele>
        <time>2019-12-04T09:48:33.000Z</time>
      </trkpt>
      <trkpt lat="43.85413" lon="1.71838">
        <ele>213.2</ele>
        <time>2019-12-04T09:48:42.000Z</time>
      </trkpt>
      <trkpt lat="43.85422" lon="1.71835">
        <ele>215.5</ele>
        <time>2019-12-04T09:49:7.000Z</time>
      </trkpt>
      <trkpt lat="43.85428" lon="1.71825">
        <ele>216.2</ele>
        <time>2019-12-04T09:49:30.000Z</time>
      </trkpt>
      <trkpt lat="43.85431" lon="1.71836">
        <ele>217.4</ele>
        <time>2019-12-04T09:55:34.000Z</time>
      </trkpt>
      <trkpt lat="43.85441" lon="1.71837">
        <ele>217.5</ele>
        <time>2019-12-04T09:55:42.000Z</time>
      </trkpt>
      <trkpt lat="43.8545" lon="1.71834">
        <ele>217.6</ele>
        <time>2019-12-04T09:55:49.000Z</time>
      </trkpt>
      <trkpt lat="43.8546" lon="1.71831">
        <ele>217.7</ele>
        <time>2019-12-04T09:55:57.000Z</time>
      </trkpt>
      <trkpt lat="43.85468" lon="1.71828">
        <ele>217.7</ele>
        <time>2019-12-04T09:56:5.000Z</time>
      </trkpt>
      <trkpt lat="43.85476" lon="1.71821">
        <ele>217.6</ele>
        <time>2019-12-04T09:56:13.000Z</time>
      </trkpt>
      <trkpt lat="43.85485" lon="1.71814">
        <ele>217.5</ele>
        <time>2019-12-04T09:56:21.000Z</time>
      </trkpt>
      <trkpt lat="43.85492" lon="1.71805">
        <ele>217.3</ele>
        <time>2019-12-04T09:56:29.000Z</time>
      </trkpt>
      <trkpt lat="43.85499" lon="1.71797">
        <ele>217</ele>
        <time>2019-12-04T09:56:37.000Z</time>
      </trkpt>
      <trkpt lat="43.85505" lon="1.71787">
        <ele>216.6</ele>
        <time>2019-12-04T09:56:45.000Z</time>
      </trkpt>
      <trkpt lat="43.85512" lon="1.71777">
        <ele>216.4</ele>
        <time>2019-12-04T09:56:54.000Z</time>
      </trkpt>
      <trkpt lat="43.85518" lon="1.71768">
        <ele>216.2</ele>
        <time>2019-12-04T09:57:2.000Z</time>
      </trkpt>
      <trkpt lat="43.85524" lon="1.71758">
        <ele>216.1</ele>
        <time>2019-12-04T09:57:9.000Z</time>
      </trkpt>
      <trkpt lat="43.85531" lon="1.71747">
        <ele>215.9</ele>
        <time>2019-12-04T09:57:18.000Z</time>
      </trkpt>
      <trkpt lat="43.85538" lon="1.71737">
        <ele>215.6</ele>
        <time>2019-12-04T09:57:25.000Z</time>
      </trkpt>
      <trkpt lat="43.85544" lon="1.71727">
        <ele>215</ele>
        <time>2019-12-04T09:57:33.000Z</time>
      </trkpt>
      <trkpt lat="43.8555" lon="1.71716">
        <ele>214.4</ele>
        <time>2019-12-04T09:57:41.000Z</time>
      </trkpt>
      <trkpt lat="43.85555" lon="1.71706">
        <ele>213.9</ele>
        <time>2019-12-04T09:57:50.000Z</time>
      </trkpt>
      <trkpt lat="43.85561" lon="1.71694">
        <ele>213.5</ele>
        <time>2019-12-04T09:57:58.000Z</time>
      </trkpt>
      <trkpt lat="43.85566" lon="1.71682">
        <ele>213.2</ele>
        <time>2019-12-04T09:58:5.000Z</time>
      </trkpt>
      <trkpt lat="43.8557" lon="1.7167">
        <ele>212.8</ele>
        <time>2019-12-04T09:58:13.000Z</time>
      </trkpt>
      <trkpt lat="43.85576" lon="1.71659">
        <ele>212.3</ele>
        <time>2019-12-04T09:58:22.000Z</time>
      </trkpt>
      <trkpt lat="43.85581" lon="1.71648">
        <ele>212</ele>
        <time>2019-12-04T09:58:29.000Z</time>
      </trkpt>
      <trkpt lat="43.85587" lon="1.71638">
        <ele>211.6</ele>
        <time>2019-12-04T09:58:36.000Z</time>
      </trkpt>
      <trkpt lat="43.85592" lon="1.71628">
        <ele>211.3</ele>
        <time>2019-12-04T09:58:43.000Z</time>
      </trkpt>
      <trkpt lat="43.85598" lon="1.71618">
        <ele>211</ele>
        <time>2019-12-04T09:58:50.000Z</time>
      </trkpt>
      <trkpt lat="43.85604" lon="1.71608">
        <ele>210.7</ele>
        <time>2019-12-04T09:58:58.000Z</time>
      </trkpt>
      <trkpt lat="43.8561" lon="1.71596">
        <ele>210.3</ele>
        <time>2019-12-04T09:59:6.000Z</time>
      </trkpt>
      <trkpt lat="43.85615" lon="1.71586">
        <ele>210</ele>
        <time>2019-12-04T09:59:13.000Z</time>
      </trkpt>
      <trkpt lat="43.85621" lon="1.71575">
        <ele>209.7</ele>
        <time>2019-12-04T09:59:21.000Z</time>
      </trkpt>
      <trkpt lat="43.85627" lon="1.71564">
        <ele>209.5</ele>
        <time>2019-12-04T09:59:28.000Z</time>
      </trkpt>
      <trkpt lat="43.85633" lon="1.71553">
        <ele>209.3</ele>
        <time>2019-12-04T09:59:36.000Z</time>
      </trkpt>
      <trkpt lat="43.85638" lon="1.71542">
        <ele>209</ele>
        <time>2019-12-04T09:59:45.000Z</time>
      </trkpt>
      <trkpt lat="43.85645" lon="1.71532">
        <ele>208.2</ele>
        <time>2019-12-04T09:59:54.000Z</time>
      </trkpt>
      <trkpt lat="43.85652" lon="1.71521">
        <ele>207.8</ele>
        <time>2019-12-04T10:00:2.000Z</time>
      </trkpt>
      <trkpt lat="43.85659" lon="1.71512">
        <ele>207.3</ele>
        <time>2019-12-04T10:00:9.000Z</time>
      </trkpt>
      <trkpt lat="43.85667" lon="1.71504">
        <ele>206.7</ele>
        <time>2019-12-04T10:00:17.000Z</time>
      </trkpt>
      <trkpt lat="43.85675" lon="1.71497">
        <ele>206</ele>
        <time>2019-12-04T10:00:25.000Z</time>
      </trkpt>
      <trkpt lat="43.85682" lon="1.71487">
        <ele>205.2</ele>
        <time>2019-12-04T10:00:33.000Z</time>
      </trkpt>
      <trkpt lat="43.85687" lon="1.71477">
        <ele>204.6</ele>
        <time>2019-12-04T10:00:40.000Z</time>
      </trkpt>
      <trkpt lat="43.85695" lon="1.71467">
        <ele>204.1</ele>
        <time>2019-12-04T10:00:47.000Z</time>
      </trkpt>
      <trkpt lat="43.85703" lon="1.71458">
        <ele>203.6</ele>
        <time>2019-12-04T10:00:54.000Z</time>
      </trkpt>
      <trkpt lat="43.85711" lon="1.71449">
        <ele>203</ele>
        <time>2019-12-04T10:01:2.000Z</time>
      </trkpt>
      <trkpt lat="43.85718" lon="1.7144">
        <ele>202.4</ele>
        <time>2019-12-04T10:01:9.000Z</time>
      </trkpt>
      <trkpt lat="43.85725" lon="1.71431">
        <ele>201.8</ele>
        <time>2019-12-04T10:01:16.000Z</time>
      </trkpt>
      <trkpt lat="43.8573" lon="1.7142">
        <ele>201.1</ele>
        <time>2019-12-04T10:01:23.000Z</time>
      </trkpt>
      <trkpt lat="43.85736" lon="1.71409">
        <ele>200.6</ele>
        <time>2019-12-04T10:01:30.000Z</time>
      </trkpt>
      <trkpt lat="43.85741" lon="1.71397">
        <ele>200.3</ele>
        <time>2019-12-04T10:01:38.000Z</time>
      </trkpt>
      <trkpt lat="43.85745" lon="1.71385">
        <ele>200.1</ele>
        <time>2019-12-04T10:01:45.000Z</time>
      </trkpt>
      <trkpt lat="43.85751" lon="1.71375">
        <ele>199.7</ele>
        <time>2019-12-04T10:01:52.000Z</time>
      </trkpt>
      <trkpt lat="43.85758" lon="1.71366">
        <ele>199.1</ele>
        <time>2019-12-04T10:02:0.000Z</time>
      </trkpt>
      <trkpt lat="43.85765" lon="1.71357">
        <ele>198.7</ele>
        <time>2019-12-04T10:02:7.000Z</time>
      </trkpt>
      <trkpt lat="43.85772" lon="1.71349">
        <ele>198.5</ele>
        <time>2019-12-04T10:02:14.000Z</time>
      </trkpt>
      <trkpt lat="43.85779" lon="1.71337">
        <ele>198.1</ele>
        <time>2019-12-04T10:02:22.000Z</time>
      </trkpt>
      <trkpt lat="43.85786" lon="1.71328">
        <ele>197.7</ele>
        <time>2019-12-04T10:02:30.000Z</time>
      </trkpt>
      <trkpt lat="43.85791" lon="1.71316">
        <ele>197.5</ele>
        <time>2019-12-04T10:02:38.000Z</time>
      </trkpt>
      <trkpt lat="43.85796" lon="1.71306">
        <ele>197.4</ele>
        <time>2019-12-04T10:02:46.000Z</time>
      </trkpt>
      <trkpt lat="43.85802" lon="1.71296">
        <ele>197.3</ele>
        <time>2019-12-04T10:02:53.000Z</time>
      </trkpt>
      <trkpt lat="43.85808" lon="1.71285">
        <ele>197.2</ele>
        <time>2019-12-04T10:03:0.000Z</time>
      </trkpt>
      <trkpt lat="43.85814" lon="1.71275">
        <ele>197</ele>
        <time>2019-12-04T10:03:8.000Z</time>
      </trkpt>
      <trkpt lat="43.8582" lon="1.71264">
        <ele>196.8</ele>
        <time>2019-12-04T10:03:15.000Z</time>
      </trkpt>
      <trkpt lat="43.85827" lon="1.71252">
        <ele>196.6</ele>
        <time>2019-12-04T10:03:23.000Z</time>
      </trkpt>
      <trkpt lat="43.85833" lon="1.71243">
        <ele>196.5</ele>
        <time>2019-12-04T10:03:30.000Z</time>
      </trkpt>
      <trkpt lat="43.8584" lon="1.71235">
        <ele>196.3</ele>
        <time>2019-12-04T10:03:36.000Z</time>
      </trkpt>
      <trkpt lat="43.85848" lon="1.71226">
        <ele>195.9</ele>
        <time>2019-12-04T10:03:44.000Z</time>
      </trkpt>
      <trkpt lat="43.85856" lon="1.71218">
        <ele>195.6</ele>
        <time>2019-12-04T10:03:51.000Z</time>
      </trkpt>
      <trkpt lat="43.85864" lon="1.71209">
        <ele>195</ele>
        <time>2019-12-04T10:03:59.000Z</time>
      </trkpt>
      <trkpt lat="43.85871" lon="1.71201">
        <ele>194.6</ele>
        <time>2019-12-04T10:04:6.000Z</time>
      </trkpt>
      <trkpt lat="43.85879" lon="1.71193">
        <ele>194.1</ele>
        <time>2019-12-04T10:04:14.000Z</time>
      </trkpt>
      <trkpt lat="43.85886" lon="1.71184">
        <ele>193.6</ele>
        <time>2019-12-04T10:04:22.000Z</time>
      </trkpt>
      <trkpt lat="43.85895" lon="1.71178">
        <ele>192.7</ele>
        <time>2019-12-04T10:04:30.000Z</time>
      </trkpt>
      <trkpt lat="43.85902" lon="1.71171">
        <ele>192.1</ele>
        <time>2019-12-04T10:04:38.000Z</time>
      </trkpt>
      <trkpt lat="43.8591" lon="1.71164">
        <ele>191.4</ele>
        <time>2019-12-04T10:04:45.000Z</time>
      </trkpt>
      <trkpt lat="43.85919" lon="1.71158">
        <ele>190.6</ele>
        <time>2019-12-04T10:04:53.000Z</time>
      </trkpt>
      <trkpt lat="43.85928" lon="1.71152">
        <ele>189.9</ele>
        <time>2019-12-04T10:05:2.000Z</time>
      </trkpt>
      <trkpt lat="43.85937" lon="1.71147">
        <ele>189.6</ele>
        <time>2019-12-04T10:05:10.000Z</time>
      </trkpt>
      <trkpt lat="43.85946" lon="1.71144">
        <ele>188.4</ele>
        <time>2019-12-04T10:05:25.000Z</time>
      </trkpt>
      <trkpt lat="43.85955" lon="1.71138">
        <ele>188</ele>
        <time>2019-12-04T10:05:32.000Z</time>
      </trkpt>
      <trkpt lat="43.85963" lon="1.71134">
        <ele>187.6</ele>
        <time>2019-12-04T10:05:39.000Z</time>
      </trkpt>
      <trkpt lat="43.85973" lon="1.71131">
        <ele>187.2</ele>
        <time>2019-12-04T10:05:47.000Z</time>
      </trkpt>
      <trkpt lat="43.85982" lon="1.71128">
        <ele>186.4</ele>
        <time>2019-12-04T10:05:54.000Z</time>
      </trkpt>
      <trkpt lat="43.85991" lon="1.71124">
        <ele>185.8</ele>
        <time>2019-12-04T10:06:1.000Z</time>
      </trkpt>
      <trkpt lat="43.86" lon="1.71122">
        <ele>185.3</ele>
        <time>2019-12-04T10:06:9.000Z</time>
      </trkpt>
      <trkpt lat="43.8601" lon="1.71117">
        <ele>184.3</ele>
        <time>2019-12-04T10:06:18.000Z</time>
      </trkpt>
      <trkpt lat="43.8602" lon="1.71115">
        <ele>183.6</ele>
        <time>2019-12-04T10:06:25.000Z</time>
      </trkpt>
      <trkpt lat="43.8603" lon="1.71113">
        <ele>183</ele>
        <time>2019-12-04T10:06:31.000Z</time>
      </trkpt>
      <trkpt lat="43.86039" lon="1.71109">
        <ele>182</ele>
        <time>2019-12-04T10:06:39.000Z</time>
      </trkpt>
      <trkpt lat="43.86049" lon="1.71107">
        <ele>181.6</ele>
        <time>2019-12-04T10:06:45.000Z</time>
      </trkpt>
      <trkpt lat="43.86058" lon="1.71103">
        <ele>181</ele>
        <time>2019-12-04T10:06:52.000Z</time>
      </trkpt>
      <trkpt lat="43.86067" lon="1.71101">
        <ele>180.3</ele>
        <time>2019-12-04T10:07:0.000Z</time>
      </trkpt>
      <trkpt lat="43.86077" lon="1.711">
        <ele>179.7</ele>
        <time>2019-12-04T10:07:7.000Z</time>
      </trkpt>
      <trkpt lat="43.86087" lon="1.71096">
        <ele>178.7</ele>
        <time>2019-12-04T10:07:18.000Z</time>
      </trkpt>
      <trkpt lat="43.86096" lon="1.71094">
        <ele>177.7</ele>
        <time>2019-12-04T10:07:27.000Z</time>
      </trkpt>
      <trkpt lat="43.86106" lon="1.71095">
        <ele>176.7</ele>
        <time>2019-12-04T10:07:35.000Z</time>
      </trkpt>
      <trkpt lat="43.86115" lon="1.71092">
        <ele>175.5</ele>
        <time>2019-12-04T10:07:42.000Z</time>
      </trkpt>
      <trkpt lat="43.86125" lon="1.7109">
        <ele>174.8</ele>
        <time>2019-12-04T10:07:49.000Z</time>
      </trkpt>
      <trkpt lat="43.86134" lon="1.71087">
        <ele>173.9</ele>
        <time>2019-12-04T10:07:56.000Z</time>
      </trkpt>
      <trkpt lat="43.86144" lon="1.71086">
        <ele>172.8</ele>
        <time>2019-12-04T10:08:4.000Z</time>
      </trkpt>
      <trkpt lat="43.86154" lon="1.71084">
        <ele>171.9</ele>
        <time>2019-12-04T10:08:12.000Z</time>
      </trkpt>
      <trkpt lat="43.86163" lon="1.71081">
        <ele>171</ele>
        <time>2019-12-04T10:08:19.000Z</time>
      </trkpt>
      <trkpt lat="43.86172" lon="1.7108">
        <ele>170.2</ele>
        <time>2019-12-04T10:08:25.000Z</time>
      </trkpt>
      <trkpt lat="43.86181" lon="1.71077">
        <ele>169.3</ele>
        <time>2019-12-04T10:08:32.000Z</time>
      </trkpt>
      <trkpt lat="43.86191" lon="1.71074">
        <ele>168.6</ele>
        <time>2019-12-04T10:08:39.000Z</time>
      </trkpt>
      <trkpt lat="43.86201" lon="1.71071">
        <ele>167.9</ele>
        <time>2019-12-04T10:08:47.000Z</time>
      </trkpt>
      <trkpt lat="43.8621" lon="1.71067">
        <ele>167.3</ele>
        <time>2019-12-04T10:08:54.000Z</time>
      </trkpt>
      <trkpt lat="43.86219" lon="1.71064">
        <ele>166.5</ele>
        <time>2019-12-04T10:09:1.000Z</time>
      </trkpt>
      <trkpt lat="43.86228" lon="1.7106">
        <ele>165.9</ele>
        <time>2019-12-04T10:09:8.000Z</time>
      </trkpt>
      <trkpt lat="43.86237" lon="1.71059">
        <ele>165</ele>
        <time>2019-12-04T10:09:15.000Z</time>
      </trkpt>
      <trkpt lat="43.86247" lon="1.71056">
        <ele>164.2</ele>
        <time>2019-12-04T10:09:23.000Z</time>
      </trkpt>
      <trkpt lat="43.86256" lon="1.71053">
        <ele>163.3</ele>
        <time>2019-12-04T10:09:31.000Z</time>
      </trkpt>
      <trkpt lat="43.86266" lon="1.71048">
        <ele>162.7</ele>
        <time>2019-12-04T10:09:39.000Z</time>
      </trkpt>
      <trkpt lat="43.86275" lon="1.71043">
        <ele>162.2</ele>
        <time>2019-12-04T10:09:46.000Z</time>
      </trkpt>
      <trkpt lat="43.86284" lon="1.71037">
        <ele>161.4</ele>
        <time>2019-12-04T10:09:53.000Z</time>
      </trkpt>
      <trkpt lat="43.86293" lon="1.71033">
        <ele>160.9</ele>
        <time>2019-12-04T10:09:59.000Z</time>
      </trkpt>
      <trkpt lat="43.86302" lon="1.71029">
        <ele>160.4</ele>
        <time>2019-12-04T10:10:6.000Z</time>
      </trkpt>
      <trkpt lat="43.86311" lon="1.71023">
        <ele>160.1</ele>
        <time>2019-12-04T10:10:12.000Z</time>
      </trkpt>
      <trkpt lat="43.8632" lon="1.71017">
        <ele>159.8</ele>
        <time>2019-12-04T10:10:19.000Z</time>
      </trkpt>
      <trkpt lat="43.86328" lon="1.71009">
        <ele>159.4</ele>
        <time>2019-12-04T10:10:28.000Z</time>
      </trkpt>
      <trkpt lat="43.86334" lon="1.70998">
        <ele>159</ele>
        <time>2019-12-04T10:10:37.000Z</time>
      </trkpt>
      <trkpt lat="43.8634" lon="1.70988">
        <ele>158.7</ele>
        <time>2019-12-04T10:10:45.000Z</time>
      </trkpt>
      <trkpt lat="43.86344" lon="1.70977">
        <ele>158.8</ele>
        <time>2019-12-04T10:10:53.000Z</time>
      </trkpt>
      <trkpt lat="43.86349" lon="1.70964">
        <ele>158.8</ele>
        <time>2019-12-04T10:11:0.000Z</time>
      </trkpt>
      <trkpt lat="43.86353" lon="1.70952">
        <ele>158.5</ele>
        <time>2019-12-04T10:11:7.000Z</time>
      </trkpt>
      <trkpt lat="43.86355" lon="1.7094">
        <ele>158.3</ele>
        <time>2019-12-04T10:11:16.000Z</time>
      </trkpt>
      <trkpt lat="43.8636" lon="1.70928">
        <ele>158.2</ele>
        <time>2019-12-04T10:11:24.000Z</time>
      </trkpt>
      <trkpt lat="43.86365" lon="1.70917">
        <ele>158.1</ele>
        <time>2019-12-04T10:11:32.000Z</time>
      </trkpt>
      <trkpt lat="43.86369" lon="1.70905">
        <ele>158.1</ele>
        <time>2019-12-04T10:11:40.000Z</time>
      </trkpt>
      <trkpt lat="43.86375" lon="1.70895">
        <ele>158</ele>
        <time>2019-12-04T10:11:47.000Z</time>
      </trkpt>
      <trkpt lat="43.86381" lon="1.70883">
        <ele>158</ele>
        <time>2019-12-04T10:11:55.000Z</time>
      </trkpt>
      <trkpt lat="43.86387" lon="1.70872">
        <ele>158</ele>
        <time>2019-12-04T10:12:4.000Z</time>
      </trkpt>
      <trkpt lat="43.86392" lon="1.7086">
        <ele>158</ele>
        <time>2019-12-04T10:12:13.000Z</time>
      </trkpt>
      <trkpt lat="43.86398" lon="1.70851">
        <ele>158</ele>
        <time>2019-12-04T10:12:19.000Z</time>
      </trkpt>
      <trkpt lat="43.86403" lon="1.7084">
        <ele>158</ele>
        <time>2019-12-04T10:12:26.000Z</time>
      </trkpt>
      <trkpt lat="43.86408" lon="1.7083">
        <ele>158</ele>
        <time>2019-12-04T10:12:33.000Z</time>
      </trkpt>
      <trkpt lat="43.86414" lon="1.70821">
        <ele>158</ele>
        <time>2019-12-04T10:12:40.000Z</time>
      </trkpt>
      <trkpt lat="43.86421" lon="1.70811">
        <ele>158.1</ele>
        <time>2019-12-04T10:12:49.000Z</time>
      </trkpt>
      <trkpt lat="43.86428" lon="1.70801">
        <ele>158.3</ele>
        <time>2019-12-04T10:12:58.000Z</time>
      </trkpt>
      <trkpt lat="43.86432" lon="1.70789">
        <ele>158.4</ele>
        <time>2019-12-04T10:13:7.000Z</time>
      </trkpt>
      <trkpt lat="43.86439" lon="1.70779">
        <ele>158.6</ele>
        <time>2019-12-04T10:13:16.000Z</time>
      </trkpt>
      <trkpt lat="43.86445" lon="1.70769">
        <ele>158.7</ele>
        <time>2019-12-04T10:13:24.000Z</time>
      </trkpt>
      <trkpt lat="43.86451" lon="1.70759">
        <ele>159</ele>
        <time>2019-12-04T10:13:31.000Z</time>
      </trkpt>
      <trkpt lat="43.86457" lon="1.70749">
        <ele>159.4</ele>
        <time>2019-12-04T10:13:38.000Z</time>
      </trkpt>
      <trkpt lat="43.86462" lon="1.70738">
        <ele>159.9</ele>
        <time>2019-12-04T10:13:46.000Z</time>
      </trkpt>
      <trkpt lat="43.86469" lon="1.70729">
        <ele>160.5</ele>
        <time>2019-12-04T10:13:54.000Z</time>
      </trkpt>
      <trkpt lat="43.86475" lon="1.70719">
        <ele>161.1</ele>
        <time>2019-12-04T10:14:2.000Z</time>
      </trkpt>
      <trkpt lat="43.86481" lon="1.70709">
        <ele>161.7</ele>
        <time>2019-12-04T10:14:11.000Z</time>
      </trkpt>
      <trkpt lat="43.86486" lon="1.70699">
        <ele>162.3</ele>
        <time>2019-12-04T10:14:20.000Z</time>
      </trkpt>
      <trkpt lat="43.86492" lon="1.70689">
        <ele>163.1</ele>
        <time>2019-12-04T10:14:28.000Z</time>
      </trkpt>
      <trkpt lat="43.86499" lon="1.70679">
        <ele>163.8</ele>
        <time>2019-12-04T10:14:37.000Z</time>
      </trkpt>
      <trkpt lat="43.86505" lon="1.70669">
        <ele>164.5</ele>
        <time>2019-12-04T10:14:46.000Z</time>
      </trkpt>
      <trkpt lat="43.8651" lon="1.70657">
        <ele>165.4</ele>
        <time>2019-12-04T10:14:55.000Z</time>
      </trkpt>
      <trkpt lat="43.86517" lon="1.70648">
        <ele>166.3</ele>
        <time>2019-12-04T10:15:4.000Z</time>
      </trkpt>
      <trkpt lat="43.86521" lon="1.70637">
        <ele>167.2</ele>
        <time>2019-12-04T10:15:13.000Z</time>
      </trkpt>
      <trkpt lat="43.86527" lon="1.70625">
        <ele>168.2</ele>
        <time>2019-12-04T10:15:23.000Z</time>
      </trkpt>
      <trkpt lat="43.86533" lon="1.70615">
        <ele>169.2</ele>
        <time>2019-12-04T10:15:32.000Z</time>
      </trkpt>
      <trkpt lat="43.86538" lon="1.70605">
        <ele>170</ele>
        <time>2019-12-04T10:15:40.000Z</time>
      </trkpt>
      <trkpt lat="43.86545" lon="1.70595">
        <ele>170.9</ele>
        <time>2019-12-04T10:15:48.000Z</time>
      </trkpt>
      <trkpt lat="43.86551" lon="1.70585">
        <ele>171.7</ele>
        <time>2019-12-04T10:15:56.000Z</time>
      </trkpt>
      <trkpt lat="43.86557" lon="1.70575">
        <ele>172.7</ele>
        <time>2019-12-04T10:16:4.000Z</time>
      </trkpt>
      <trkpt lat="43.86563" lon="1.70565">
        <ele>174.1</ele>
        <time>2019-12-04T10:16:13.000Z</time>
      </trkpt>
      <trkpt lat="43.8657" lon="1.70554">
        <ele>175.2</ele>
        <time>2019-12-04T10:16:21.000Z</time>
      </trkpt>
      <trkpt lat="43.86575" lon="1.70543">
        <ele>176.4</ele>
        <time>2019-12-04T10:16:30.000Z</time>
      </trkpt>
      <trkpt lat="43.8658" lon="1.70532">
        <ele>177.5</ele>
        <time>2019-12-04T10:16:39.000Z</time>
      </trkpt>
      <trkpt lat="43.86587" lon="1.70521">
        <ele>178.7</ele>
        <time>2019-12-04T10:16:48.000Z</time>
      </trkpt>
      <trkpt lat="43.86594" lon="1.70514">
        <ele>179.7</ele>
        <time>2019-12-04T10:16:56.000Z</time>
      </trkpt>
      <trkpt lat="43.866" lon="1.70504">
        <ele>180.7</ele>
        <time>2019-12-04T10:17:4.000Z</time>
      </trkpt>
      <trkpt lat="43.86605" lon="1.70492">
        <ele>181.9</ele>
        <time>2019-12-04T10:17:13.000Z</time>
      </trkpt>
      <trkpt lat="43.86611" lon="1.70482">
        <ele>183.2</ele>
        <time>2019-12-04T10:17:22.000Z</time>
      </trkpt>
      <trkpt lat="43.86619" lon="1.70474">
        <ele>184.1</ele>
        <time>2019-12-04T10:17:29.000Z</time>
      </trkpt>
      <trkpt lat="43.86624" lon="1.70462">
        <ele>185.1</ele>
        <time>2019-12-04T10:17:38.000Z</time>
      </trkpt>
      <trkpt lat="43.86629" lon="1.70452">
        <ele>186.2</ele>
        <time>2019-12-04T10:17:47.000Z</time>
      </trkpt>
      <trkpt lat="43.86635" lon="1.7044">
        <ele>187.5</ele>
        <time>2019-12-04T10:17:56.000Z</time>
      </trkpt>
      <trkpt lat="43.86641" lon="1.7043">
        <ele>188.7</ele>
        <time>2019-12-04T10:18:7.000Z</time>
      </trkpt>
      <trkpt lat="43.86646" lon="1.70419">
        <ele>189.8</ele>
        <time>2019-12-04T10:18:16.000Z</time>
      </trkpt>
      <trkpt lat="43.86653" lon="1.7041">
        <ele>190.9</ele>
        <time>2019-12-04T10:18:25.000Z</time>
      </trkpt>
      <trkpt lat="43.86658" lon="1.70397">
        <ele>192</ele>
        <time>2019-12-04T10:18:34.000Z</time>
      </trkpt>
      <trkpt lat="43.86664" lon="1.70388">
        <ele>193</ele>
        <time>2019-12-04T10:18:42.000Z</time>
      </trkpt>
      <trkpt lat="43.86671" lon="1.70378">
        <ele>194</ele>
        <time>2019-12-04T10:18:50.000Z</time>
      </trkpt>
      <trkpt lat="43.86677" lon="1.70368">
        <ele>195</ele>
        <time>2019-12-04T10:18:57.000Z</time>
      </trkpt>
      <trkpt lat="43.86683" lon="1.70357">
        <ele>196.1</ele>
        <time>2019-12-04T10:19:5.000Z</time>
      </trkpt>
      <trkpt lat="43.86689" lon="1.70347">
        <ele>197.1</ele>
        <time>2019-12-04T10:19:12.000Z</time>
      </trkpt>
      <trkpt lat="43.86696" lon="1.70338">
        <ele>198.4</ele>
        <time>2019-12-04T10:19:20.000Z</time>
      </trkpt>
      <trkpt lat="43.86702" lon="1.70327">
        <ele>199.5</ele>
        <time>2019-12-04T10:19:28.000Z</time>
      </trkpt>
      <trkpt lat="43.86709" lon="1.70317">
        <ele>200.8</ele>
        <time>2019-12-04T10:19:37.000Z</time>
      </trkpt>
      <trkpt lat="43.86713" lon="1.70305">
        <ele>201.9</ele>
        <time>2019-12-04T10:19:45.000Z</time>
      </trkpt>
      <trkpt lat="43.86718" lon="1.70293">
        <ele>203.3</ele>
        <time>2019-12-04T10:19:54.000Z</time>
      </trkpt>
      <trkpt lat="43.86725" lon="1.70284">
        <ele>204.5</ele>
        <time>2019-12-04T10:20:2.000Z</time>
      </trkpt>
      <trkpt lat="43.86731" lon="1.70274">
        <ele>205.6</ele>
        <time>2019-12-04T10:20:10.000Z</time>
      </trkpt>
      <trkpt lat="43.86737" lon="1.70263">
        <ele>206.7</ele>
        <time>2019-12-04T10:20:18.000Z</time>
      </trkpt>
      <trkpt lat="43.86742" lon="1.70252">
        <ele>207.8</ele>
        <time>2019-12-04T10:20:26.000Z</time>
      </trkpt>
      <trkpt lat="43.86747" lon="1.70241">
        <ele>209.4</ele>
        <time>2019-12-04T10:20:37.000Z</time>
      </trkpt>
      <trkpt lat="43.86753" lon="1.7023">
        <ele>211.2</ele>
        <time>2019-12-04T10:20:47.000Z</time>
      </trkpt>
      <trkpt lat="43.8676" lon="1.70219">
        <ele>212.4</ele>
        <time>2019-12-04T10:20:56.000Z</time>
      </trkpt>
      <trkpt lat="43.86767" lon="1.7021">
        <ele>213.6</ele>
        <time>2019-12-04T10:21:5.000Z</time>
      </trkpt>
      <trkpt lat="43.86772" lon="1.70199">
        <ele>217.1</ele>
        <time>2019-12-04T10:29:4.000Z</time>
      </trkpt>
      <trkpt lat="43.8677" lon="1.70186">
        <ele>216.4</ele>
        <time>2019-12-04T10:29:17.000Z</time>
      </trkpt>
      <trkpt lat="43.86765" lon="1.70174">
        <ele>215.6</ele>
        <time>2019-12-04T10:29:26.000Z</time>
      </trkpt>
      <trkpt lat="43.86759" lon="1.70165">
        <ele>214.9</ele>
        <time>2019-12-04T10:29:34.000Z</time>
      </trkpt>
      <trkpt lat="43.86754" lon="1.70153">
        <ele>213.7</ele>
        <time>2019-12-04T10:29:45.000Z</time>
      </trkpt>
      <trkpt lat="43.86748" lon="1.70143">
        <ele>212.3</ele>
        <time>2019-12-04T10:29:56.000Z</time>
      </trkpt>
      <trkpt lat="43.86741" lon="1.70134">
        <ele>211.5</ele>
        <time>2019-12-04T10:30:4.000Z</time>
      </trkpt>
      <trkpt lat="43.86736" lon="1.70124">
        <ele>210.2</ele>
        <time>2019-12-04T10:30:13.000Z</time>
      </trkpt>
      <trkpt lat="43.8673" lon="1.70113">
        <ele>208.9</ele>
        <time>2019-12-04T10:30:22.000Z</time>
      </trkpt>
      <trkpt lat="43.86725" lon="1.70102">
        <ele>208</ele>
        <time>2019-12-04T10:30:31.000Z</time>
      </trkpt>
      <trkpt lat="43.86719" lon="1.70093">
        <ele>207.5</ele>
        <time>2019-12-04T10:30:39.000Z</time>
      </trkpt>
      <trkpt lat="43.86723" lon="1.70081">
        <ele>206.5</ele>
        <time>2019-12-04T10:30:50.000Z</time>
      </trkpt>
      <trkpt lat="43.86732" lon="1.70081">
        <ele>206.1</ele>
        <time>2019-12-04T10:30:59.000Z</time>
      </trkpt>
      <trkpt lat="43.86741" lon="1.70085">
        <ele>205.8</ele>
        <time>2019-12-04T10:31:10.000Z</time>
      </trkpt>
      <trkpt lat="43.8675" lon="1.70086">
        <ele>205.9</ele>
        <time>2019-12-04T10:31:18.000Z</time>
      </trkpt>
      <trkpt lat="43.8676" lon="1.70088">
        <ele>206</ele>
        <time>2019-12-04T10:31:26.000Z</time>
      </trkpt>
      <trkpt lat="43.86769" lon="1.70091">
        <ele>206.1</ele>
        <time>2019-12-04T10:31:34.000Z</time>
      </trkpt>
      <trkpt lat="43.86779" lon="1.70092">
        <ele>206.2</ele>
        <time>2019-12-04T10:31:42.000Z</time>
      </trkpt>
      <trkpt lat="43.86789" lon="1.70094">
        <ele>206.5</ele>
        <time>2019-12-04T10:31:48.000Z</time>
      </trkpt>
      <trkpt lat="43.86799" lon="1.70095">
        <ele>206.7</ele>
        <time>2019-12-04T10:31:54.000Z</time>
      </trkpt>
      <trkpt lat="43.86808" lon="1.70095">
        <ele>206.9</ele>
        <time>2019-12-04T10:32:1.000Z</time>
      </trkpt>
      <trkpt lat="43.86818" lon="1.70095">
        <ele>207.1</ele>
        <time>2019-12-04T10:32:8.000Z</time>
      </trkpt>
      <trkpt lat="43.86827" lon="1.70095">
        <ele>207.4</ele>
        <time>2019-12-04T10:32:16.000Z</time>
      </trkpt>
      <trkpt lat="43.86837" lon="1.70093">
        <ele>207.7</ele>
        <time>2019-12-04T10:32:23.000Z</time>
      </trkpt>
      <trkpt lat="43.86846" lon="1.70088">
        <ele>208</ele>
        <time>2019-12-04T10:32:31.000Z</time>
      </trkpt>
      <trkpt lat="43.86855" lon="1.70085">
        <ele>208.5</ele>
        <time>2019-12-04T10:32:40.000Z</time>
      </trkpt>
      <trkpt lat="43.86864" lon="1.70079">
        <ele>208.8</ele>
        <time>2019-12-04T10:32:48.000Z</time>
      </trkpt>
      <trkpt lat="43.86872" lon="1.70076">
        <ele>209.1</ele>
        <time>2019-12-04T10:32:58.000Z</time>
      </trkpt>
      <trkpt lat="43.86881" lon="1.70076">
        <ele>209.5</ele>
        <time>2019-12-04T10:33:8.000Z</time>
      </trkpt>
      <trkpt lat="43.86891" lon="1.7008">
        <ele>209.6</ele>
        <time>2019-12-04T10:33:17.000Z</time>
      </trkpt>
      <trkpt lat="43.869" lon="1.70084">
        <ele>209.8</ele>
        <time>2019-12-04T10:33:25.000Z</time>
      </trkpt>
      <trkpt lat="43.8691" lon="1.70085">
        <ele>210</ele>
        <time>2019-12-04T10:33:32.000Z</time>
      </trkpt>
      <trkpt lat="43.8692" lon="1.70087">
        <ele>210.4</ele>
        <time>2019-12-04T10:33:40.000Z</time>
      </trkpt>
      <trkpt lat="43.8693" lon="1.70087">
        <ele>210.7</ele>
        <time>2019-12-04T10:33:47.000Z</time>
      </trkpt>
      <trkpt lat="43.86939" lon="1.70089">
        <ele>211</ele>
        <time>2019-12-04T10:33:55.000Z</time>
      </trkpt>
      <trkpt lat="43.86948" lon="1.70091">
        <ele>211.3</ele>
        <time>2019-12-04T10:34:4.000Z</time>
      </trkpt>
      <trkpt lat="43.86958" lon="1.70089">
        <ele>211.4</ele>
        <time>2019-12-04T10:34:11.000Z</time>
      </trkpt>
      <trkpt lat="43.86968" lon="1.70087">
        <ele>211.7</ele>
        <time>2019-12-04T10:34:20.000Z</time>
      </trkpt>
      <trkpt lat="43.86977" lon="1.70088">
        <ele>211.9</ele>
        <time>2019-12-04T10:34:28.000Z</time>
      </trkpt>
      <trkpt lat="43.86987" lon="1.70088">
        <ele>212.2</ele>
        <time>2019-12-04T10:34:38.000Z</time>
      </trkpt>
      <trkpt lat="43.86996" lon="1.70087">
        <ele>212.4</ele>
        <time>2019-12-04T10:34:45.000Z</time>
      </trkpt>
      <trkpt lat="43.87006" lon="1.70086">
        <ele>212.7</ele>
        <time>2019-12-04T10:34:52.000Z</time>
      </trkpt>
      <trkpt lat="43.87015" lon="1.70083">
        <ele>213</ele>
        <time>2019-12-04T10:35:1.000Z</time>
      </trkpt>
      <trkpt lat="43.87025" lon="1.70078">
        <ele>213.4</ele>
        <time>2019-12-04T10:35:10.000Z</time>
      </trkpt>
      <trkpt lat="43.87034" lon="1.70074">
        <ele>213.6</ele>
        <time>2019-12-04T10:35:17.000Z</time>
      </trkpt>
      <trkpt lat="43.87043" lon="1.70069">
        <ele>213.8</ele>
        <time>2019-12-04T10:35:25.000Z</time>
      </trkpt>
      <trkpt lat="43.87051" lon="1.70062">
        <ele>214.1</ele>
        <time>2019-12-04T10:35:33.000Z</time>
      </trkpt>
      <trkpt lat="43.87059" lon="1.70052">
        <ele>214.5</ele>
        <time>2019-12-04T10:35:42.000Z</time>
      </trkpt>
      <trkpt lat="43.87064" lon="1.70042">
        <ele>214.9</ele>
        <time>2019-12-04T10:35:50.000Z</time>
      </trkpt>
      <trkpt lat="43.87068" lon="1.7003">
        <ele>215.2</ele>
        <time>2019-12-04T10:35:59.000Z</time>
      </trkpt>
      <trkpt lat="43.87071" lon="1.70018">
        <ele>215</ele>
        <time>2019-12-04T10:36:9.000Z</time>
      </trkpt>
      <trkpt lat="43.87076" lon="1.70006">
        <ele>214.7</ele>
        <time>2019-12-04T10:36:18.000Z</time>
      </trkpt>
      <trkpt lat="43.87079" lon="1.69994">
        <ele>214.5</ele>
        <time>2019-12-04T10:36:26.000Z</time>
      </trkpt>
      <trkpt lat="43.87084" lon="1.69983">
        <ele>214.1</ele>
        <time>2019-12-04T10:36:33.000Z</time>
      </trkpt>
      <trkpt lat="43.87088" lon="1.69971">
        <ele>213.6</ele>
        <time>2019-12-04T10:36:42.000Z</time>
      </trkpt>
      <trkpt lat="43.87093" lon="1.6996">
        <ele>213</ele>
        <time>2019-12-04T10:36:50.000Z</time>
      </trkpt>
      <trkpt lat="43.87098" lon="1.69947">
        <ele>211.9</ele>
        <time>2019-12-04T10:36:58.000Z</time>
      </trkpt>
      <trkpt lat="43.87103" lon="1.69936">
        <ele>211.1</ele>
        <time>2019-12-04T10:37:5.000Z</time>
      </trkpt>
      <trkpt lat="43.87108" lon="1.69926">
        <ele>210.2</ele>
        <time>2019-12-04T10:37:13.000Z</time>
      </trkpt>
      <trkpt lat="43.87113" lon="1.69914">
        <ele>209.4</ele>
        <time>2019-12-04T10:37:21.000Z</time>
      </trkpt>
      <trkpt lat="43.87117" lon="1.69903">
        <ele>208.6</ele>
        <time>2019-12-04T10:37:29.000Z</time>
      </trkpt>
      <trkpt lat="43.87124" lon="1.69893">
        <ele>207.3</ele>
        <time>2019-12-04T10:37:37.000Z</time>
      </trkpt>
      <trkpt lat="43.87129" lon="1.69882">
        <ele>206.2</ele>
        <time>2019-12-04T10:37:44.000Z</time>
      </trkpt>
      <trkpt lat="43.87133" lon="1.69868">
        <ele>204.1</ele>
        <time>2019-12-04T10:37:54.000Z</time>
      </trkpt>
      <trkpt lat="43.87138" lon="1.69857">
        <ele>203</ele>
        <time>2019-12-04T10:38:3.000Z</time>
      </trkpt>
      <trkpt lat="43.87143" lon="1.69846">
        <ele>202.3</ele>
        <time>2019-12-04T10:38:10.000Z</time>
      </trkpt>
      <trkpt lat="43.8715" lon="1.69837">
        <ele>201.6</ele>
        <time>2019-12-04T10:38:18.000Z</time>
      </trkpt>
      <trkpt lat="43.87155" lon="1.69825">
        <ele>200.7</ele>
        <time>2019-12-04T10:38:27.000Z</time>
      </trkpt>
      <trkpt lat="43.87161" lon="1.69814">
        <ele>199.6</ele>
        <time>2019-12-04T10:38:34.000Z</time>
      </trkpt>
      <trkpt lat="43.87166" lon="1.69804">
        <ele>198.5</ele>
        <time>2019-12-04T10:38:41.000Z</time>
      </trkpt>
      <trkpt lat="43.87173" lon="1.69794">
        <ele>197.6</ele>
        <time>2019-12-04T10:38:49.000Z</time>
      </trkpt>
      <trkpt lat="43.87177" lon="1.69783">
        <ele>196.7</ele>
        <time>2019-12-04T10:38:56.000Z</time>
      </trkpt>
      <trkpt lat="43.87182" lon="1.69771">
        <ele>196.1</ele>
        <time>2019-12-04T10:39:3.000Z</time>
      </trkpt>
      <trkpt lat="43.87188" lon="1.69759">
        <ele>195.6</ele>
        <time>2019-12-04T10:39:11.000Z</time>
      </trkpt>
      <trkpt lat="43.87192" lon="1.69748">
        <ele>195.3</ele>
        <time>2019-12-04T10:39:19.000Z</time>
      </trkpt>
      <trkpt lat="43.87197" lon="1.69736">
        <ele>194.7</ele>
        <time>2019-12-04T10:39:26.000Z</time>
      </trkpt>
      <trkpt lat="43.87201" lon="1.69723">
        <ele>194.1</ele>
        <time>2019-12-04T10:39:33.000Z</time>
      </trkpt>
      <trkpt lat="43.87206" lon="1.69711">
        <ele>193.7</ele>
        <time>2019-12-04T10:39:40.000Z</time>
      </trkpt>
      <trkpt lat="43.87209" lon="1.69699">
        <ele>193.5</ele>
        <time>2019-12-04T10:39:47.000Z</time>
      </trkpt>
      <trkpt lat="43.87213" lon="1.69688">
        <ele>193.3</ele>
        <time>2019-12-04T10:39:53.000Z</time>
      </trkpt>
      <trkpt lat="43.87217" lon="1.69674">
        <ele>192.9</ele>
        <time>2019-12-04T10:40:3.000Z</time>
      </trkpt>
      <trkpt lat="43.8722" lon="1.69662">
        <ele>192.6</ele>
        <time>2019-12-04T10:40:10.000Z</time>
      </trkpt>
      <trkpt lat="43.87225" lon="1.6965">
        <ele>192.3</ele>
        <time>2019-12-04T10:40:18.000Z</time>
      </trkpt>
      <trkpt lat="43.87228" lon="1.69638">
        <ele>192.2</ele>
        <time>2019-12-04T10:40:25.000Z</time>
      </trkpt>
      <trkpt lat="43.87234" lon="1.69628">
        <ele>192.1</ele>
        <time>2019-12-04T10:40:32.000Z</time>
      </trkpt>
      <trkpt lat="43.87238" lon="1.69616">
        <ele>192</ele>
        <time>2019-12-04T10:40:39.000Z</time>
      </trkpt>
      <trkpt lat="43.87242" lon="1.69604">
        <ele>192</ele>
        <time>2019-12-04T10:40:46.000Z</time>
      </trkpt>
      <trkpt lat="43.87246" lon="1.69591">
        <ele>191.9</ele>
        <time>2019-12-04T10:40:53.000Z</time>
      </trkpt>
      <trkpt lat="43.8725" lon="1.69579">
        <ele>191.6</ele>
        <time>2019-12-04T10:41:1.000Z</time>
      </trkpt>
      <trkpt lat="43.87253" lon="1.69565">
        <ele>191.3</ele>
        <time>2019-12-04T10:41:9.000Z</time>
      </trkpt>
      <trkpt lat="43.87255" lon="1.69552">
        <ele>190.5</ele>
        <time>2019-12-04T10:41:17.000Z</time>
      </trkpt>
      <trkpt lat="43.87257" lon="1.69539">
        <ele>189.8</ele>
        <time>2019-12-04T10:41:25.000Z</time>
      </trkpt>
      <trkpt lat="43.87258" lon="1.69526">
        <ele>188.7</ele>
        <time>2019-12-04T10:41:33.000Z</time>
      </trkpt>
      <trkpt lat="43.87262" lon="1.69515">
        <ele>187.9</ele>
        <time>2019-12-04T10:41:40.000Z</time>
      </trkpt>
      <trkpt lat="43.87263" lon="1.69502">
        <ele>187</ele>
        <time>2019-12-04T10:41:48.000Z</time>
      </trkpt>
      <trkpt lat="43.87267" lon="1.6949">
        <ele>186.1</ele>
        <time>2019-12-04T10:41:56.000Z</time>
      </trkpt>
      <trkpt lat="43.87268" lon="1.69477">
        <ele>184.9</ele>
        <time>2019-12-04T10:42:5.000Z</time>
      </trkpt>
      <trkpt lat="43.8727" lon="1.69464">
        <ele>183.5</ele>
        <time>2019-12-04T10:42:13.000Z</time>
      </trkpt>
      <trkpt lat="43.87274" lon="1.69452">
        <ele>182.4</ele>
        <time>2019-12-04T10:42:20.000Z</time>
      </trkpt>
      <trkpt lat="43.87279" lon="1.69441">
        <ele>181.2</ele>
        <time>2019-12-04T10:42:27.000Z</time>
      </trkpt>
      <trkpt lat="43.87282" lon="1.69428">
        <ele>180.1</ele>
        <time>2019-12-04T10:42:34.000Z</time>
      </trkpt>
      <trkpt lat="43.87287" lon="1.69417">
        <ele>178.8</ele>
        <time>2019-12-04T10:42:42.000Z</time>
      </trkpt>
      <trkpt lat="43.87293" lon="1.69406">
        <ele>177.8</ele>
        <time>2019-12-04T10:42:49.000Z</time>
      </trkpt>
      <trkpt lat="43.87299" lon="1.69395">
        <ele>176.5</ele>
        <time>2019-12-04T10:42:57.000Z</time>
      </trkpt>
      <trkpt lat="43.87304" lon="1.69384">
        <ele>175.7</ele>
        <time>2019-12-04T10:43:4.000Z</time>
      </trkpt>
      <trkpt lat="43.8731" lon="1.69374">
        <ele>174.9</ele>
        <time>2019-12-04T10:43:11.000Z</time>
      </trkpt>
      <trkpt lat="43.87317" lon="1.69367">
        <ele>174.3</ele>
        <time>2019-12-04T10:43:20.000Z</time>
      </trkpt>
      <trkpt lat="43.87325" lon="1.69357">
        <ele>173.9</ele>
        <time>2019-12-04T10:43:27.000Z</time>
      </trkpt>
      <trkpt lat="43.87333" lon="1.69349">
        <ele>173.4</ele>
        <time>2019-12-04T10:43:35.000Z</time>
      </trkpt>
      <trkpt lat="43.87341" lon="1.69341">
        <ele>172.9</ele>
        <time>2019-12-04T10:43:43.000Z</time>
      </trkpt>
      <trkpt lat="43.87348" lon="1.69333">
        <ele>172.6</ele>
        <time>2019-12-04T10:43:51.000Z</time>
      </trkpt>
      <trkpt lat="43.8735" lon="1.6932">
        <ele>172.4</ele>
        <time>2019-12-04T10:43:56.000Z</time>
      </trkpt>
      <trkpt lat="43.87352" lon="1.69307">
        <ele>172.1</ele>
        <time>2019-12-04T10:44:3.000Z</time>
      </trkpt>
      <trkpt lat="43.87355" lon="1.69295">
        <ele>171.3</ele>
        <time>2019-12-04T10:44:10.000Z</time>
      </trkpt>
      <trkpt lat="43.87358" lon="1.69281">
        <ele>170.6</ele>
        <time>2019-12-04T10:44:18.000Z</time>
      </trkpt>
      <trkpt lat="43.87362" lon="1.69269">
        <ele>169.8</ele>
        <time>2019-12-04T10:44:26.000Z</time>
      </trkpt>
      <trkpt lat="43.87366" lon="1.69258">
        <ele>169</ele>
        <time>2019-12-04T10:44:35.000Z</time>
      </trkpt>
      <trkpt lat="43.8737" lon="1.69245">
        <ele>168.5</ele>
        <time>2019-12-04T10:44:43.000Z</time>
      </trkpt>
      <trkpt lat="43.87377" lon="1.69235">
        <ele>168.1</ele>
        <time>2019-12-04T10:44:52.000Z</time>
      </trkpt>
      <trkpt lat="43.8738" lon="1.69222">
        <ele>168</ele>
        <time>2019-12-04T10:45:1.000Z</time>
      </trkpt>
      <trkpt lat="43.87385" lon="1.69212">
        <ele>167.9</ele>
        <time>2019-12-04T10:45:9.000Z</time>
      </trkpt>
      <trkpt lat="43.87387" lon="1.69199">
        <ele>167.8</ele>
        <time>2019-12-04T10:45:16.000Z</time>
      </trkpt>
      <trkpt lat="43.87391" lon="1.69186">
        <ele>167.7</ele>
        <time>2019-12-04T10:45:23.000Z</time>
      </trkpt>
      <trkpt lat="43.8739" lon="1.69173">
        <ele>167.7</ele>
        <time>2019-12-04T10:45:31.000Z</time>
      </trkpt>
      <trkpt lat="43.87388" lon="1.69159">
        <ele>167.7</ele>
        <time>2019-12-04T10:45:38.000Z</time>
      </trkpt>
      <trkpt lat="43.87381" lon="1.69151">
        <ele>167.6</ele>
        <time>2019-12-04T10:45:46.000Z</time>
      </trkpt>
      <trkpt lat="43.87373" lon="1.69143">
        <ele>167.6</ele>
        <time>2019-12-04T10:45:54.000Z</time>
      </trkpt>
      <trkpt lat="43.87364" lon="1.69137">
        <ele>167.6</ele>
        <time>2019-12-04T10:46:3.000Z</time>
      </trkpt>
      <trkpt lat="43.87357" lon="1.69128">
        <ele>167.6</ele>
        <time>2019-12-04T10:46:12.000Z</time>
      </trkpt>
      <trkpt lat="43.8735" lon="1.6912">
        <ele>167.6</ele>
        <time>2019-12-04T10:46:21.000Z</time>
      </trkpt>
      <trkpt lat="43.87345" lon="1.69109">
        <ele>167.6</ele>
        <time>2019-12-04T10:46:29.000Z</time>
      </trkpt>
      <trkpt lat="43.87339" lon="1.69098">
        <ele>167.7</ele>
        <time>2019-12-04T10:46:35.000Z</time>
      </trkpt>
      <trkpt lat="43.87343" lon="1.69086">
        <ele>167.9</ele>
        <time>2019-12-04T10:46:42.000Z</time>
      </trkpt>
      <trkpt lat="43.87349" lon="1.69075">
        <ele>168</ele>
        <time>2019-12-04T10:46:49.000Z</time>
      </trkpt>
      <trkpt lat="43.87356" lon="1.69065">
        <ele>168.2</ele>
        <time>2019-12-04T10:46:58.000Z</time>
      </trkpt>
      <trkpt lat="43.87363" lon="1.69056">
        <ele>168.4</ele>
        <time>2019-12-04T10:47:5.000Z</time>
      </trkpt>
      <trkpt lat="43.8737" lon="1.69046">
        <ele>168.6</ele>
        <time>2019-12-04T10:47:12.000Z</time>
      </trkpt>
      <trkpt lat="43.87377" lon="1.69038">
        <ele>168.9</ele>
        <time>2019-12-04T10:47:21.000Z</time>
      </trkpt>
      <trkpt lat="43.87385" lon="1.69032">
        <ele>169.2</ele>
        <time>2019-12-04T10:47:28.000Z</time>
      </trkpt>
      <trkpt lat="43.8739" lon="1.6902">
        <ele>169.5</ele>
        <time>2019-12-04T10:47:35.000Z</time>
      </trkpt>
      <trkpt lat="43.87397" lon="1.69012">
        <ele>169.8</ele>
        <time>2019-12-04T10:47:42.000Z</time>
      </trkpt>
      <trkpt lat="43.87406" lon="1.69004">
        <ele>170.2</ele>
        <time>2019-12-04T10:47:51.000Z</time>
      </trkpt>
      <trkpt lat="43.87414" lon="1.68997">
        <ele>170.4</ele>
        <time>2019-12-04T10:47:59.000Z</time>
      </trkpt>
      <trkpt lat="43.87421" lon="1.68988">
        <ele>170.7</ele>
        <time>2019-12-04T10:48:7.000Z</time>
      </trkpt>
      <trkpt lat="43.87429" lon="1.68984">
        <ele>171.1</ele>
        <time>2019-12-04T10:48:15.000Z</time>
      </trkpt>
      <trkpt lat="43.87437" lon="1.68977">
        <ele>171.3</ele>
        <time>2019-12-04T10:48:22.000Z</time>
      </trkpt>
      <trkpt lat="43.87446" lon="1.6897">
        <ele>171.5</ele>
        <time>2019-12-04T10:48:29.000Z</time>
      </trkpt>
      <trkpt lat="43.87452" lon="1.68961">
        <ele>171.6</ele>
        <time>2019-12-04T10:48:36.000Z</time>
      </trkpt>
      <trkpt lat="43.8746" lon="1.68955">
        <ele>171.6</ele>
        <time>2019-12-04T10:48:44.000Z</time>
      </trkpt>
      <trkpt lat="43.87467" lon="1.68945">
        <ele>171.7</ele>
        <time>2019-12-04T10:48:52.000Z</time>
      </trkpt>
      <trkpt lat="43.87476" lon="1.68938">
        <ele>171.8</ele>
        <time>2019-12-04T10:49:1.000Z</time>
      </trkpt>
      <trkpt lat="43.87483" lon="1.68929">
        <ele>171.9</ele>
        <time>2019-12-04T10:49:9.000Z</time>
      </trkpt>
      <trkpt lat="43.87492" lon="1.68924">
        <ele>171.9</ele>
        <time>2019-12-04T10:49:16.000Z</time>
      </trkpt>
      <trkpt lat="43.87499" lon="1.68915">
        <ele>171.9</ele>
        <time>2019-12-04T10:49:23.000Z</time>
      </trkpt>
      <trkpt lat="43.87508" lon="1.68912">
        <ele>171.9</ele>
        <time>2019-12-04T10:49:30.000Z</time>
      </trkpt>
      <trkpt lat="43.87517" lon="1.68912">
        <ele>171.9</ele>
        <time>2019-12-04T10:49:38.000Z</time>
      </trkpt>
      <trkpt lat="43.87527" lon="1.68916">
        <ele>171.9</ele>
        <time>2019-12-04T10:49:46.000Z</time>
      </trkpt>
      <trkpt lat="43.87534" lon="1.68924">
        <ele>171.9</ele>
        <time>2019-12-04T10:49:57.000Z</time>
      </trkpt>
      <trkpt lat="43.87541" lon="1.68933">
        <ele>171.9</ele>
        <time>2019-12-04T10:50:4.000Z</time>
      </trkpt>
      <trkpt lat="43.87547" lon="1.68943">
        <ele>172.1</ele>
        <time>2019-12-04T10:50:11.000Z</time>
      </trkpt>
      <trkpt lat="43.87557" lon="1.68946">
        <ele>172.2</ele>
        <time>2019-12-04T10:50:19.000Z</time>
      </trkpt>
      <trkpt lat="43.87566" lon="1.6895">
        <ele>172.4</ele>
        <time>2019-12-04T10:50:27.000Z</time>
      </trkpt>
      <trkpt lat="43.87576" lon="1.68948">
        <ele>172.7</ele>
        <time>2019-12-04T10:50:36.000Z</time>
      </trkpt>
      <trkpt lat="43.87585" lon="1.68941">
        <ele>173.3</ele>
        <time>2019-12-04T10:50:46.000Z</time>
      </trkpt>
      <trkpt lat="43.87592" lon="1.68933">
        <ele>173.9</ele>
        <time>2019-12-04T10:50:54.000Z</time>
      </trkpt>
      <trkpt lat="43.87601" lon="1.68929">
        <ele>174.5</ele>
        <time>2019-12-04T10:51:2.000Z</time>
      </trkpt>
      <trkpt lat="43.8761" lon="1.68927">
        <ele>175.2</ele>
        <time>2019-12-04T10:51:10.000Z</time>
      </trkpt>
      <trkpt lat="43.87619" lon="1.68921">
        <ele>175.8</ele>
        <time>2019-12-04T10:51:18.000Z</time>
      </trkpt>
      <trkpt lat="43.87626" lon="1.68913">
        <ele>176.6</ele>
        <time>2019-12-04T10:51:26.000Z</time>
      </trkpt>
      <trkpt lat="43.87636" lon="1.6891">
        <ele>177.2</ele>
        <time>2019-12-04T10:51:34.000Z</time>
      </trkpt>
      <trkpt lat="43.87645" lon="1.68914">
        <ele>177.8</ele>
        <time>2019-12-04T10:51:42.000Z</time>
      </trkpt>
      <trkpt lat="43.87653" lon="1.68921">
        <ele>178.7</ele>
        <time>2019-12-04T10:51:51.000Z</time>
      </trkpt>
      <trkpt lat="43.87661" lon="1.6893">
        <ele>179.5</ele>
        <time>2019-12-04T10:52:0.000Z</time>
      </trkpt>
      <trkpt lat="43.87667" lon="1.6894">
        <ele>180.3</ele>
        <time>2019-12-04T10:52:8.000Z</time>
      </trkpt>
      <trkpt lat="43.87673" lon="1.6895">
        <ele>181.2</ele>
        <time>2019-12-04T10:52:16.000Z</time>
      </trkpt>
      <trkpt lat="43.87681" lon="1.68956">
        <ele>182.4</ele>
        <time>2019-12-04T10:52:26.000Z</time>
      </trkpt>
      <trkpt lat="43.8769" lon="1.6896">
        <ele>183.7</ele>
        <time>2019-12-04T10:52:36.000Z</time>
      </trkpt>
      <trkpt lat="43.87699" lon="1.68966">
        <ele>185.2</ele>
        <time>2019-12-04T10:52:47.000Z</time>
      </trkpt>
      <trkpt lat="43.87707" lon="1.68974">
        <ele>186.9</ele>
        <time>2019-12-04T10:52:59.000Z</time>
      </trkpt>
      <trkpt lat="43.87714" lon="1.68982">
        <ele>188.4</ele>
        <time>2019-12-04T10:53:10.000Z</time>
      </trkpt>
      <trkpt lat="43.87722" lon="1.68989">
        <ele>189.4</ele>
        <time>2019-12-04T10:53:17.000Z</time>
      </trkpt>
      <trkpt lat="43.8773" lon="1.68996">
        <ele>190.6</ele>
        <time>2019-12-04T10:53:26.000Z</time>
      </trkpt>
      <trkpt lat="43.87738" lon="1.69002">
        <ele>192.1</ele>
        <time>2019-12-04T10:53:37.000Z</time>
      </trkpt>
      <trkpt lat="43.87746" lon="1.6901">
        <ele>193.1</ele>
        <time>2019-12-04T10:53:45.000Z</time>
      </trkpt>
      <trkpt lat="43.87748" lon="1.68998">
        <ele>195.3</ele>
        <time>2019-12-04T10:54:15.000Z</time>
      </trkpt>
      <trkpt lat="43.87754" lon="1.68987">
        <ele>195.3</ele>
        <time>2019-12-04T10:54:27.000Z</time>
      </trkpt>
      <trkpt lat="43.87758" lon="1.68976">
        <ele>194.7</ele>
        <time>2019-12-04T10:54:37.000Z</time>
      </trkpt>
      <trkpt lat="43.87761" lon="1.68964">
        <ele>194.3</ele>
        <time>2019-12-04T10:54:46.000Z</time>
      </trkpt>
      <trkpt lat="43.87762" lon="1.6895">
        <ele>193.8</ele>
        <time>2019-12-04T10:54:55.000Z</time>
      </trkpt>
      <trkpt lat="43.87764" lon="1.68937">
        <ele>193.1</ele>
        <time>2019-12-04T10:55:3.000Z</time>
      </trkpt>
      <trkpt lat="43.87767" lon="1.68925">
        <ele>191.8</ele>
        <time>2019-12-04T10:55:22.000Z</time>
      </trkpt>
      <trkpt lat="43.87771" lon="1.68913">
        <ele>191.1</ele>
        <time>2019-12-04T10:55:36.000Z</time>
      </trkpt>
      <trkpt lat="43.87776" lon="1.68901">
        <ele>190.3</ele>
        <time>2019-12-04T10:55:46.000Z</time>
      </trkpt>
      <trkpt lat="43.8778" lon="1.68889">
        <ele>189.4</ele>
        <time>2019-12-04T10:55:57.000Z</time>
      </trkpt>
      <trkpt lat="43.87782" lon="1.68876">
        <ele>188.3</ele>
        <time>2019-12-04T10:56:7.000Z</time>
      </trkpt>
      <trkpt lat="43.87786" lon="1.68864">
        <ele>186.2</ele>
        <time>2019-12-04T10:56:28.000Z</time>
      </trkpt>
      <trkpt lat="43.87782" lon="1.68852">
        <ele>185.3</ele>
        <time>2019-12-04T10:56:38.000Z</time>
      </trkpt>
      <trkpt lat="43.87781" lon="1.68839">
        <ele>184.5</ele>
        <time>2019-12-04T10:56:53.000Z</time>
      </trkpt>
      <trkpt lat="43.87782" lon="1.68826">
        <ele>183.9</ele>
        <time>2019-12-04T10:57:2.000Z</time>
      </trkpt>
      <trkpt lat="43.87783" lon="1.68814">
        <ele>183.1</ele>
        <time>2019-12-04T10:57:12.000Z</time>
      </trkpt>
      <trkpt lat="43.87783" lon="1.688">
        <ele>182.4</ele>
        <time>2019-12-04T10:57:22.000Z</time>
      </trkpt>
      <trkpt lat="43.87784" lon="1.68787">
        <ele>181.9</ele>
        <time>2019-12-04T10:57:30.000Z</time>
      </trkpt>
      <trkpt lat="43.87784" lon="1.68773">
        <ele>181</ele>
        <time>2019-12-04T10:57:39.000Z</time>
      </trkpt>
      <trkpt lat="43.87786" lon="1.68761">
        <ele>180.3</ele>
        <time>2019-12-04T10:57:47.000Z</time>
      </trkpt>
      <trkpt lat="43.87777" lon="1.68754">
        <ele>170.5</ele>
        <time>2019-12-04T11:33:58.000Z</time>
      </trkpt>
      <trkpt lat="43.87786" lon="1.6875">
        <ele>170.1</ele>
        <time>2019-12-04T11:34:20.000Z</time>
      </trkpt>
      <trkpt lat="43.87787" lon="1.68737">
        <ele>169.8</ele>
        <time>2019-12-04T11:34:48.000Z</time>
      </trkpt>
      <trkpt lat="43.87784" lon="1.68724">
        <ele>169.7</ele>
        <time>2019-12-04T11:34:59.000Z</time>
      </trkpt>
      <trkpt lat="43.87782" lon="1.68711">
        <ele>169.4</ele>
        <time>2019-12-04T11:35:9.000Z</time>
      </trkpt>
      <trkpt lat="43.87782" lon="1.68698">
        <ele>169.1</ele>
        <time>2019-12-04T11:35:19.000Z</time>
      </trkpt>
      <trkpt lat="43.87779" lon="1.68685">
        <ele>168.7</ele>
        <time>2019-12-04T11:35:29.000Z</time>
      </trkpt>
      <trkpt lat="43.87779" lon="1.68672">
        <ele>168.5</ele>
        <time>2019-12-04T11:35:38.000Z</time>
      </trkpt>
      <trkpt lat="43.87778" lon="1.6866">
        <ele>168.3</ele>
        <time>2019-12-04T11:35:47.000Z</time>
      </trkpt>
      <trkpt lat="43.87779" lon="1.68646">
        <ele>167.8</ele>
        <time>2019-12-04T11:35:57.000Z</time>
      </trkpt>
      <trkpt lat="43.8778" lon="1.68633">
        <ele>167.4</ele>
        <time>2019-12-04T11:36:6.000Z</time>
      </trkpt>
      <trkpt lat="43.87783" lon="1.6862">
        <ele>167.2</ele>
        <time>2019-12-04T11:36:14.000Z</time>
      </trkpt>
      <trkpt lat="43.87785" lon="1.68607">
        <ele>167.1</ele>
        <time>2019-12-04T11:36:22.000Z</time>
      </trkpt>
      <trkpt lat="43.87786" lon="1.68593">
        <ele>167</ele>
        <time>2019-12-04T11:36:30.000Z</time>
      </trkpt>
      <trkpt lat="43.87786" lon="1.68579">
        <ele>167.1</ele>
        <time>2019-12-04T11:36:38.000Z</time>
      </trkpt>
      <trkpt lat="43.87781" lon="1.68568">
        <ele>167.2</ele>
        <time>2019-12-04T11:36:46.000Z</time>
      </trkpt>
      <trkpt lat="43.87773" lon="1.68561">
        <ele>167.3</ele>
        <time>2019-12-04T11:36:53.000Z</time>
      </trkpt>
      <trkpt lat="43.87764" lon="1.68557">
        <ele>167.6</ele>
        <time>2019-12-04T11:37:2.000Z</time>
      </trkpt>
      <trkpt lat="43.87757" lon="1.68548">
        <ele>168.3</ele>
        <time>2019-12-04T11:37:20.000Z</time>
      </trkpt>
      <trkpt lat="43.87748" lon="1.68543">
        <ele>168.7</ele>
        <time>2019-12-04T11:37:31.000Z</time>
      </trkpt>
      <trkpt lat="43.87738" lon="1.6854">
        <ele>169.3</ele>
        <time>2019-12-04T11:37:41.000Z</time>
      </trkpt>
      <trkpt lat="43.87729" lon="1.68535">
        <ele>170.1</ele>
        <time>2019-12-04T11:37:52.000Z</time>
      </trkpt>
      <trkpt lat="43.8772" lon="1.68531">
        <ele>170.6</ele>
        <time>2019-12-04T11:38:2.000Z</time>
      </trkpt>
      <trkpt lat="43.87711" lon="1.68528">
        <ele>171.4</ele>
        <time>2019-12-04T11:38:13.000Z</time>
      </trkpt>
      <trkpt lat="43.87702" lon="1.68525">
        <ele>172.3</ele>
        <time>2019-12-04T11:38:25.000Z</time>
      </trkpt>
      <trkpt lat="43.87693" lon="1.68526">
        <ele>172.9</ele>
        <time>2019-12-04T11:38:32.000Z</time>
      </trkpt>
      <trkpt lat="43.87684" lon="1.68529">
        <ele>173.4</ele>
        <time>2019-12-04T11:38:40.000Z</time>
      </trkpt>
      <trkpt lat="43.87675" lon="1.68534">
        <ele>174.1</ele>
        <time>2019-12-04T11:38:50.000Z</time>
      </trkpt>
      <trkpt lat="43.87668" lon="1.68544">
        <ele>174.9</ele>
        <time>2019-12-04T11:39:0.000Z</time>
      </trkpt>
      <trkpt lat="43.87661" lon="1.68553">
        <ele>175.6</ele>
        <time>2019-12-04T11:39:9.000Z</time>
      </trkpt>
      <trkpt lat="43.87653" lon="1.68559">
        <ele>176.2</ele>
        <time>2019-12-04T11:39:19.000Z</time>
      </trkpt>
      <trkpt lat="43.87644" lon="1.68565">
        <ele>176.7</ele>
        <time>2019-12-04T11:39:27.000Z</time>
      </trkpt>
      <trkpt lat="43.87636" lon="1.6857">
        <ele>177.4</ele>
        <time>2019-12-04T11:39:37.000Z</time>
      </trkpt>
      <trkpt lat="43.8763" lon="1.68579">
        <ele>178</ele>
        <time>2019-12-04T11:39:47.000Z</time>
      </trkpt>
      <trkpt lat="43.87622" lon="1.68588">
        <ele>178.7</ele>
        <time>2019-12-04T11:39:57.000Z</time>
      </trkpt>
      <trkpt lat="43.87617" lon="1.686">
        <ele>179.4</ele>
        <time>2019-12-04T11:40:4.000Z</time>
      </trkpt>
      <trkpt lat="43.87612" lon="1.68612">
        <ele>179.8</ele>
        <time>2019-12-04T11:40:11.000Z</time>
      </trkpt>
      <trkpt lat="43.87608" lon="1.68623">
        <ele>180.2</ele>
        <time>2019-12-04T11:40:20.000Z</time>
      </trkpt>
      <trkpt lat="43.87602" lon="1.68634">
        <ele>180.6</ele>
        <time>2019-12-04T11:40:30.000Z</time>
      </trkpt>
      <trkpt lat="43.87597" lon="1.68646">
        <ele>180.7</ele>
        <time>2019-12-04T11:40:42.000Z</time>
      </trkpt>
      <trkpt lat="43.87592" lon="1.68659">
        <ele>180.6</ele>
        <time>2019-12-04T11:40:50.000Z</time>
      </trkpt>
      <trkpt lat="43.87587" lon="1.6867">
        <ele>180.6</ele>
        <time>2019-12-04T11:40:58.000Z</time>
      </trkpt>
      <trkpt lat="43.87581" lon="1.68682">
        <ele>180.2</ele>
        <time>2019-12-04T11:41:7.000Z</time>
      </trkpt>
      <trkpt lat="43.87575" lon="1.68692">
        <ele>179.7</ele>
        <time>2019-12-04T11:41:15.000Z</time>
      </trkpt>
      <trkpt lat="43.8757" lon="1.68702">
        <ele>179.3</ele>
        <time>2019-12-04T11:41:22.000Z</time>
      </trkpt>
      <trkpt lat="43.87562" lon="1.6871">
        <ele>178.8</ele>
        <time>2019-12-04T11:41:32.000Z</time>
      </trkpt>
      <trkpt lat="43.87555" lon="1.68719">
        <ele>178.3</ele>
        <time>2019-12-04T11:41:40.000Z</time>
      </trkpt>
      <trkpt lat="43.87546" lon="1.68724">
        <ele>177.6</ele>
        <time>2019-12-04T11:41:47.000Z</time>
      </trkpt>
      <trkpt lat="43.87538" lon="1.68731">
        <ele>176.9</ele>
        <time>2019-12-04T11:41:56.000Z</time>
      </trkpt>
      <trkpt lat="43.87528" lon="1.68737">
        <ele>176.4</ele>
        <time>2019-12-04T11:42:4.000Z</time>
      </trkpt>
      <trkpt lat="43.8752" lon="1.68743">
        <ele>175.9</ele>
        <time>2019-12-04T11:42:11.000Z</time>
      </trkpt>
      <trkpt lat="43.87512" lon="1.68749">
        <ele>175.3</ele>
        <time>2019-12-04T11:42:19.000Z</time>
      </trkpt>
      <trkpt lat="43.87505" lon="1.68757">
        <ele>174.7</ele>
        <time>2019-12-04T11:42:27.000Z</time>
      </trkpt>
      <trkpt lat="43.87499" lon="1.68768">
        <ele>174.1</ele>
        <time>2019-12-04T11:42:35.000Z</time>
      </trkpt>
      <trkpt lat="43.87495" lon="1.68781">
        <ele>173.2</ele>
        <time>2019-12-04T11:42:43.000Z</time>
      </trkpt>
      <trkpt lat="43.87492" lon="1.68793">
        <ele>172.3</ele>
        <time>2019-12-04T11:42:52.000Z</time>
      </trkpt>
      <trkpt lat="43.8749" lon="1.68806">
        <ele>171.3</ele>
        <time>2019-12-04T11:43:1.000Z</time>
      </trkpt>
      <trkpt lat="43.87488" lon="1.68819">
        <ele>170.5</ele>
        <time>2019-12-04T11:43:10.000Z</time>
      </trkpt>
      <trkpt lat="43.87488" lon="1.68832">
        <ele>169.6</ele>
        <time>2019-12-04T11:43:19.000Z</time>
      </trkpt>
      <trkpt lat="43.8749" lon="1.68845">
        <ele>168.2</ele>
        <time>2019-12-04T11:43:29.000Z</time>
      </trkpt>
      <trkpt lat="43.87492" lon="1.68858">
        <ele>167.1</ele>
        <time>2019-12-04T11:43:37.000Z</time>
      </trkpt>
      <trkpt lat="43.87495" lon="1.68871">
        <ele>166.1</ele>
        <time>2019-12-04T11:43:44.000Z</time>
      </trkpt>
      <trkpt lat="43.87498" lon="1.68884">
        <ele>165.2</ele>
        <time>2019-12-04T11:43:52.000Z</time>
      </trkpt>
      <trkpt lat="43.87499" lon="1.68898">
        <ele>163.6</ele>
        <time>2019-12-04T11:44:3.000Z</time>
      </trkpt>
      <trkpt lat="43.87497" lon="1.6891">
        <ele>162.4</ele>
        <time>2019-12-04T11:44:11.000Z</time>
      </trkpt>
      <trkpt lat="43.87494" lon="1.68923">
        <ele>161.1</ele>
        <time>2019-12-04T11:44:19.000Z</time>
      </trkpt>
      <trkpt lat="43.87485" lon="1.68931">
        <ele>160.2</ele>
        <time>2019-12-04T11:44:27.000Z</time>
      </trkpt>
      <trkpt lat="43.87478" lon="1.68939">
        <ele>159.6</ele>
        <time>2019-12-04T11:44:34.000Z</time>
      </trkpt>
      <trkpt lat="43.8747" lon="1.68947">
        <ele>159.2</ele>
        <time>2019-12-04T11:44:42.000Z</time>
      </trkpt>
      <trkpt lat="43.87463" lon="1.68955">
        <ele>158.9</ele>
        <time>2019-12-04T11:44:50.000Z</time>
      </trkpt>
      <trkpt lat="43.87455" lon="1.68964">
        <ele>158.7</ele>
        <time>2019-12-04T11:44:57.000Z</time>
      </trkpt>
      <trkpt lat="43.87448" lon="1.68974">
        <ele>158.6</ele>
        <time>2019-12-04T11:45:4.000Z</time>
      </trkpt>
      <trkpt lat="43.87439" lon="1.6898">
        <ele>158.5</ele>
        <time>2019-12-04T11:45:11.000Z</time>
      </trkpt>
      <trkpt lat="43.8743" lon="1.68988">
        <ele>158.6</ele>
        <time>2019-12-04T11:45:17.000Z</time>
      </trkpt>
      <trkpt lat="43.87423" lon="1.68996">
        <ele>158.7</ele>
        <time>2019-12-04T11:45:23.000Z</time>
      </trkpt>
      <trkpt lat="43.87415" lon="1.69002">
        <ele>158.8</ele>
        <time>2019-12-04T11:45:31.000Z</time>
      </trkpt>
      <trkpt lat="43.87407" lon="1.6901">
        <ele>158.7</ele>
        <time>2019-12-04T11:45:38.000Z</time>
      </trkpt>
      <trkpt lat="43.874" lon="1.69017">
        <ele>158.6</ele>
        <time>2019-12-04T11:45:47.000Z</time>
      </trkpt>
      <trkpt lat="43.87392" lon="1.69025">
        <ele>158.4</ele>
        <time>2019-12-04T11:45:58.000Z</time>
      </trkpt>
      <trkpt lat="43.87384" lon="1.69035">
        <ele>158.3</ele>
        <time>2019-12-04T11:46:4.000Z</time>
      </trkpt>
      <trkpt lat="43.87377" lon="1.69045">
        <ele>158.1</ele>
        <time>2019-12-04T11:46:13.000Z</time>
      </trkpt>
      <trkpt lat="43.87369" lon="1.69053">
        <ele>157.9</ele>
        <time>2019-12-04T11:46:23.000Z</time>
      </trkpt>
      <trkpt lat="43.87362" lon="1.69063">
        <ele>157.7</ele>
        <time>2019-12-04T11:46:31.000Z</time>
      </trkpt>
      <trkpt lat="43.87355" lon="1.69072">
        <ele>157.5</ele>
        <time>2019-12-04T11:46:39.000Z</time>
      </trkpt>
      <trkpt lat="43.87348" lon="1.6908">
        <ele>157.3</ele>
        <time>2019-12-04T11:46:47.000Z</time>
      </trkpt>
      <trkpt lat="43.87341" lon="1.69089">
        <ele>157.2</ele>
        <time>2019-12-04T11:46:54.000Z</time>
      </trkpt>
      <trkpt lat="43.87336" lon="1.69099">
        <ele>156.8</ele>
        <time>2019-12-04T11:47:2.000Z</time>
      </trkpt>
      <trkpt lat="43.87339" lon="1.69112">
        <ele>156.5</ele>
        <time>2019-12-04T11:47:10.000Z</time>
      </trkpt>
      <trkpt lat="43.87347" lon="1.69121">
        <ele>156.2</ele>
        <time>2019-12-04T11:47:17.000Z</time>
      </trkpt>
      <trkpt lat="43.87355" lon="1.69129">
        <ele>155.9</ele>
        <time>2019-12-04T11:47:24.000Z</time>
      </trkpt>
      <trkpt lat="43.87363" lon="1.69136">
        <ele>155.7</ele>
        <time>2019-12-04T11:47:31.000Z</time>
      </trkpt>
      <trkpt lat="43.8737" lon="1.69144">
        <ele>155.3</ele>
        <time>2019-12-04T11:47:38.000Z</time>
      </trkpt>
      <trkpt lat="43.87378" lon="1.6915">
        <ele>155.1</ele>
        <time>2019-12-04T11:47:45.000Z</time>
      </trkpt>
      <trkpt lat="43.87386" lon="1.69157">
        <ele>154.9</ele>
        <time>2019-12-04T11:47:52.000Z</time>
      </trkpt>
      <trkpt lat="43.87392" lon="1.69167">
        <ele>154.3</ele>
        <time>2019-12-04T11:47:59.000Z</time>
      </trkpt>
      <trkpt lat="43.87395" lon="1.69179">
        <ele>154</ele>
        <time>2019-12-04T11:48:6.000Z</time>
      </trkpt>
      <trkpt lat="43.87393" lon="1.69192">
        <ele>153.8</ele>
        <time>2019-12-04T11:48:14.000Z</time>
      </trkpt>
      <trkpt lat="43.87391" lon="1.69204">
        <ele>153.6</ele>
        <time>2019-12-04T11:48:23.000Z</time>
      </trkpt>
      <trkpt lat="43.87384" lon="1.69211">
        <ele>153.4</ele>
        <time>2019-12-04T11:48:44.000Z</time>
      </trkpt>
      <trkpt lat="43.87379" lon="1.69222">
        <ele>153.4</ele>
        <time>2019-12-04T11:48:54.000Z</time>
      </trkpt>
      <trkpt lat="43.87372" lon="1.6923">
        <ele>153.3</ele>
        <time>2019-12-04T11:49:4.000Z</time>
      </trkpt>
      <trkpt lat="43.87365" lon="1.6924">
        <ele>153.3</ele>
        <time>2019-12-04T11:49:14.000Z</time>
      </trkpt>
      <trkpt lat="43.87356" lon="1.6924">
        <ele>153.2</ele>
        <time>2019-12-04T11:49:23.000Z</time>
      </trkpt>
      <trkpt lat="43.87347" lon="1.69239">
        <ele>153.2</ele>
        <time>2019-12-04T11:49:31.000Z</time>
      </trkpt>
      <trkpt lat="43.87338" lon="1.69245">
        <ele>153.1</ele>
        <time>2019-12-04T11:49:40.000Z</time>
      </trkpt>
      <trkpt lat="43.8733" lon="1.69251">
        <ele>153.1</ele>
        <time>2019-12-04T11:49:49.000Z</time>
      </trkpt>
      <trkpt lat="43.8732" lon="1.69253">
        <ele>153.1</ele>
        <time>2019-12-04T11:49:59.000Z</time>
      </trkpt>
      <trkpt lat="43.8731" lon="1.69255">
        <ele>153.1</ele>
        <time>2019-12-04T11:50:12.000Z</time>
      </trkpt>
      <trkpt lat="43.87301" lon="1.69255">
        <ele>153.1</ele>
        <time>2019-12-04T11:50:20.000Z</time>
      </trkpt>
      <trkpt lat="43.87291" lon="1.69259">
        <ele>153</ele>
        <time>2019-12-04T11:50:30.000Z</time>
      </trkpt>
      <trkpt lat="43.87283" lon="1.69265">
        <ele>153</ele>
        <time>2019-12-04T11:50:39.000Z</time>
      </trkpt>
      <trkpt lat="43.87273" lon="1.69269">
        <ele>152.9</ele>
        <time>2019-12-04T11:50:48.000Z</time>
      </trkpt>
      <trkpt lat="43.87264" lon="1.69275">
        <ele>152.9</ele>
        <time>2019-12-04T11:50:57.000Z</time>
      </trkpt>
      <trkpt lat="43.87255" lon="1.69278">
        <ele>152.8</ele>
        <time>2019-12-04T11:51:5.000Z</time>
      </trkpt>
      <trkpt lat="43.87245" lon="1.69278">
        <ele>152.8</ele>
        <time>2019-12-04T11:51:12.000Z</time>
      </trkpt>
      <trkpt lat="43.87236" lon="1.69279">
        <ele>152.6</ele>
        <time>2019-12-04T11:51:20.000Z</time>
      </trkpt>
      <trkpt lat="43.87227" lon="1.69283">
        <ele>152.2</ele>
        <time>2019-12-04T11:51:31.000Z</time>
      </trkpt>
      <trkpt lat="43.87217" lon="1.69285">
        <ele>152</ele>
        <time>2019-12-04T11:51:40.000Z</time>
      </trkpt>
      <trkpt lat="43.87208" lon="1.69287">
        <ele>151.9</ele>
        <time>2019-12-04T11:51:49.000Z</time>
      </trkpt>
      <trkpt lat="43.87198" lon="1.69289">
        <ele>151.8</ele>
        <time>2019-12-04T11:51:57.000Z</time>
      </trkpt>
      <trkpt lat="43.87188" lon="1.6929">
        <ele>151.8</ele>
        <time>2019-12-04T11:52:6.000Z</time>
      </trkpt>
      <trkpt lat="43.87179" lon="1.6929">
        <ele>151.7</ele>
        <time>2019-12-04T11:52:15.000Z</time>
      </trkpt>
      <trkpt lat="43.8717" lon="1.69291">
        <ele>151.6</ele>
        <time>2019-12-04T11:52:25.000Z</time>
      </trkpt>
      <trkpt lat="43.87161" lon="1.69295">
        <ele>151.5</ele>
        <time>2019-12-04T11:52:36.000Z</time>
      </trkpt>
      <trkpt lat="43.87152" lon="1.69296">
        <ele>151.5</ele>
        <time>2019-12-04T11:52:45.000Z</time>
      </trkpt>
      <trkpt lat="43.87142" lon="1.69297">
        <ele>151.4</ele>
        <time>2019-12-04T11:52:55.000Z</time>
      </trkpt>
      <trkpt lat="43.87133" lon="1.69301">
        <ele>151.4</ele>
        <time>2019-12-04T11:53:4.000Z</time>
      </trkpt>
      <trkpt lat="43.87124" lon="1.69306">
        <ele>151.2</ele>
        <time>2019-12-04T11:53:14.000Z</time>
      </trkpt>
      <trkpt lat="43.87115" lon="1.69305">
        <ele>150.9</ele>
        <time>2019-12-04T11:53:23.000Z</time>
      </trkpt>
      <trkpt lat="43.87106" lon="1.69302">
        <ele>150.8</ele>
        <time>2019-12-04T11:53:31.000Z</time>
      </trkpt>
      <trkpt lat="43.87097" lon="1.69299">
        <ele>150.7</ele>
        <time>2019-12-04T11:53:40.000Z</time>
      </trkpt>
      <trkpt lat="43.87088" lon="1.69295">
        <ele>150.7</ele>
        <time>2019-12-04T11:53:48.000Z</time>
      </trkpt>
      <trkpt lat="43.8708" lon="1.69288">
        <ele>150.6</ele>
        <time>2019-12-04T11:53:58.000Z</time>
      </trkpt>
      <trkpt lat="43.87071" lon="1.69282">
        <ele>150.6</ele>
        <time>2019-12-04T11:54:6.000Z</time>
      </trkpt>
      <trkpt lat="43.87063" lon="1.69276">
        <ele>150.7</ele>
        <time>2019-12-04T11:54:14.000Z</time>
      </trkpt>
      <trkpt lat="43.87055" lon="1.69269">
        <ele>150.6</ele>
        <time>2019-12-04T11:54:23.000Z</time>
      </trkpt>
      <trkpt lat="43.87047" lon="1.69262">
        <ele>150.6</ele>
        <time>2019-12-04T11:54:34.000Z</time>
      </trkpt>
      <trkpt lat="43.87038" lon="1.69257">
        <ele>150.5</ele>
        <time>2019-12-04T11:54:44.000Z</time>
      </trkpt>
      <trkpt lat="43.87029" lon="1.69252">
        <ele>150.5</ele>
        <time>2019-12-04T11:54:52.000Z</time>
      </trkpt>
      <trkpt lat="43.87021" lon="1.69247">
        <ele>150.5</ele>
        <time>2019-12-04T11:55:0.000Z</time>
      </trkpt>
      <trkpt lat="43.87013" lon="1.69241">
        <ele>150.5</ele>
        <time>2019-12-04T11:55:8.000Z</time>
      </trkpt>
      <trkpt lat="43.87004" lon="1.69235">
        <ele>150.5</ele>
        <time>2019-12-04T11:55:17.000Z</time>
      </trkpt>
      <trkpt lat="43.86995" lon="1.69229">
        <ele>150.4</ele>
        <time>2019-12-04T11:55:26.000Z</time>
      </trkpt>
      <trkpt lat="43.86987" lon="1.69222">
        <ele>150.3</ele>
        <time>2019-12-04T11:55:35.000Z</time>
      </trkpt>
      <trkpt lat="43.86978" lon="1.69216">
        <ele>150.2</ele>
        <time>2019-12-04T11:55:44.000Z</time>
      </trkpt>
      <trkpt lat="43.8697" lon="1.6921">
        <ele>150</ele>
        <time>2019-12-04T11:55:54.000Z</time>
      </trkpt>
      <trkpt lat="43.86961" lon="1.69204">
        <ele>149.9</ele>
        <time>2019-12-04T11:56:3.000Z</time>
      </trkpt>
      <trkpt lat="43.86952" lon="1.69199">
        <ele>149.9</ele>
        <time>2019-12-04T11:56:11.000Z</time>
      </trkpt>
      <trkpt lat="43.86944" lon="1.69193">
        <ele>149.9</ele>
        <time>2019-12-04T11:56:20.000Z</time>
      </trkpt>
      <trkpt lat="43.86936" lon="1.69185">
        <ele>149.8</ele>
        <time>2019-12-04T11:56:32.000Z</time>
      </trkpt>
      <trkpt lat="43.86927" lon="1.6918">
        <ele>149.7</ele>
        <time>2019-12-04T11:56:40.000Z</time>
      </trkpt>
      <trkpt lat="43.86918" lon="1.69174">
        <ele>149.7</ele>
        <time>2019-12-04T11:56:49.000Z</time>
      </trkpt>
      <trkpt lat="43.8691" lon="1.69167">
        <ele>149.5</ele>
        <time>2019-12-04T11:57:0.000Z</time>
      </trkpt>
      <trkpt lat="43.86908" lon="1.69179">
        <ele>149.4</ele>
        <time>2019-12-04T11:57:16.000Z</time>
      </trkpt>
      <trkpt lat="43.86906" lon="1.69192">
        <ele>149.4</ele>
        <time>2019-12-04T11:57:26.000Z</time>
      </trkpt>
      <trkpt lat="43.86904" lon="1.69204">
        <ele>149.4</ele>
        <time>2019-12-04T11:57:36.000Z</time>
      </trkpt>
      <trkpt lat="43.86903" lon="1.69217">
        <ele>149.6</ele>
        <time>2019-12-04T11:57:44.000Z</time>
      </trkpt>
      <trkpt lat="43.86902" lon="1.6923">
        <ele>149.9</ele>
        <time>2019-12-04T11:57:53.000Z</time>
      </trkpt>
      <trkpt lat="43.86901" lon="1.69243">
        <ele>150.4</ele>
        <time>2019-12-04T11:58:2.000Z</time>
      </trkpt>
      <trkpt lat="43.86896" lon="1.69253">
        <ele>151.1</ele>
        <time>2019-12-04T11:58:12.000Z</time>
      </trkpt>
      <trkpt lat="43.86889" lon="1.69264">
        <ele>152</ele>
        <time>2019-12-04T11:58:24.000Z</time>
      </trkpt>
      <trkpt lat="43.86884" lon="1.69276">
        <ele>153.2</ele>
        <time>2019-12-04T11:58:34.000Z</time>
      </trkpt>
      <trkpt lat="43.8688" lon="1.69288">
        <ele>154.9</ele>
        <time>2019-12-04T11:58:44.000Z</time>
      </trkpt>
      <trkpt lat="43.86878" lon="1.69301">
        <ele>156.5</ele>
        <time>2019-12-04T11:58:54.000Z</time>
      </trkpt>
      <trkpt lat="43.86874" lon="1.69314">
        <ele>158.1</ele>
        <time>2019-12-04T11:59:3.000Z</time>
      </trkpt>
      <trkpt lat="43.86871" lon="1.69328">
        <ele>159.4</ele>
        <time>2019-12-04T11:59:12.000Z</time>
      </trkpt>
      <trkpt lat="43.86868" lon="1.6934">
        <ele>160.6</ele>
        <time>2019-12-04T11:59:20.000Z</time>
      </trkpt>
      <trkpt lat="43.86865" lon="1.69353">
        <ele>162</ele>
        <time>2019-12-04T11:59:29.000Z</time>
      </trkpt>
      <trkpt lat="43.86861" lon="1.69365">
        <ele>163.1</ele>
        <time>2019-12-04T11:59:37.000Z</time>
      </trkpt>
      <trkpt lat="43.86857" lon="1.69378">
        <ele>164.1</ele>
        <time>2019-12-04T11:59:45.000Z</time>
      </trkpt>
      <trkpt lat="43.86855" lon="1.6939">
        <ele>164.9</ele>
        <time>2019-12-04T11:59:52.000Z</time>
      </trkpt>
      <trkpt lat="43.86853" lon="1.69403">
        <ele>165.9</ele>
        <time>2019-12-04T12:00:0.000Z</time>
      </trkpt>
      <trkpt lat="43.8685" lon="1.69416">
        <ele>167.2</ele>
        <time>2019-12-04T12:00:9.000Z</time>
      </trkpt>
      <trkpt lat="43.86849" lon="1.69428">
        <ele>168.5</ele>
        <time>2019-12-04T12:00:18.000Z</time>
      </trkpt>
      <trkpt lat="43.86845" lon="1.69441">
        <ele>169.4</ele>
        <time>2019-12-04T12:00:27.000Z</time>
      </trkpt>
      <trkpt lat="43.86842" lon="1.69454">
        <ele>170</ele>
        <time>2019-12-04T12:00:36.000Z</time>
      </trkpt>
      <trkpt lat="43.8684" lon="1.69467">
        <ele>170.5</ele>
        <time>2019-12-04T12:00:44.000Z</time>
      </trkpt>
      <trkpt lat="43.86836" lon="1.69479">
        <ele>170.9</ele>
        <time>2019-12-04T12:00:53.000Z</time>
      </trkpt>
      <trkpt lat="43.86833" lon="1.69492">
        <ele>171.2</ele>
        <time>2019-12-04T12:01:2.000Z</time>
      </trkpt>
      <trkpt lat="43.86831" lon="1.69505">
        <ele>171.5</ele>
        <time>2019-12-04T12:01:10.000Z</time>
      </trkpt>
      <trkpt lat="43.86829" lon="1.69517">
        <ele>171.7</ele>
        <time>2019-12-04T12:01:17.000Z</time>
      </trkpt>
      <trkpt lat="43.86827" lon="1.6953">
        <ele>171.9</ele>
        <time>2019-12-04T12:01:24.000Z</time>
      </trkpt>
      <trkpt lat="43.86826" lon="1.69543">
        <ele>172</ele>
        <time>2019-12-04T12:01:32.000Z</time>
      </trkpt>
      <trkpt lat="43.86825" lon="1.69555">
        <ele>172.2</ele>
        <time>2019-12-04T12:01:40.000Z</time>
      </trkpt>
      <trkpt lat="43.86822" lon="1.69569">
        <ele>172.5</ele>
        <time>2019-12-04T12:01:50.000Z</time>
      </trkpt>
      <trkpt lat="43.8682" lon="1.69582">
        <ele>172.7</ele>
        <time>2019-12-04T12:01:58.000Z</time>
      </trkpt>
      <trkpt lat="43.86817" lon="1.69594">
        <ele>172.8</ele>
        <time>2019-12-04T12:02:6.000Z</time>
      </trkpt>
      <trkpt lat="43.86814" lon="1.69606">
        <ele>173</ele>
        <time>2019-12-04T12:02:13.000Z</time>
      </trkpt>
      <trkpt lat="43.86811" lon="1.69619">
        <ele>173.2</ele>
        <time>2019-12-04T12:02:22.000Z</time>
      </trkpt>
      <trkpt lat="43.86808" lon="1.69632">
        <ele>173.3</ele>
        <time>2019-12-04T12:02:32.000Z</time>
      </trkpt>
      <trkpt lat="43.86804" lon="1.69643">
        <ele>173.5</ele>
        <time>2019-12-04T12:02:41.000Z</time>
      </trkpt>
      <trkpt lat="43.868" lon="1.69655">
        <ele>174</ele>
        <time>2019-12-04T12:02:50.000Z</time>
      </trkpt>
      <trkpt lat="43.86793" lon="1.69666">
        <ele>174.3</ele>
        <time>2019-12-04T12:02:58.000Z</time>
      </trkpt>
      <trkpt lat="43.86788" lon="1.69678">
        <ele>174.6</ele>
        <time>2019-12-04T12:03:6.000Z</time>
      </trkpt>
      <trkpt lat="43.86782" lon="1.69688">
        <ele>175.1</ele>
        <time>2019-12-04T12:03:14.000Z</time>
      </trkpt>
      <trkpt lat="43.86776" lon="1.69699">
        <ele>175.5</ele>
        <time>2019-12-04T12:03:22.000Z</time>
      </trkpt>
      <trkpt lat="43.86771" lon="1.69711">
        <ele>175.8</ele>
        <time>2019-12-04T12:03:31.000Z</time>
      </trkpt>
      <trkpt lat="43.86766" lon="1.69722">
        <ele>176.2</ele>
        <time>2019-12-04T12:03:39.000Z</time>
      </trkpt>
      <trkpt lat="43.86761" lon="1.69734">
        <ele>176.7</ele>
        <time>2019-12-04T12:03:46.000Z</time>
      </trkpt>
      <trkpt lat="43.86754" lon="1.69743">
        <ele>177.3</ele>
        <time>2019-12-04T12:03:53.000Z</time>
      </trkpt>
      <trkpt lat="43.86749" lon="1.69754">
        <ele>177.9</ele>
        <time>2019-12-04T12:04:1.000Z</time>
      </trkpt>
      <trkpt lat="43.86743" lon="1.69766">
        <ele>178.4</ele>
        <time>2019-12-04T12:04:9.000Z</time>
      </trkpt>
      <trkpt lat="43.86737" lon="1.69777">
        <ele>178.8</ele>
        <time>2019-12-04T12:04:16.000Z</time>
      </trkpt>
      <trkpt lat="43.86731" lon="1.69787">
        <ele>179.2</ele>
        <time>2019-12-04T12:04:23.000Z</time>
      </trkpt>
      <trkpt lat="43.86723" lon="1.69796">
        <ele>179.7</ele>
        <time>2019-12-04T12:04:32.000Z</time>
      </trkpt>
      <trkpt lat="43.8672" lon="1.69808">
        <ele>180.5</ele>
        <time>2019-12-04T12:04:42.000Z</time>
      </trkpt>
      <trkpt lat="43.86718" lon="1.69821">
        <ele>181</ele>
        <time>2019-12-04T12:04:49.000Z</time>
      </trkpt>
      <trkpt lat="43.86713" lon="1.69833">
        <ele>181.7</ele>
        <time>2019-12-04T12:04:57.000Z</time>
      </trkpt>
      <trkpt lat="43.86709" lon="1.69844">
        <ele>182.2</ele>
        <time>2019-12-04T12:05:6.000Z</time>
      </trkpt>
      <trkpt lat="43.86705" lon="1.69856">
        <ele>183</ele>
        <time>2019-12-04T12:05:15.000Z</time>
      </trkpt>
      <trkpt lat="43.86701" lon="1.69869">
        <ele>183.7</ele>
        <time>2019-12-04T12:05:24.000Z</time>
      </trkpt>
      <trkpt lat="43.86694" lon="1.69878">
        <ele>184.7</ele>
        <time>2019-12-04T12:05:32.000Z</time>
      </trkpt>
      <trkpt lat="43.86687" lon="1.69886">
        <ele>185.6</ele>
        <time>2019-12-04T12:05:40.000Z</time>
      </trkpt>
      <trkpt lat="43.8668" lon="1.69895">
        <ele>186.9</ele>
        <time>2019-12-04T12:05:48.000Z</time>
      </trkpt>
      <trkpt lat="43.86674" lon="1.69905">
        <ele>188.4</ele>
        <time>2019-12-04T12:05:57.000Z</time>
      </trkpt>
      <trkpt lat="43.86668" lon="1.69915">
        <ele>189.8</ele>
        <time>2019-12-04T12:06:5.000Z</time>
      </trkpt>
      <trkpt lat="43.86662" lon="1.69926">
        <ele>191</ele>
        <time>2019-12-04T12:06:13.000Z</time>
      </trkpt>
      <trkpt lat="43.86657" lon="1.69937">
        <ele>192.1</ele>
        <time>2019-12-04T12:06:21.000Z</time>
      </trkpt>
      <trkpt lat="43.86651" lon="1.69946">
        <ele>193.2</ele>
        <time>2019-12-04T12:06:29.000Z</time>
      </trkpt>
      <trkpt lat="43.86645" lon="1.69956">
        <ele>193.9</ele>
        <time>2019-12-04T12:06:37.000Z</time>
      </trkpt>
      <trkpt lat="43.86637" lon="1.69963">
        <ele>194.7</ele>
        <time>2019-12-04T12:06:46.000Z</time>
      </trkpt>
      <trkpt lat="43.86629" lon="1.69958">
        <ele>197.6</ele>
        <time>2019-12-04T12:16:50.000Z</time>
      </trkpt>
      <trkpt lat="43.86622" lon="1.69949">
        <ele>197.9</ele>
        <time>2019-12-04T12:17:3.000Z</time>
      </trkpt>
      <trkpt lat="43.86616" lon="1.6994">
        <ele>198.6</ele>
        <time>2019-12-04T12:17:16.000Z</time>
      </trkpt>
      <trkpt lat="43.86609" lon="1.69931">
        <ele>199.9</ele>
        <time>2019-12-04T12:17:28.000Z</time>
      </trkpt>
      <trkpt lat="43.86602" lon="1.69923">
        <ele>201.2</ele>
        <time>2019-12-04T12:17:40.000Z</time>
      </trkpt>
      <trkpt lat="43.86592" lon="1.69919">
        <ele>202.3</ele>
        <time>2019-12-04T12:17:49.000Z</time>
      </trkpt>
      <trkpt lat="43.86585" lon="1.6991">
        <ele>203.1</ele>
        <time>2019-12-04T12:17:57.000Z</time>
      </trkpt>
      <trkpt lat="43.86578" lon="1.69901">
        <ele>204.1</ele>
        <time>2019-12-04T12:18:5.000Z</time>
      </trkpt>
      <trkpt lat="43.86569" lon="1.69896">
        <ele>204.8</ele>
        <time>2019-12-04T12:18:14.000Z</time>
      </trkpt>
      <trkpt lat="43.86561" lon="1.6989">
        <ele>205.3</ele>
        <time>2019-12-04T12:18:23.000Z</time>
      </trkpt>
      <trkpt lat="43.86552" lon="1.69886">
        <ele>205.7</ele>
        <time>2019-12-04T12:18:33.000Z</time>
      </trkpt>
      <trkpt lat="43.86544" lon="1.69879">
        <ele>205.9</ele>
        <time>2019-12-04T12:18:42.000Z</time>
      </trkpt>
      <trkpt lat="43.86536" lon="1.69873">
        <ele>205.6</ele>
        <time>2019-12-04T12:18:49.000Z</time>
      </trkpt>
      <trkpt lat="43.86527" lon="1.69867">
        <ele>205.4</ele>
        <time>2019-12-04T12:18:54.000Z</time>
      </trkpt>
      <trkpt lat="43.86517" lon="1.6986">
        <ele>204.8</ele>
        <time>2019-12-04T12:19:1.000Z</time>
      </trkpt>
      <trkpt lat="43.86509" lon="1.69853">
        <ele>204.2</ele>
        <time>2019-12-04T12:19:8.000Z</time>
      </trkpt>
      <trkpt lat="43.86501" lon="1.69846">
        <ele>203.3</ele>
        <time>2019-12-04T12:19:16.000Z</time>
      </trkpt>
      <trkpt lat="43.86492" lon="1.6984">
        <ele>202.4</ele>
        <time>2019-12-04T12:19:25.000Z</time>
      </trkpt>
      <trkpt lat="43.86484" lon="1.69833">
        <ele>201.4</ele>
        <time>2019-12-04T12:19:34.000Z</time>
      </trkpt>
      <trkpt lat="43.86475" lon="1.69826">
        <ele>200.7</ele>
        <time>2019-12-04T12:19:42.000Z</time>
      </trkpt>
      <trkpt lat="43.86468" lon="1.69819">
        <ele>200.1</ele>
        <time>2019-12-04T12:19:49.000Z</time>
      </trkpt>
      <trkpt lat="43.86459" lon="1.69814">
        <ele>199.5</ele>
        <time>2019-12-04T12:19:57.000Z</time>
      </trkpt>
      <trkpt lat="43.86451" lon="1.69805">
        <ele>199</ele>
        <time>2019-12-04T12:20:5.000Z</time>
      </trkpt>
      <trkpt lat="43.86443" lon="1.69799">
        <ele>198.5</ele>
        <time>2019-12-04T12:20:13.000Z</time>
      </trkpt>
      <trkpt lat="43.86434" lon="1.69793">
        <ele>197.9</ele>
        <time>2019-12-04T12:20:20.000Z</time>
      </trkpt>
      <trkpt lat="43.86426" lon="1.69787">
        <ele>197.6</ele>
        <time>2019-12-04T12:20:27.000Z</time>
      </trkpt>
      <trkpt lat="43.86418" lon="1.69778">
        <ele>197.1</ele>
        <time>2019-12-04T12:20:36.000Z</time>
      </trkpt>
      <trkpt lat="43.86409" lon="1.69772">
        <ele>196.7</ele>
        <time>2019-12-04T12:20:44.000Z</time>
      </trkpt>
      <trkpt lat="43.86401" lon="1.69766">
        <ele>196.2</ele>
        <time>2019-12-04T12:20:51.000Z</time>
      </trkpt>
      <trkpt lat="43.86393" lon="1.69759">
        <ele>195.7</ele>
        <time>2019-12-04T12:21:0.000Z</time>
      </trkpt>
      <trkpt lat="43.86385" lon="1.69752">
        <ele>195.3</ele>
        <time>2019-12-04T12:21:6.000Z</time>
      </trkpt>
      <trkpt lat="43.86377" lon="1.69745">
        <ele>194.8</ele>
        <time>2019-12-04T12:21:13.000Z</time>
      </trkpt>
      <trkpt lat="43.86371" lon="1.69737">
        <ele>193.7</ele>
        <time>2019-12-04T12:21:22.000Z</time>
      </trkpt>
      <trkpt lat="43.86364" lon="1.69727">
        <ele>192.1</ele>
        <time>2019-12-04T12:23:46.000Z</time>
      </trkpt>
      <trkpt lat="43.86355" lon="1.69727">
        <ele>191.9</ele>
        <time>2019-12-04T12:23:55.000Z</time>
      </trkpt>
      <trkpt lat="43.86345" lon="1.69732">
        <ele>191.6</ele>
        <time>2019-12-04T12:24:5.000Z</time>
      </trkpt>
      <trkpt lat="43.86336" lon="1.69737">
        <ele>191.1</ele>
        <time>2019-12-04T12:24:14.000Z</time>
      </trkpt>
      <trkpt lat="43.86326" lon="1.69739">
        <ele>190.7</ele>
        <time>2019-12-04T12:24:21.000Z</time>
      </trkpt>
      <trkpt lat="43.86317" lon="1.69743">
        <ele>189.5</ele>
        <time>2019-12-04T12:24:30.000Z</time>
      </trkpt>
      <trkpt lat="43.86308" lon="1.69746">
        <ele>188.5</ele>
        <time>2019-12-04T12:24:38.000Z</time>
      </trkpt>
      <trkpt lat="43.863" lon="1.69751">
        <ele>187.2</ele>
        <time>2019-12-04T12:24:46.000Z</time>
      </trkpt>
      <trkpt lat="43.8629" lon="1.69755">
        <ele>185.7</ele>
        <time>2019-12-04T12:24:55.000Z</time>
      </trkpt>
      <trkpt lat="43.86282" lon="1.6976">
        <ele>184.5</ele>
        <time>2019-12-04T12:25:4.000Z</time>
      </trkpt>
      <trkpt lat="43.86273" lon="1.69765">
        <ele>182.8</ele>
        <time>2019-12-04T12:25:13.000Z</time>
      </trkpt>
      <trkpt lat="43.86264" lon="1.69769">
        <ele>181.1</ele>
        <time>2019-12-04T12:25:23.000Z</time>
      </trkpt>
      <trkpt lat="43.86255" lon="1.69772">
        <ele>180.1</ele>
        <time>2019-12-04T12:25:31.000Z</time>
      </trkpt>
      <trkpt lat="43.86246" lon="1.69776">
        <ele>179</ele>
        <time>2019-12-04T12:25:39.000Z</time>
      </trkpt>
      <trkpt lat="43.86237" lon="1.69781">
        <ele>177.7</ele>
        <time>2019-12-04T12:25:48.000Z</time>
      </trkpt>
      <trkpt lat="43.86228" lon="1.69785">
        <ele>176.4</ele>
        <time>2019-12-04T12:25:57.000Z</time>
      </trkpt>
      <trkpt lat="43.86219" lon="1.69789">
        <ele>175.5</ele>
        <time>2019-12-04T12:26:5.000Z</time>
      </trkpt>
      <trkpt lat="43.86211" lon="1.69792">
        <ele>174.8</ele>
        <time>2019-12-04T12:26:12.000Z</time>
      </trkpt>
      <trkpt lat="43.86202" lon="1.69798">
        <ele>173.8</ele>
        <time>2019-12-04T12:26:21.000Z</time>
      </trkpt>
      <trkpt lat="43.86192" lon="1.69801">
        <ele>172.9</ele>
        <time>2019-12-04T12:26:30.000Z</time>
      </trkpt>
      <trkpt lat="43.86183" lon="1.69806">
        <ele>172.2</ele>
        <time>2019-12-04T12:26:37.000Z</time>
      </trkpt>
      <trkpt lat="43.86174" lon="1.69811">
        <ele>171.4</ele>
        <time>2019-12-04T12:26:44.000Z</time>
      </trkpt>
      <trkpt lat="43.86165" lon="1.69814">
        <ele>170.5</ele>
        <time>2019-12-04T12:26:52.000Z</time>
      </trkpt>
      <trkpt lat="43.86156" lon="1.69819">
        <ele>169.2</ele>
        <time>2019-12-04T12:27:0.000Z</time>
      </trkpt>
      <trkpt lat="43.86146" lon="1.69822">
        <ele>168.2</ele>
        <time>2019-12-04T12:27:9.000Z</time>
      </trkpt>
      <trkpt lat="43.86137" lon="1.69825">
        <ele>167.4</ele>
        <time>2019-12-04T12:27:17.000Z</time>
      </trkpt>
      <trkpt lat="43.86128" lon="1.6983">
        <ele>166.5</ele>
        <time>2019-12-04T12:27:26.000Z</time>
      </trkpt>
      <trkpt lat="43.86118" lon="1.69833">
        <ele>165.9</ele>
        <time>2019-12-04T12:27:34.000Z</time>
      </trkpt>
      <trkpt lat="43.86109" lon="1.69835">
        <ele>165.4</ele>
        <time>2019-12-04T12:27:41.000Z</time>
      </trkpt>
      <trkpt lat="43.861" lon="1.69839">
        <ele>164.8</ele>
        <time>2019-12-04T12:27:49.000Z</time>
      </trkpt>
      <trkpt lat="43.86091" lon="1.69843">
        <ele>164.3</ele>
        <time>2019-12-04T12:27:57.000Z</time>
      </trkpt>
      <trkpt lat="43.86082" lon="1.69844">
        <ele>162.6</ele>
        <time>2019-12-04T12:29:25.000Z</time>
      </trkpt>
      <trkpt lat="43.86074" lon="1.69835">
        <ele>162.6</ele>
        <time>2019-12-04T12:29:32.000Z</time>
      </trkpt>
      <trkpt lat="43.86066" lon="1.69828">
        <ele>162.6</ele>
        <time>2019-12-04T12:29:40.000Z</time>
      </trkpt>
      <trkpt lat="43.86059" lon="1.69819">
        <ele>162.4</ele>
        <time>2019-12-04T12:29:49.000Z</time>
      </trkpt>
      <trkpt lat="43.86051" lon="1.69813">
        <ele>162.2</ele>
        <time>2019-12-04T12:29:58.000Z</time>
      </trkpt>
      <trkpt lat="43.86042" lon="1.69809">
        <ele>161.9</ele>
        <time>2019-12-04T12:30:6.000Z</time>
      </trkpt>
      <trkpt lat="43.86033" lon="1.69804">
        <ele>161.6</ele>
        <time>2019-12-04T12:30:13.000Z</time>
      </trkpt>
      <trkpt lat="43.86023" lon="1.69801">
        <ele>161.1</ele>
        <time>2019-12-04T12:30:21.000Z</time>
      </trkpt>
      <trkpt lat="43.86014" lon="1.69797">
        <ele>160.8</ele>
        <time>2019-12-04T12:30:30.000Z</time>
      </trkpt>
      <trkpt lat="43.86004" lon="1.69795">
        <ele>160.4</ele>
        <time>2019-12-04T12:30:39.000Z</time>
      </trkpt>
      <trkpt lat="43.85995" lon="1.69794">
        <ele>159.8</ele>
        <time>2019-12-04T12:30:48.000Z</time>
      </trkpt>
      <trkpt lat="43.85986" lon="1.69796">
        <ele>159.3</ele>
        <time>2019-12-04T12:30:56.000Z</time>
      </trkpt>
      <trkpt lat="43.85976" lon="1.69798">
        <ele>158.7</ele>
        <time>2019-12-04T12:31:4.000Z</time>
      </trkpt>
      <trkpt lat="43.85966" lon="1.69801">
        <ele>158.4</ele>
        <time>2019-12-04T12:31:12.000Z</time>
      </trkpt>
      <trkpt lat="43.85957" lon="1.69803">
        <ele>158</ele>
        <time>2019-12-04T12:31:21.000Z</time>
      </trkpt>
      <trkpt lat="43.85948" lon="1.69802">
        <ele>157.5</ele>
        <time>2019-12-04T12:31:29.000Z</time>
      </trkpt>
      <trkpt lat="43.85938" lon="1.69801">
        <ele>156.7</ele>
        <time>2019-12-04T12:31:38.000Z</time>
      </trkpt>
      <trkpt lat="43.8593" lon="1.69796">
        <ele>156.3</ele>
        <time>2019-12-04T12:31:46.000Z</time>
      </trkpt>
      <trkpt lat="43.85921" lon="1.69789">
        <ele>156.1</ele>
        <time>2019-12-04T12:31:54.000Z</time>
      </trkpt>
      <trkpt lat="43.85915" lon="1.69779">
        <ele>155.9</ele>
        <time>2019-12-04T12:32:3.000Z</time>
      </trkpt>
      <trkpt lat="43.85908" lon="1.69769">
        <ele>155.6</ele>
        <time>2019-12-04T12:32:12.000Z</time>
      </trkpt>
      <trkpt lat="43.85903" lon="1.69759">
        <ele>155.1</ele>
        <time>2019-12-04T12:32:20.000Z</time>
      </trkpt>
      <trkpt lat="43.85898" lon="1.69746">
        <ele>154.7</ele>
        <time>2019-12-04T12:32:29.000Z</time>
      </trkpt>
      <trkpt lat="43.85892" lon="1.69735">
        <ele>154.4</ele>
        <time>2019-12-04T12:32:38.000Z</time>
      </trkpt>
      <trkpt lat="43.85887" lon="1.69723">
        <ele>154</ele>
        <time>2019-12-04T12:32:47.000Z</time>
      </trkpt>
      <trkpt lat="43.85883" lon="1.69711">
        <ele>153.6</ele>
        <time>2019-12-04T12:32:56.000Z</time>
      </trkpt>
      <trkpt lat="43.85878" lon="1.697">
        <ele>153.3</ele>
        <time>2019-12-04T12:33:4.000Z</time>
      </trkpt>
      <trkpt lat="43.85874" lon="1.69688">
        <ele>152.8</ele>
        <time>2019-12-04T12:33:12.000Z</time>
      </trkpt>
      <trkpt lat="43.85868" lon="1.69678">
        <ele>152.4</ele>
        <time>2019-12-04T12:33:21.000Z</time>
      </trkpt>
      <trkpt lat="43.85863" lon="1.69667">
        <ele>152.2</ele>
        <time>2019-12-04T12:33:29.000Z</time>
      </trkpt>
      <trkpt lat="43.85856" lon="1.69657">
        <ele>151.7</ele>
        <time>2019-12-04T12:33:37.000Z</time>
      </trkpt>
      <trkpt lat="43.8585" lon="1.69647">
        <ele>151.3</ele>
        <time>2019-12-04T12:33:45.000Z</time>
      </trkpt>
      <trkpt lat="43.85843" lon="1.69638">
        <ele>151</ele>
        <time>2019-12-04T12:33:53.000Z</time>
      </trkpt>
      <trkpt lat="43.85838" lon="1.69627">
        <ele>150.6</ele>
        <time>2019-12-04T12:34:1.000Z</time>
      </trkpt>
      <trkpt lat="43.85831" lon="1.69617">
        <ele>150.2</ele>
        <time>2019-12-04T12:34:10.000Z</time>
      </trkpt>
      <trkpt lat="43.85826" lon="1.69606">
        <ele>149.7</ele>
        <time>2019-12-04T12:34:18.000Z</time>
      </trkpt>
      <trkpt lat="43.8582" lon="1.69596">
        <ele>149.1</ele>
        <time>2019-12-04T12:34:27.000Z</time>
      </trkpt>
      <trkpt lat="43.85813" lon="1.69586">
        <ele>148.7</ele>
        <time>2019-12-04T12:34:36.000Z</time>
      </trkpt>
      <trkpt lat="43.85804" lon="1.6958">
        <ele>148.5</ele>
        <time>2019-12-04T12:34:44.000Z</time>
      </trkpt>
      <trkpt lat="43.85795" lon="1.69574">
        <ele>148.1</ele>
        <time>2019-12-04T12:34:54.000Z</time>
      </trkpt>
      <trkpt lat="43.85787" lon="1.69567">
        <ele>147.7</ele>
        <time>2019-12-04T12:35:3.000Z</time>
      </trkpt>
      <trkpt lat="43.85778" lon="1.69561">
        <ele>147.2</ele>
        <time>2019-12-04T12:35:13.000Z</time>
      </trkpt>
      <trkpt lat="43.85769" lon="1.69557">
        <ele>146.8</ele>
        <time>2019-12-04T12:35:20.000Z</time>
      </trkpt>
      <trkpt lat="43.8576" lon="1.69551">
        <ele>146.3</ele>
        <time>2019-12-04T12:35:29.000Z</time>
      </trkpt>
      <trkpt lat="43.85753" lon="1.69544">
        <ele>145.7</ele>
        <time>2019-12-04T12:35:38.000Z</time>
      </trkpt>
      <trkpt lat="43.85745" lon="1.69535">
        <ele>145.2</ele>
        <time>2019-12-04T12:35:47.000Z</time>
      </trkpt>
      <trkpt lat="43.85738" lon="1.69526">
        <ele>144.7</ele>
        <time>2019-12-04T12:35:56.000Z</time>
      </trkpt>
      <trkpt lat="43.85732" lon="1.69516">
        <ele>144.3</ele>
        <time>2019-12-04T12:36:5.000Z</time>
      </trkpt>
      <trkpt lat="43.85725" lon="1.69507">
        <ele>143.9</ele>
        <time>2019-12-04T12:36:13.000Z</time>
      </trkpt>
      <trkpt lat="43.85718" lon="1.69498">
        <ele>143.4</ele>
        <time>2019-12-04T12:36:21.000Z</time>
      </trkpt>
      <trkpt lat="43.85711" lon="1.69489">
        <ele>143.2</ele>
        <time>2019-12-04T12:36:29.000Z</time>
      </trkpt>
      <trkpt lat="43.85705" lon="1.6948">
        <ele>143</ele>
        <time>2019-12-04T12:36:36.000Z</time>
      </trkpt>
      <trkpt lat="43.85698" lon="1.69469">
        <ele>142.6</ele>
        <time>2019-12-04T12:36:44.000Z</time>
      </trkpt>
      <trkpt lat="43.8569" lon="1.69461">
        <ele>142.3</ele>
        <time>2019-12-04T12:36:51.000Z</time>
      </trkpt>
      <trkpt lat="43.85683" lon="1.69451">
        <ele>141.8</ele>
        <time>2019-12-04T12:37:0.000Z</time>
      </trkpt>
      <trkpt lat="43.85677" lon="1.69441">
        <ele>141.5</ele>
        <time>2019-12-04T12:37:9.000Z</time>
      </trkpt>
      <trkpt lat="43.85673" lon="1.69429">
        <ele>141.4</ele>
        <time>2019-12-04T12:37:17.000Z</time>
      </trkpt>
      <trkpt lat="43.85665" lon="1.6942">
        <ele>141.3</ele>
        <time>2019-12-04T12:37:25.000Z</time>
      </trkpt>
      <trkpt lat="43.85658" lon="1.6941">
        <ele>141.1</ele>
        <time>2019-12-04T12:37:33.000Z</time>
      </trkpt>
      <trkpt lat="43.85651" lon="1.694">
        <ele>140.9</ele>
        <time>2019-12-04T12:37:42.000Z</time>
      </trkpt>
      <trkpt lat="43.85646" lon="1.69387">
        <ele>140.8</ele>
        <time>2019-12-04T12:37:52.000Z</time>
      </trkpt>
      <trkpt lat="43.85639" lon="1.69377">
        <ele>140.7</ele>
        <time>2019-12-04T12:38:0.000Z</time>
      </trkpt>
      <trkpt lat="43.85633" lon="1.69369">
        <ele>140.6</ele>
        <time>2019-12-04T12:38:8.000Z</time>
      </trkpt>
      <trkpt lat="43.85626" lon="1.69358">
        <ele>140.5</ele>
        <time>2019-12-04T12:38:17.000Z</time>
      </trkpt>
      <trkpt lat="43.8562" lon="1.69348">
        <ele>140.2</ele>
        <time>2019-12-04T12:38:27.000Z</time>
      </trkpt>
      <trkpt lat="43.85613" lon="1.69339">
        <ele>140</ele>
        <time>2019-12-04T12:38:36.000Z</time>
      </trkpt>
      <trkpt lat="43.85623" lon="1.69324">
        <ele>139</ele>
        <time>2019-12-04T12:39:37.000Z</time>
      </trkpt>
      <trkpt lat="43.85615" lon="1.69316">
        <ele>139.6</ele>
        <time>2019-12-04T12:39:50.000Z</time>
      </trkpt>
      <trkpt lat="43.85608" lon="1.69309">
        <ele>139.6</ele>
        <time>2019-12-04T12:39:59.000Z</time>
      </trkpt>
      <trkpt lat="43.85603" lon="1.69297">
        <ele>139.6</ele>
        <time>2019-12-04T12:40:18.000Z</time>
      </trkpt>
      <trkpt lat="43.85607" lon="1.69285">
        <ele>139.6</ele>
        <time>2019-12-04T12:40:31.000Z</time>
      </trkpt>
      <trkpt lat="43.85611" lon="1.69273">
        <ele>139.6</ele>
        <time>2019-12-04T12:40:39.000Z</time>
      </trkpt>
      <trkpt lat="43.85609" lon="1.69261">
        <ele>139.7</ele>
        <time>2019-12-04T12:40:47.000Z</time>
      </trkpt>
      <trkpt lat="43.85602" lon="1.69252">
        <ele>140</ele>
        <time>2019-12-04T12:40:55.000Z</time>
      </trkpt>
      <trkpt lat="43.85593" lon="1.69247">
        <ele>140.2</ele>
        <time>2019-12-04T12:41:2.000Z</time>
      </trkpt>
      <trkpt lat="43.85584" lon="1.69243">
        <ele>140.4</ele>
        <time>2019-12-04T12:41:9.000Z</time>
      </trkpt>
      <trkpt lat="43.85575" lon="1.69239">
        <ele>140.5</ele>
        <time>2019-12-04T12:41:16.000Z</time>
      </trkpt>
      <trkpt lat="43.85565" lon="1.69235">
        <ele>140.6</ele>
        <time>2019-12-04T12:41:23.000Z</time>
      </trkpt>
      <trkpt lat="43.85557" lon="1.69232">
        <ele>140.7</ele>
        <time>2019-12-04T12:41:29.000Z</time>
      </trkpt>
      <trkpt lat="43.85547" lon="1.69229">
        <ele>140.9</ele>
        <time>2019-12-04T12:41:35.000Z</time>
      </trkpt>
      <trkpt lat="43.85538" lon="1.69223">
        <ele>141.1</ele>
        <time>2019-12-04T12:41:43.000Z</time>
      </trkpt>
      <trkpt lat="43.85529" lon="1.6922">
        <ele>141.2</ele>
        <time>2019-12-04T12:41:50.000Z</time>
      </trkpt>
      <trkpt lat="43.8552" lon="1.69214">
        <ele>141.3</ele>
        <time>2019-12-04T12:41:58.000Z</time>
      </trkpt>
      <trkpt lat="43.85513" lon="1.69207">
        <ele>141.6</ele>
        <time>2019-12-04T12:42:7.000Z</time>
      </trkpt>
      <trkpt lat="43.85504" lon="1.69202">
        <ele>141.6</ele>
        <time>2019-12-04T12:42:16.000Z</time>
      </trkpt>
      <trkpt lat="43.85495" lon="1.69198">
        <ele>141.7</ele>
        <time>2019-12-04T12:42:25.000Z</time>
      </trkpt>
      <trkpt lat="43.85487" lon="1.69192">
        <ele>141.7</ele>
        <time>2019-12-04T12:42:33.000Z</time>
      </trkpt>
      <trkpt lat="43.85478" lon="1.69187">
        <ele>141.8</ele>
        <time>2019-12-04T12:42:41.000Z</time>
      </trkpt>
      <trkpt lat="43.8547" lon="1.69183">
        <ele>141.8</ele>
        <time>2019-12-04T12:42:49.000Z</time>
      </trkpt>
      <trkpt lat="43.85461" lon="1.69175">
        <ele>141.8</ele>
        <time>2019-12-04T12:43:0.000Z</time>
      </trkpt>
      <trkpt lat="43.85453" lon="1.6917">
        <ele>141.7</ele>
        <time>2019-12-04T12:43:6.000Z</time>
      </trkpt>
      <trkpt lat="43.85444" lon="1.69164">
        <ele>141.6</ele>
        <time>2019-12-04T12:43:15.000Z</time>
      </trkpt>
      <trkpt lat="43.85436" lon="1.69156">
        <ele>141.6</ele>
        <time>2019-12-04T12:43:27.000Z</time>
      </trkpt>
      <trkpt lat="43.85429" lon="1.69148">
        <ele>141.6</ele>
        <time>2019-12-04T12:43:36.000Z</time>
      </trkpt>
      <trkpt lat="43.85422" lon="1.69141">
        <ele>141.6</ele>
        <time>2019-12-04T12:43:46.000Z</time>
      </trkpt>
      <trkpt lat="43.85412" lon="1.69137">
        <ele>141.6</ele>
        <time>2019-12-04T12:43:53.000Z</time>
      </trkpt>
      <trkpt lat="43.85405" lon="1.69129">
        <ele>141.6</ele>
        <time>2019-12-04T12:44:1.000Z</time>
      </trkpt>
      <trkpt lat="43.85397" lon="1.69121">
        <ele>141.6</ele>
        <time>2019-12-04T12:44:10.000Z</time>
      </trkpt>
      <trkpt lat="43.85391" lon="1.69112">
        <ele>141.6</ele>
        <time>2019-12-04T12:44:20.000Z</time>
      </trkpt>
      <trkpt lat="43.85383" lon="1.69105">
        <ele>141.6</ele>
        <time>2019-12-04T12:44:27.000Z</time>
      </trkpt>
      <trkpt lat="43.85373" lon="1.69097">
        <ele>141.5</ele>
        <time>2019-12-04T12:44:35.000Z</time>
      </trkpt>
      <trkpt lat="43.85365" lon="1.69089">
        <ele>141.4</ele>
        <time>2019-12-04T12:44:42.000Z</time>
      </trkpt>
      <trkpt lat="43.85357" lon="1.69082">
        <ele>141.3</ele>
        <time>2019-12-04T12:44:51.000Z</time>
      </trkpt>
      <trkpt lat="43.85349" lon="1.69074">
        <ele>141.2</ele>
        <time>2019-12-04T12:45:0.000Z</time>
      </trkpt>
      <trkpt lat="43.85342" lon="1.69065">
        <ele>141.1</ele>
        <time>2019-12-04T12:45:11.000Z</time>
      </trkpt>
      <trkpt lat="43.85333" lon="1.69059">
        <ele>141.1</ele>
        <time>2019-12-04T12:45:18.000Z</time>
      </trkpt>
      <trkpt lat="43.85325" lon="1.69053">
        <ele>141</ele>
        <time>2019-12-04T12:45:24.000Z</time>
      </trkpt>
      <trkpt lat="43.85317" lon="1.69044">
        <ele>141</ele>
        <time>2019-12-04T12:45:33.000Z</time>
      </trkpt>
      <trkpt lat="43.85308" lon="1.69038">
        <ele>140.9</ele>
        <time>2019-12-04T12:45:41.000Z</time>
      </trkpt>
      <trkpt lat="43.85299" lon="1.69033">
        <ele>140.7</ele>
        <time>2019-12-04T12:45:49.000Z</time>
      </trkpt>
      <trkpt lat="43.8529" lon="1.69029">
        <ele>140.6</ele>
        <time>2019-12-04T12:45:57.000Z</time>
      </trkpt>
      <trkpt lat="43.85281" lon="1.69022">
        <ele>140.4</ele>
        <time>2019-12-04T12:46:5.000Z</time>
      </trkpt>
      <trkpt lat="43.85273" lon="1.69015">
        <ele>140.2</ele>
        <time>2019-12-04T12:46:13.000Z</time>
      </trkpt>
      <trkpt lat="43.85267" lon="1.69007">
        <ele>140</ele>
        <time>2019-12-04T12:46:22.000Z</time>
      </trkpt>
      <trkpt lat="43.85258" lon="1.69">
        <ele>139.7</ele>
        <time>2019-12-04T12:46:30.000Z</time>
      </trkpt>
      <trkpt lat="43.8525" lon="1.68993">
        <ele>139.5</ele>
        <time>2019-12-04T12:46:40.000Z</time>
      </trkpt>
      <trkpt lat="43.85241" lon="1.6899">
        <ele>139.4</ele>
        <time>2019-12-04T12:46:45.000Z</time>
      </trkpt>
      <trkpt lat="43.8523" lon="1.68989">
        <ele>139.3</ele>
        <time>2019-12-04T12:46:52.000Z</time>
      </trkpt>
      <trkpt lat="43.85222" lon="1.68995">
        <ele>139.2</ele>
        <time>2019-12-04T12:47:2.000Z</time>
      </trkpt>
      <trkpt lat="43.85216" lon="1.69005">
        <ele>139</ele>
        <time>2019-12-04T12:47:12.000Z</time>
      </trkpt>
      <trkpt lat="43.8521" lon="1.69014">
        <ele>138.8</ele>
        <time>2019-12-04T12:47:22.000Z</time>
      </trkpt>
      <trkpt lat="43.85203" lon="1.69025">
        <ele>138.6</ele>
        <time>2019-12-04T12:47:32.000Z</time>
      </trkpt>
      <trkpt lat="43.85198" lon="1.69037">
        <ele>138.5</ele>
        <time>2019-12-04T12:47:41.000Z</time>
      </trkpt>
      <trkpt lat="43.85192" lon="1.69048">
        <ele>138.5</ele>
        <time>2019-12-04T12:47:49.000Z</time>
      </trkpt>
      <trkpt lat="43.85185" lon="1.69058">
        <ele>138.5</ele>
        <time>2019-12-04T12:48:0.000Z</time>
      </trkpt>
      <trkpt lat="43.85178" lon="1.69067">
        <ele>138.7</ele>
        <time>2019-12-04T12:48:10.000Z</time>
      </trkpt>
      <trkpt lat="43.85171" lon="1.69076">
        <ele>138.8</ele>
        <time>2019-12-04T12:48:20.000Z</time>
      </trkpt>
      <trkpt lat="43.85164" lon="1.69084">
        <ele>138.9</ele>
        <time>2019-12-04T12:48:30.000Z</time>
      </trkpt>
      <trkpt lat="43.85157" lon="1.69094">
        <ele>139</ele>
        <time>2019-12-04T12:48:39.000Z</time>
      </trkpt>
      <trkpt lat="43.85151" lon="1.69103">
        <ele>139</ele>
        <time>2019-12-04T12:48:48.000Z</time>
      </trkpt>
      <trkpt lat="43.85146" lon="1.69115">
        <ele>139</ele>
        <time>2019-12-04T12:48:56.000Z</time>
      </trkpt>
      <trkpt lat="43.85141" lon="1.69127">
        <ele>139.1</ele>
        <time>2019-12-04T12:49:5.000Z</time>
      </trkpt>
      <trkpt lat="43.85136" lon="1.69138">
        <ele>139.4</ele>
        <time>2019-12-04T12:49:14.000Z</time>
      </trkpt>
      <trkpt lat="43.8513" lon="1.6915">
        <ele>139.7</ele>
        <time>2019-12-04T12:49:22.000Z</time>
      </trkpt>
      <trkpt lat="43.85125" lon="1.69161">
        <ele>140.1</ele>
        <time>2019-12-04T12:49:32.000Z</time>
      </trkpt>
      <trkpt lat="43.8512" lon="1.69171">
        <ele>140.5</ele>
        <time>2019-12-04T12:49:41.000Z</time>
      </trkpt>
      <trkpt lat="43.85116" lon="1.69184">
        <ele>141.2</ele>
        <time>2019-12-04T12:49:53.000Z</time>
      </trkpt>
      <trkpt lat="43.85112" lon="1.69195">
        <ele>142.1</ele>
        <time>2019-12-04T12:50:5.000Z</time>
      </trkpt>
      <trkpt lat="43.85106" lon="1.69206">
        <ele>142.9</ele>
        <time>2019-12-04T12:50:17.000Z</time>
      </trkpt>
      <trkpt lat="43.851" lon="1.69214">
        <ele>143.3</ele>
        <time>2019-12-04T12:50:26.000Z</time>
      </trkpt>
      <trkpt lat="43.85094" lon="1.69224">
        <ele>143.8</ele>
        <time>2019-12-04T12:50:36.000Z</time>
      </trkpt>
      <trkpt lat="43.85087" lon="1.69232">
        <ele>144.4</ele>
        <time>2019-12-04T12:50:46.000Z</time>
      </trkpt>
      <trkpt lat="43.8508" lon="1.6924">
        <ele>145.3</ele>
        <time>2019-12-04T12:50:57.000Z</time>
      </trkpt>
      <trkpt lat="43.85071" lon="1.69247">
        <ele>146.2</ele>
        <time>2019-12-04T12:51:6.000Z</time>
      </trkpt>
      <trkpt lat="43.85063" lon="1.69253">
        <ele>147.1</ele>
        <time>2019-12-04T12:51:16.000Z</time>
      </trkpt>
      <trkpt lat="43.85054" lon="1.69258">
        <ele>148.4</ele>
        <time>2019-12-04T12:51:30.000Z</time>
      </trkpt>
      <trkpt lat="43.85045" lon="1.69262">
        <ele>149.4</ele>
        <time>2019-12-04T12:51:42.000Z</time>
      </trkpt>
      <trkpt lat="43.85037" lon="1.69267">
        <ele>150.5</ele>
        <time>2019-12-04T12:51:52.000Z</time>
      </trkpt>
      <trkpt lat="43.85027" lon="1.69269">
        <ele>151.7</ele>
        <time>2019-12-04T12:52:3.000Z</time>
      </trkpt>
      <trkpt lat="43.85018" lon="1.69269">
        <ele>152.9</ele>
        <time>2019-12-04T12:52:15.000Z</time>
      </trkpt>
      <trkpt lat="43.85009" lon="1.69267">
        <ele>154.5</ele>
        <time>2019-12-04T12:52:29.000Z</time>
      </trkpt>
      <trkpt lat="43.85" lon="1.69262">
        <ele>155.6</ele>
        <time>2019-12-04T12:52:41.000Z</time>
      </trkpt>
      <trkpt lat="43.8499" lon="1.69255">
        <ele>158.7</ele>
        <time>2019-12-04T13:00:12.000Z</time>
      </trkpt>
      <trkpt lat="43.84987" lon="1.69243">
        <ele>158.7</ele>
        <time>2019-12-04T13:00:26.000Z</time>
      </trkpt>
      <trkpt lat="43.84982" lon="1.69232">
        <ele>158.5</ele>
        <time>2019-12-04T13:00:43.000Z</time>
      </trkpt>
      <trkpt lat="43.84975" lon="1.69223">
        <ele>158.1</ele>
        <time>2019-12-04T13:00:55.000Z</time>
      </trkpt>
      <trkpt lat="43.84969" lon="1.69215">
        <ele>157.4</ele>
        <time>2019-12-04T13:01:5.000Z</time>
      </trkpt>
      <trkpt lat="43.84961" lon="1.69208">
        <ele>156.7</ele>
        <time>2019-12-04T13:01:14.000Z</time>
      </trkpt>
      <trkpt lat="43.84953" lon="1.692">
        <ele>155.7</ele>
        <time>2019-12-04T13:01:25.000Z</time>
      </trkpt>
      <trkpt lat="43.84945" lon="1.69193">
        <ele>154.9</ele>
        <time>2019-12-04T13:01:34.000Z</time>
      </trkpt>
      <trkpt lat="43.84938" lon="1.69184">
        <ele>153.8</ele>
        <time>2019-12-04T13:01:44.000Z</time>
      </trkpt>
      <trkpt lat="43.84931" lon="1.69176">
        <ele>152.9</ele>
        <time>2019-12-04T13:01:52.000Z</time>
      </trkpt>
      <trkpt lat="43.84922" lon="1.69168">
        <ele>151.6</ele>
        <time>2019-12-04T13:02:1.000Z</time>
      </trkpt>
      <trkpt lat="43.84914" lon="1.69159">
        <ele>150.8</ele>
        <time>2019-12-04T13:02:9.000Z</time>
      </trkpt>
      <trkpt lat="43.84908" lon="1.69149">
        <ele>149.8</ele>
        <time>2019-12-04T13:02:19.000Z</time>
      </trkpt>
      <trkpt lat="43.84902" lon="1.69138">
        <ele>148.6</ele>
        <time>2019-12-04T13:02:28.000Z</time>
      </trkpt>
      <trkpt lat="43.84897" lon="1.69127">
        <ele>147.6</ele>
        <time>2019-12-04T13:02:37.000Z</time>
      </trkpt>
      <trkpt lat="43.8489" lon="1.69118">
        <ele>146.7</ele>
        <time>2019-12-04T13:02:45.000Z</time>
      </trkpt>
      <trkpt lat="43.84885" lon="1.69107">
        <ele>146</ele>
        <time>2019-12-04T13:02:54.000Z</time>
      </trkpt>
      <trkpt lat="43.84879" lon="1.69097">
        <ele>145.4</ele>
        <time>2019-12-04T13:03:3.000Z</time>
      </trkpt>
      <trkpt lat="43.84872" lon="1.69089">
        <ele>145</ele>
        <time>2019-12-04T13:03:10.000Z</time>
      </trkpt>
      <trkpt lat="43.84865" lon="1.69078">
        <ele>144.4</ele>
        <time>2019-12-04T13:03:18.000Z</time>
      </trkpt>
      <trkpt lat="43.84858" lon="1.69069">
        <ele>143.7</ele>
        <time>2019-12-04T13:03:27.000Z</time>
      </trkpt>
      <trkpt lat="43.8485" lon="1.6906">
        <ele>143.2</ele>
        <time>2019-12-04T13:03:34.000Z</time>
      </trkpt>
      <trkpt lat="43.84843" lon="1.69051">
        <ele>142.7</ele>
        <time>2019-12-04T13:03:42.000Z</time>
      </trkpt>
      <trkpt lat="43.84836" lon="1.69042">
        <ele>142.2</ele>
        <time>2019-12-04T13:03:51.000Z</time>
      </trkpt>
      <trkpt lat="43.84829" lon="1.69034">
        <ele>142</ele>
        <time>2019-12-04T13:03:59.000Z</time>
      </trkpt>
      <trkpt lat="43.84821" lon="1.69027">
        <ele>141.8</ele>
        <time>2019-12-04T13:04:11.000Z</time>
      </trkpt>
      <trkpt lat="43.84811" lon="1.69024">
        <ele>141.8</ele>
        <time>2019-12-04T13:04:22.000Z</time>
      </trkpt>
      <trkpt lat="43.84801" lon="1.69022">
        <ele>142.1</ele>
        <time>2019-12-04T13:04:32.000Z</time>
      </trkpt>
      <trkpt lat="43.84792" lon="1.69021">
        <ele>142.6</ele>
        <time>2019-12-04T13:04:43.000Z</time>
      </trkpt>
      <trkpt lat="43.84782" lon="1.69019">
        <ele>143.1</ele>
        <time>2019-12-04T13:04:53.000Z</time>
      </trkpt>
      <trkpt lat="43.84773" lon="1.69018">
        <ele>143.8</ele>
        <time>2019-12-04T13:05:3.000Z</time>
      </trkpt>
      <trkpt lat="43.84763" lon="1.69017">
        <ele>145.2</ele>
        <time>2019-12-04T13:05:14.000Z</time>
      </trkpt>
      <trkpt lat="43.84754" lon="1.69015">
        <ele>146.7</ele>
        <time>2019-12-04T13:05:26.000Z</time>
      </trkpt>
      <trkpt lat="43.84744" lon="1.69013">
        <ele>148</ele>
        <time>2019-12-04T13:05:38.000Z</time>
      </trkpt>
      <trkpt lat="43.84735" lon="1.69013">
        <ele>149.6</ele>
        <time>2019-12-04T13:05:51.000Z</time>
      </trkpt>
      <trkpt lat="43.84726" lon="1.69013">
        <ele>150.8</ele>
        <time>2019-12-04T13:06:2.000Z</time>
      </trkpt>
      <trkpt lat="43.84717" lon="1.69015">
        <ele>152.2</ele>
        <time>2019-12-04T13:06:15.000Z</time>
      </trkpt>
      <trkpt lat="43.84708" lon="1.69015">
        <ele>153.6</ele>
        <time>2019-12-04T13:06:27.000Z</time>
      </trkpt>
      <trkpt lat="43.84699" lon="1.69016">
        <ele>155.6</ele>
        <time>2019-12-04T13:06:42.000Z</time>
      </trkpt>
      <trkpt lat="43.84689" lon="1.69014">
        <ele>157.7</ele>
        <time>2019-12-04T13:06:57.000Z</time>
      </trkpt>
      <trkpt lat="43.8468" lon="1.6901">
        <ele>160.3</ele>
        <time>2019-12-04T13:07:15.000Z</time>
      </trkpt>
      <trkpt lat="43.84672" lon="1.69002">
        <ele>162</ele>
        <time>2019-12-04T13:07:27.000Z</time>
      </trkpt>
      <trkpt lat="43.84664" lon="1.68996">
        <ele>163.2</ele>
        <time>2019-12-04T13:07:37.000Z</time>
      </trkpt>
      <trkpt lat="43.84657" lon="1.68988">
        <ele>165</ele>
        <time>2019-12-04T13:07:52.000Z</time>
      </trkpt>
      <trkpt lat="43.84647" lon="1.68983">
        <ele>166</ele>
        <time>2019-12-04T13:08:1.000Z</time>
      </trkpt>
      <trkpt lat="43.84639" lon="1.68979">
        <ele>167.4</ele>
        <time>2019-12-04T13:08:14.000Z</time>
      </trkpt>
      <trkpt lat="43.84629" lon="1.68977">
        <ele>168.5</ele>
        <time>2019-12-04T13:08:26.000Z</time>
      </trkpt>
      <trkpt lat="43.84619" lon="1.68982">
        <ele>171.1</ele>
        <time>2019-12-04T13:09:12.000Z</time>
      </trkpt>
      <trkpt lat="43.84614" lon="1.68993">
        <ele>171.2</ele>
        <time>2019-12-04T13:09:26.000Z</time>
      </trkpt>
      <trkpt lat="43.84609" lon="1.69004">
        <ele>171.5</ele>
        <time>2019-12-04T13:09:37.000Z</time>
      </trkpt>
      <trkpt lat="43.84603" lon="1.69015">
        <ele>172</ele>
        <time>2019-12-04T13:09:49.000Z</time>
      </trkpt>
      <trkpt lat="43.84597" lon="1.69025">
        <ele>172.4</ele>
        <time>2019-12-04T13:09:59.000Z</time>
      </trkpt>
      <trkpt lat="43.8459" lon="1.69034">
        <ele>172.7</ele>
        <time>2019-12-04T13:10:8.000Z</time>
      </trkpt>
      <trkpt lat="43.84583" lon="1.69043">
        <ele>173.2</ele>
        <time>2019-12-04T13:10:18.000Z</time>
      </trkpt>
      <trkpt lat="43.84574" lon="1.6905">
        <ele>173.7</ele>
        <time>2019-12-04T13:10:26.000Z</time>
      </trkpt>
      <trkpt lat="43.84566" lon="1.69056">
        <ele>174.3</ele>
        <time>2019-12-04T13:10:35.000Z</time>
      </trkpt>
      <trkpt lat="43.84557" lon="1.69061">
        <ele>174.7</ele>
        <time>2019-12-04T13:10:44.000Z</time>
      </trkpt>
      <trkpt lat="43.84548" lon="1.69067">
        <ele>175.1</ele>
        <time>2019-12-04T13:10:51.000Z</time>
      </trkpt>
      <trkpt lat="43.8454" lon="1.69073">
        <ele>175.7</ele>
        <time>2019-12-04T13:10:59.000Z</time>
      </trkpt>
      <trkpt lat="43.84532" lon="1.6908">
        <ele>176.2</ele>
        <time>2019-12-04T13:11:8.000Z</time>
      </trkpt>
      <trkpt lat="43.84524" lon="1.69087">
        <ele>176.7</ele>
        <time>2019-12-04T13:11:17.000Z</time>
      </trkpt>
      <trkpt lat="43.84517" lon="1.69096">
        <ele>177.2</ele>
        <time>2019-12-04T13:11:26.000Z</time>
      </trkpt>
      <trkpt lat="43.84511" lon="1.69106">
        <ele>178</ele>
        <time>2019-12-04T13:11:34.000Z</time>
      </trkpt>
      <trkpt lat="43.84505" lon="1.69117">
        <ele>178.4</ele>
        <time>2019-12-04T13:11:42.000Z</time>
      </trkpt>
      <trkpt lat="43.84499" lon="1.69127">
        <ele>179</ele>
        <time>2019-12-04T13:11:50.000Z</time>
      </trkpt>
      <trkpt lat="43.84494" lon="1.69139">
        <ele>179.6</ele>
        <time>2019-12-04T13:11:59.000Z</time>
      </trkpt>
      <trkpt lat="43.84488" lon="1.6915">
        <ele>180.4</ele>
        <time>2019-12-04T13:12:8.000Z</time>
      </trkpt>
      <trkpt lat="43.84483" lon="1.69161">
        <ele>181.3</ele>
        <time>2019-12-04T13:12:16.000Z</time>
      </trkpt>
      <trkpt lat="43.84478" lon="1.69173">
        <ele>182.5</ele>
        <time>2019-12-04T13:12:26.000Z</time>
      </trkpt>
      <trkpt lat="43.84474" lon="1.69186">
        <ele>183.5</ele>
        <time>2019-12-04T13:12:34.000Z</time>
      </trkpt>
      <trkpt lat="43.84467" lon="1.69196">
        <ele>184.6</ele>
        <time>2019-12-04T13:12:43.000Z</time>
      </trkpt>
      <trkpt lat="43.8446" lon="1.69205">
        <ele>185.5</ele>
        <time>2019-12-04T13:12:50.000Z</time>
      </trkpt>
      <trkpt lat="43.84452" lon="1.69214">
        <ele>186.5</ele>
        <time>2019-12-04T13:12:58.000Z</time>
      </trkpt>
      <trkpt lat="43.84446" lon="1.69223">
        <ele>187.6</ele>
        <time>2019-12-04T13:13:7.000Z</time>
      </trkpt>
      <trkpt lat="43.84441" lon="1.69234">
        <ele>188.5</ele>
        <time>2019-12-04T13:13:19.000Z</time>
      </trkpt>
      <trkpt lat="43.84435" lon="1.69244">
        <ele>189.2</ele>
        <time>2019-12-04T13:13:29.000Z</time>
      </trkpt>
      <trkpt lat="43.84429" lon="1.69253">
        <ele>189.7</ele>
        <time>2019-12-04T13:13:37.000Z</time>
      </trkpt>
      <trkpt lat="43.84422" lon="1.69262">
        <ele>190.1</ele>
        <time>2019-12-04T13:13:46.000Z</time>
      </trkpt>
      <trkpt lat="43.84416" lon="1.69273">
        <ele>190.6</ele>
        <time>2019-12-04T13:13:55.000Z</time>
      </trkpt>
      <trkpt lat="43.84411" lon="1.69283">
        <ele>190.9</ele>
        <time>2019-12-04T13:14:3.000Z</time>
      </trkpt>
      <trkpt lat="43.84404" lon="1.69294">
        <ele>191.1</ele>
        <time>2019-12-04T13:14:12.000Z</time>
      </trkpt>
      <trkpt lat="43.84398" lon="1.69305">
        <ele>191.4</ele>
        <time>2019-12-04T13:14:21.000Z</time>
      </trkpt>
      <trkpt lat="43.84392" lon="1.69315">
        <ele>191.6</ele>
        <time>2019-12-04T13:14:29.000Z</time>
      </trkpt>
      <trkpt lat="43.84385" lon="1.69325">
        <ele>191.8</ele>
        <time>2019-12-04T13:14:39.000Z</time>
      </trkpt>
      <trkpt lat="43.84378" lon="1.69334">
        <ele>192.1</ele>
        <time>2019-12-04T13:14:49.000Z</time>
      </trkpt>
      <trkpt lat="43.84371" lon="1.69343">
        <ele>192.4</ele>
        <time>2019-12-04T13:14:58.000Z</time>
      </trkpt>
      <trkpt lat="43.84363" lon="1.69351">
        <ele>192.8</ele>
        <time>2019-12-04T13:15:7.000Z</time>
      </trkpt>
      <trkpt lat="43.84355" lon="1.69359">
        <ele>193.2</ele>
        <time>2019-12-04T13:15:16.000Z</time>
      </trkpt>
      <trkpt lat="43.84348" lon="1.69367">
        <ele>193.5</ele>
        <time>2019-12-04T13:15:24.000Z</time>
      </trkpt>
      <trkpt lat="43.8434" lon="1.69374">
        <ele>193.8</ele>
        <time>2019-12-04T13:15:33.000Z</time>
      </trkpt>
      <trkpt lat="43.84332" lon="1.69382">
        <ele>194.3</ele>
        <time>2019-12-04T13:15:41.000Z</time>
      </trkpt>
      <trkpt lat="43.84325" lon="1.6939">
        <ele>194.9</ele>
        <time>2019-12-04T13:15:50.000Z</time>
      </trkpt>
      <trkpt lat="43.84319" lon="1.694">
        <ele>195.7</ele>
        <time>2019-12-04T13:16:0.000Z</time>
      </trkpt>
      <trkpt lat="43.84311" lon="1.69408">
        <ele>196.3</ele>
        <time>2019-12-04T13:16:9.000Z</time>
      </trkpt>
      <trkpt lat="43.84303" lon="1.69416">
        <ele>196.9</ele>
        <time>2019-12-04T13:16:18.000Z</time>
      </trkpt>
      <trkpt lat="43.84294" lon="1.69423">
        <ele>197.2</ele>
        <time>2019-12-04T13:16:24.000Z</time>
      </trkpt>
      <trkpt lat="43.84287" lon="1.69431">
        <ele>197.5</ele>
        <time>2019-12-04T13:16:31.000Z</time>
      </trkpt>
      <trkpt lat="43.84282" lon="1.69443">
        <ele>198.1</ele>
        <time>2019-12-04T13:16:41.000Z</time>
      </trkpt>
      <trkpt lat="43.84275" lon="1.69452">
        <ele>198.7</ele>
        <time>2019-12-04T13:16:51.000Z</time>
      </trkpt>
      <trkpt lat="43.84269" lon="1.69462">
        <ele>199.3</ele>
        <time>2019-12-04T13:17:0.000Z</time>
      </trkpt>
      <trkpt lat="43.84263" lon="1.69473">
        <ele>200.2</ele>
        <time>2019-12-04T13:17:10.000Z</time>
      </trkpt>
      <trkpt lat="43.84257" lon="1.69483">
        <ele>201.1</ele>
        <time>2019-12-04T13:17:20.000Z</time>
      </trkpt>
      <trkpt lat="43.84251" lon="1.69493">
        <ele>201.6</ele>
        <time>2019-12-04T13:17:27.000Z</time>
      </trkpt>
      <trkpt lat="43.84244" lon="1.69502">
        <ele>201.9</ele>
        <time>2019-12-04T13:17:35.000Z</time>
      </trkpt>
      <trkpt lat="43.84237" lon="1.69511">
        <ele>202.2</ele>
        <time>2019-12-04T13:17:44.000Z</time>
      </trkpt>
      <trkpt lat="43.8423" lon="1.6952">
        <ele>202.3</ele>
        <time>2019-12-04T13:17:52.000Z</time>
      </trkpt>
      <trkpt lat="43.84222" lon="1.69526">
        <ele>202.3</ele>
        <time>2019-12-04T13:17:59.000Z</time>
      </trkpt>
      <trkpt lat="43.84212" lon="1.69522">
        <ele>201.3</ele>
        <time>2019-12-04T13:23:14.000Z</time>
      </trkpt>
      <trkpt lat="43.84206" lon="1.69513">
        <ele>201.1</ele>
        <time>2019-12-04T13:23:23.000Z</time>
      </trkpt>
      <trkpt lat="43.842" lon="1.69501">
        <ele>200.9</ele>
        <time>2019-12-04T13:23:32.000Z</time>
      </trkpt>
      <trkpt lat="43.84196" lon="1.6949">
        <ele>200.5</ele>
        <time>2019-12-04T13:23:41.000Z</time>
      </trkpt>
      <trkpt lat="43.8419" lon="1.69479">
        <ele>200.1</ele>
        <time>2019-12-04T13:23:50.000Z</time>
      </trkpt>
      <trkpt lat="43.84184" lon="1.69469">
        <ele>199.7</ele>
        <time>2019-12-04T13:23:57.000Z</time>
      </trkpt>
      <trkpt lat="43.84177" lon="1.69461">
        <ele>199.2</ele>
        <time>2019-12-04T13:24:4.000Z</time>
      </trkpt>
      <trkpt lat="43.84171" lon="1.69451">
        <ele>198.8</ele>
        <time>2019-12-04T13:24:12.000Z</time>
      </trkpt>
      <trkpt lat="43.84163" lon="1.69442">
        <ele>198.6</ele>
        <time>2019-12-04T13:24:19.000Z</time>
      </trkpt>
      <trkpt lat="43.84156" lon="1.69433">
        <ele>198.3</ele>
        <time>2019-12-04T13:24:27.000Z</time>
      </trkpt>
      <trkpt lat="43.8415" lon="1.69423">
        <ele>198.1</ele>
        <time>2019-12-04T13:24:35.000Z</time>
      </trkpt>
      <trkpt lat="43.84142" lon="1.69414">
        <ele>197.9</ele>
        <time>2019-12-04T13:24:43.000Z</time>
      </trkpt>
      <trkpt lat="43.84136" lon="1.69405">
        <ele>197.8</ele>
        <time>2019-12-04T13:24:52.000Z</time>
      </trkpt>
      <trkpt lat="43.84129" lon="1.69394">
        <ele>197.8</ele>
        <time>2019-12-04T13:25:1.000Z</time>
      </trkpt>
      <trkpt lat="43.84122" lon="1.69384">
        <ele>197.7</ele>
        <time>2019-12-04T13:25:10.000Z</time>
      </trkpt>
      <trkpt lat="43.84116" lon="1.69375">
        <ele>197.7</ele>
        <time>2019-12-04T13:25:18.000Z</time>
      </trkpt>
      <trkpt lat="43.8411" lon="1.69365">
        <ele>197.8</ele>
        <time>2019-12-04T13:25:27.000Z</time>
      </trkpt>
      <trkpt lat="43.84102" lon="1.69355">
        <ele>198.1</ele>
        <time>2019-12-04T13:25:35.000Z</time>
      </trkpt>
      <trkpt lat="43.84096" lon="1.69346">
        <ele>198.6</ele>
        <time>2019-12-04T13:25:42.000Z</time>
      </trkpt>
      <trkpt lat="43.84089" lon="1.69337">
        <ele>199.2</ele>
        <time>2019-12-04T13:25:50.000Z</time>
      </trkpt>
      <trkpt lat="43.84081" lon="1.69328">
        <ele>200</ele>
        <time>2019-12-04T13:25:58.000Z</time>
      </trkpt>
      <trkpt lat="43.84074" lon="1.6932">
        <ele>200.7</ele>
        <time>2019-12-04T13:26:5.000Z</time>
      </trkpt>
      <trkpt lat="43.84067" lon="1.69312">
        <ele>201.4</ele>
        <time>2019-12-04T13:26:12.000Z</time>
      </trkpt>
      <trkpt lat="43.84059" lon="1.69304">
        <ele>202.3</ele>
        <time>2019-12-04T13:26:20.000Z</time>
      </trkpt>
      <trkpt lat="43.84051" lon="1.69298">
        <ele>203.1</ele>
        <time>2019-12-04T13:26:28.000Z</time>
      </trkpt>
      <trkpt lat="43.84044" lon="1.69289">
        <ele>203.8</ele>
        <time>2019-12-04T13:26:36.000Z</time>
      </trkpt>
      <trkpt lat="43.84036" lon="1.69281">
        <ele>204.4</ele>
        <time>2019-12-04T13:26:44.000Z</time>
      </trkpt>
      <trkpt lat="43.84028" lon="1.69275">
        <ele>204.9</ele>
        <time>2019-12-04T13:26:51.000Z</time>
      </trkpt>
      <trkpt lat="43.8402" lon="1.69266">
        <ele>205.3</ele>
        <time>2019-12-04T13:26:59.000Z</time>
      </trkpt>
      <trkpt lat="43.84013" lon="1.69258">
        <ele>205.6</ele>
        <time>2019-12-04T13:27:7.000Z</time>
      </trkpt>
      <trkpt lat="43.84005" lon="1.69251">
        <ele>205.7</ele>
        <time>2019-12-04T13:27:14.000Z</time>
      </trkpt>
      <trkpt lat="43.83997" lon="1.69244">
        <ele>205.9</ele>
        <time>2019-12-04T13:27:21.000Z</time>
      </trkpt>
      <trkpt lat="43.83989" lon="1.69237">
        <ele>206</ele>
        <time>2019-12-04T13:27:28.000Z</time>
      </trkpt>
      <trkpt lat="43.8398" lon="1.69232">
        <ele>206.1</ele>
        <time>2019-12-04T13:27:34.000Z</time>
      </trkpt>
      <trkpt lat="43.83972" lon="1.69226">
        <ele>206.1</ele>
        <time>2019-12-04T13:27:41.000Z</time>
      </trkpt>
      <trkpt lat="43.83962" lon="1.69222">
        <ele>206.4</ele>
        <time>2019-12-04T13:27:48.000Z</time>
      </trkpt>
      <trkpt lat="43.83954" lon="1.69218">
        <ele>206.7</ele>
        <time>2019-12-04T13:27:54.000Z</time>
      </trkpt>
      <trkpt lat="43.83944" lon="1.69214">
        <ele>207.2</ele>
        <time>2019-12-04T13:28:1.000Z</time>
      </trkpt>
      <trkpt lat="43.83935" lon="1.6921">
        <ele>207.5</ele>
        <time>2019-12-04T13:28:8.000Z</time>
      </trkpt>
      <trkpt lat="43.83926" lon="1.69206">
        <ele>208</ele>
        <time>2019-12-04T13:28:15.000Z</time>
      </trkpt>
      <trkpt lat="43.83919" lon="1.69198">
        <ele>208.7</ele>
        <time>2019-12-04T13:28:24.000Z</time>
      </trkpt>
      <trkpt lat="43.83909" lon="1.69192">
        <ele>209.4</ele>
        <time>2019-12-04T13:28:33.000Z</time>
      </trkpt>
      <trkpt lat="43.839" lon="1.69186">
        <ele>210.3</ele>
        <time>2019-12-04T13:28:41.000Z</time>
      </trkpt>
      <trkpt lat="43.83892" lon="1.69179">
        <ele>211.2</ele>
        <time>2019-12-04T13:28:49.000Z</time>
      </trkpt>
      <trkpt lat="43.83884" lon="1.69172">
        <ele>212</ele>
        <time>2019-12-04T13:28:57.000Z</time>
      </trkpt>
      <trkpt lat="43.83875" lon="1.69168">
        <ele>213</ele>
        <time>2019-12-04T13:29:7.000Z</time>
      </trkpt>
      <trkpt lat="43.83869" lon="1.69178">
        <ele>213.6</ele>
        <time>2019-12-04T13:29:19.000Z</time>
      </trkpt>
      <trkpt lat="43.83863" lon="1.69189">
        <ele>213.4</ele>
        <time>2019-12-04T13:29:28.000Z</time>
      </trkpt>
      <trkpt lat="43.83862" lon="1.69202">
        <ele>212.9</ele>
        <time>2019-12-04T13:29:37.000Z</time>
      </trkpt>
      <trkpt lat="43.83861" lon="1.69214">
        <ele>212.4</ele>
        <time>2019-12-04T13:29:46.000Z</time>
      </trkpt>
      <trkpt lat="43.83859" lon="1.69228">
        <ele>211.3</ele>
        <time>2019-12-04T13:29:55.000Z</time>
      </trkpt>
      <trkpt lat="43.83855" lon="1.6924">
        <ele>209.8</ele>
        <time>2019-12-04T13:30:3.000Z</time>
      </trkpt>
      <trkpt lat="43.83853" lon="1.69253">
        <ele>208.2</ele>
        <time>2019-12-04T13:30:11.000Z</time>
      </trkpt>
      <trkpt lat="43.8385" lon="1.69265">
        <ele>206.6</ele>
        <time>2019-12-04T13:30:20.000Z</time>
      </trkpt>
      <trkpt lat="43.83845" lon="1.69276">
        <ele>205.3</ele>
        <time>2019-12-04T13:30:28.000Z</time>
      </trkpt>
      <trkpt lat="43.83841" lon="1.69289">
        <ele>203.6</ele>
        <time>2019-12-04T13:30:37.000Z</time>
      </trkpt>
      <trkpt lat="43.8384" lon="1.69303">
        <ele>202</ele>
        <time>2019-12-04T13:30:46.000Z</time>
      </trkpt>
      <trkpt lat="43.83838" lon="1.69315">
        <ele>200.6</ele>
        <time>2019-12-04T13:30:54.000Z</time>
      </trkpt>
      <trkpt lat="43.83836" lon="1.69328">
        <ele>198.9</ele>
        <time>2019-12-04T13:31:3.000Z</time>
      </trkpt>
      <trkpt lat="43.83832" lon="1.6934">
        <ele>197.8</ele>
        <time>2019-12-04T13:31:11.000Z</time>
      </trkpt>
      <trkpt lat="43.8383" lon="1.69353">
        <ele>196.7</ele>
        <time>2019-12-04T13:31:20.000Z</time>
      </trkpt>
      <trkpt lat="43.83827" lon="1.69365">
        <ele>195</ele>
        <time>2019-12-04T13:31:29.000Z</time>
      </trkpt>
      <trkpt lat="43.83824" lon="1.69377">
        <ele>193.7</ele>
        <time>2019-12-04T13:31:36.000Z</time>
      </trkpt>
      <trkpt lat="43.83819" lon="1.69389">
        <ele>191.9</ele>
        <time>2019-12-04T13:31:46.000Z</time>
      </trkpt>
      <trkpt lat="43.83815" lon="1.694">
        <ele>190.7</ele>
        <time>2019-12-04T13:31:54.000Z</time>
      </trkpt>
      <trkpt lat="43.83812" lon="1.69413">
        <ele>189.5</ele>
        <time>2019-12-04T13:32:1.000Z</time>
      </trkpt>
      <trkpt lat="43.83808" lon="1.69426">
        <ele>188.1</ele>
        <time>2019-12-04T13:32:8.000Z</time>
      </trkpt>
      <trkpt lat="43.83804" lon="1.69438">
        <ele>186.5</ele>
        <time>2019-12-04T13:32:15.000Z</time>
      </trkpt>
      <trkpt lat="43.83801" lon="1.6945">
        <ele>184.6</ele>
        <time>2019-12-04T13:32:25.000Z</time>
      </trkpt>
      <trkpt lat="43.83798" lon="1.69462">
        <ele>183.1</ele>
        <time>2019-12-04T13:32:36.000Z</time>
      </trkpt>
      <trkpt lat="43.83796" lon="1.69476">
        <ele>182.1</ele>
        <time>2019-12-04T13:32:44.000Z</time>
      </trkpt>
      <trkpt lat="43.83791" lon="1.69487">
        <ele>181</ele>
        <time>2019-12-04T13:32:51.000Z</time>
      </trkpt>
      <trkpt lat="43.83785" lon="1.69498">
        <ele>180.1</ele>
        <time>2019-12-04T13:32:59.000Z</time>
      </trkpt>
      <trkpt lat="43.83777" lon="1.69506">
        <ele>179.6</ele>
        <time>2019-12-04T13:33:6.000Z</time>
      </trkpt>
      <trkpt lat="43.8377" lon="1.69517">
        <ele>179.2</ele>
        <time>2019-12-04T13:33:12.000Z</time>
      </trkpt>
      <trkpt lat="43.83766" lon="1.69529">
        <ele>178.5</ele>
        <time>2019-12-04T13:33:19.000Z</time>
      </trkpt>
      <trkpt lat="43.83761" lon="1.6954">
        <ele>177.8</ele>
        <time>2019-12-04T13:33:27.000Z</time>
      </trkpt>
      <trkpt lat="43.83762" lon="1.69552">
        <ele>177.4</ele>
        <time>2019-12-04T13:33:34.000Z</time>
      </trkpt>
      <trkpt lat="43.83764" lon="1.69565">
        <ele>177.1</ele>
        <time>2019-12-04T13:33:39.000Z</time>
      </trkpt>
      <trkpt lat="43.83768" lon="1.69579">
        <ele>176.8</ele>
        <time>2019-12-04T13:33:44.000Z</time>
      </trkpt>
      <trkpt lat="43.83764" lon="1.6959">
        <ele>176.3</ele>
        <time>2019-12-04T13:33:53.000Z</time>
      </trkpt>
      <trkpt lat="43.83758" lon="1.696">
        <ele>175.9</ele>
        <time>2019-12-04T13:34:1.000Z</time>
      </trkpt>
      <trkpt lat="43.83753" lon="1.69612">
        <ele>175.3</ele>
        <time>2019-12-04T13:34:10.000Z</time>
      </trkpt>
      <trkpt lat="43.83752" lon="1.69625">
        <ele>174.8</ele>
        <time>2019-12-04T13:34:15.000Z</time>
      </trkpt>
      <trkpt lat="43.83747" lon="1.69636">
        <ele>174</ele>
        <time>2019-12-04T13:34:22.000Z</time>
      </trkpt>
      <trkpt lat="43.83743" lon="1.69648">
        <ele>173.2</ele>
        <time>2019-12-04T13:34:31.000Z</time>
      </trkpt>
      <trkpt lat="43.83738" lon="1.6966">
        <ele>172.4</ele>
        <time>2019-12-04T13:34:41.000Z</time>
      </trkpt>
      <trkpt lat="43.83736" lon="1.69673">
        <ele>171.8</ele>
        <time>2019-12-04T13:34:51.000Z</time>
      </trkpt>
      <trkpt lat="43.83731" lon="1.69684">
        <ele>170.9</ele>
        <time>2019-12-04T13:35:7.000Z</time>
      </trkpt>
      <trkpt lat="43.83724" lon="1.69694">
        <ele>170.5</ele>
        <time>2019-12-04T13:35:15.000Z</time>
      </trkpt>
      <trkpt lat="43.83719" lon="1.69704">
        <ele>170.2</ele>
        <time>2019-12-04T13:35:22.000Z</time>
      </trkpt>
      <trkpt lat="43.83711" lon="1.69713">
        <ele>170</ele>
        <time>2019-12-04T13:35:27.000Z</time>
      </trkpt>
      <trkpt lat="43.83706" lon="1.69725">
        <ele>169.7</ele>
        <time>2019-12-04T13:35:36.000Z</time>
      </trkpt>
      <trkpt lat="43.83701" lon="1.69735">
        <ele>169.5</ele>
        <time>2019-12-04T13:35:44.000Z</time>
      </trkpt>
      <trkpt lat="43.83693" lon="1.69743">
        <ele>169.4</ele>
        <time>2019-12-04T13:35:54.000Z</time>
      </trkpt>
      <trkpt lat="43.83684" lon="1.69742">
        <ele>169.1</ele>
        <time>2019-12-04T13:37:48.000Z</time>
      </trkpt>
      <trkpt lat="43.83679" lon="1.69753">
        <ele>169.4</ele>
        <time>2019-12-04T13:37:56.000Z</time>
      </trkpt>
      <trkpt lat="43.83674" lon="1.69764">
        <ele>168.9</ele>
        <time>2019-12-04T13:38:8.000Z</time>
      </trkpt>
      <trkpt lat="43.83668" lon="1.69774">
        <ele>168.7</ele>
        <time>2019-12-04T13:38:19.000Z</time>
      </trkpt>
      <trkpt lat="43.83662" lon="1.69784">
        <ele>168.8</ele>
        <time>2019-12-04T13:38:33.000Z</time>
      </trkpt>
      <trkpt lat="43.83653" lon="1.69785">
        <ele>169.1</ele>
        <time>2019-12-04T13:38:44.000Z</time>
      </trkpt>
      <trkpt lat="43.83643" lon="1.69787">
        <ele>169.4</ele>
        <time>2019-12-04T13:38:52.000Z</time>
      </trkpt>
      <trkpt lat="43.83633" lon="1.69789">
        <ele>169.6</ele>
        <time>2019-12-04T13:38:58.000Z</time>
      </trkpt>
      <trkpt lat="43.83624" lon="1.69791">
        <ele>169.9</ele>
        <time>2019-12-04T13:39:6.000Z</time>
      </trkpt>
      <trkpt lat="43.83614" lon="1.69792">
        <ele>170</ele>
        <time>2019-12-04T13:39:12.000Z</time>
      </trkpt>
      <trkpt lat="43.83603" lon="1.69795">
        <ele>170.3</ele>
        <time>2019-12-04T13:39:19.000Z</time>
      </trkpt>
      <trkpt lat="43.83594" lon="1.69798">
        <ele>170.4</ele>
        <time>2019-12-04T13:39:25.000Z</time>
      </trkpt>
      <trkpt lat="43.83584" lon="1.69803">
        <ele>170.6</ele>
        <time>2019-12-04T13:39:30.000Z</time>
      </trkpt>
      <trkpt lat="43.83574" lon="1.69807">
        <ele>170.9</ele>
        <time>2019-12-04T13:39:38.000Z</time>
      </trkpt>
      <trkpt lat="43.83566" lon="1.69813">
        <ele>171.2</ele>
        <time>2019-12-04T13:39:48.000Z</time>
      </trkpt>
      <trkpt lat="43.83557" lon="1.69818">
        <ele>171.4</ele>
        <time>2019-12-04T13:39:57.000Z</time>
      </trkpt>
      <trkpt lat="43.83547" lon="1.69821">
        <ele>171.6</ele>
        <time>2019-12-04T13:40:9.000Z</time>
      </trkpt>
      <trkpt lat="43.83538" lon="1.69828">
        <ele>171.7</ele>
        <time>2019-12-04T13:40:17.000Z</time>
      </trkpt>
      <trkpt lat="43.83527" lon="1.6983">
        <ele>171.9</ele>
        <time>2019-12-04T13:40:24.000Z</time>
      </trkpt>
      <trkpt lat="43.83518" lon="1.69832">
        <ele>172</ele>
        <time>2019-12-04T13:40:31.000Z</time>
      </trkpt>
      <trkpt lat="43.83509" lon="1.69839">
        <ele>172.1</ele>
        <time>2019-12-04T13:40:36.000Z</time>
      </trkpt>
      <trkpt lat="43.835" lon="1.69842">
        <ele>172.2</ele>
        <time>2019-12-04T13:40:42.000Z</time>
      </trkpt>
      <trkpt lat="43.8349" lon="1.69846">
        <ele>172.3</ele>
        <time>2019-12-04T13:40:52.000Z</time>
      </trkpt>
      <trkpt lat="43.83482" lon="1.69851">
        <ele>172.4</ele>
        <time>2019-12-04T13:41:3.000Z</time>
      </trkpt>
      <trkpt lat="43.83472" lon="1.69853">
        <ele>172.5</ele>
        <time>2019-12-04T13:41:11.000Z</time>
      </trkpt>
      <trkpt lat="43.83463" lon="1.69855">
        <ele>172.6</ele>
        <time>2019-12-04T13:41:19.000Z</time>
      </trkpt>
      <trkpt lat="43.83454" lon="1.69859">
        <ele>172.8</ele>
        <time>2019-12-04T13:41:28.000Z</time>
      </trkpt>
      <trkpt lat="43.83445" lon="1.69861">
        <ele>173</ele>
        <time>2019-12-04T13:41:37.000Z</time>
      </trkpt>
      <trkpt lat="43.83435" lon="1.69863">
        <ele>173.1</ele>
        <time>2019-12-04T13:41:45.000Z</time>
      </trkpt>
      <trkpt lat="43.83426" lon="1.69866">
        <ele>173.2</ele>
        <time>2019-12-04T13:41:52.000Z</time>
      </trkpt>
      <trkpt lat="43.83417" lon="1.69869">
        <ele>173.3</ele>
        <time>2019-12-04T13:42:0.000Z</time>
      </trkpt>
      <trkpt lat="43.83407" lon="1.69871">
        <ele>173.4</ele>
        <time>2019-12-04T13:42:7.000Z</time>
      </trkpt>
      <trkpt lat="43.83398" lon="1.69876">
        <ele>173.5</ele>
        <time>2019-12-04T13:42:16.000Z</time>
      </trkpt>
      <trkpt lat="43.83389" lon="1.6988">
        <ele>173.6</ele>
        <time>2019-12-04T13:42:24.000Z</time>
      </trkpt>
      <trkpt lat="43.83379" lon="1.69883">
        <ele>173.7</ele>
        <time>2019-12-04T13:42:30.000Z</time>
      </trkpt>
      <trkpt lat="43.83369" lon="1.69883">
        <ele>173.9</ele>
        <time>2019-12-04T13:42:36.000Z</time>
      </trkpt>
      <trkpt lat="43.83359" lon="1.69886">
        <ele>174.2</ele>
        <time>2019-12-04T13:42:43.000Z</time>
      </trkpt>
      <trkpt lat="43.8335" lon="1.69888">
        <ele>174.4</ele>
        <time>2019-12-04T13:42:49.000Z</time>
      </trkpt>
      <trkpt lat="43.8334" lon="1.69891">
        <ele>174.5</ele>
        <time>2019-12-04T13:42:58.000Z</time>
      </trkpt>
      <trkpt lat="43.83332" lon="1.69896">
        <ele>174.6</ele>
        <time>2019-12-04T13:43:7.000Z</time>
      </trkpt>
      <trkpt lat="43.83323" lon="1.69901">
        <ele>174.7</ele>
        <time>2019-12-04T13:43:15.000Z</time>
      </trkpt>
      <trkpt lat="43.83314" lon="1.69905">
        <ele>174.7</ele>
        <time>2019-12-04T13:43:24.000Z</time>
      </trkpt>
      <trkpt lat="43.83305" lon="1.6991">
        <ele>174.7</ele>
        <time>2019-12-04T13:43:31.000Z</time>
      </trkpt>
      <trkpt lat="43.83296" lon="1.69917">
        <ele>174.7</ele>
        <time>2019-12-04T13:43:39.000Z</time>
      </trkpt>
      <trkpt lat="43.83286" lon="1.69919">
        <ele>174.5</ele>
        <time>2019-12-04T13:43:45.000Z</time>
      </trkpt>
      <trkpt lat="43.83277" lon="1.69926">
        <ele>174.3</ele>
        <time>2019-12-04T13:43:55.000Z</time>
      </trkpt>
      <trkpt lat="43.83269" lon="1.69932">
        <ele>174.3</ele>
        <time>2019-12-04T13:44:3.000Z</time>
      </trkpt>
      <trkpt lat="43.83263" lon="1.69945">
        <ele>174.4</ele>
        <time>2019-12-04T13:44:10.000Z</time>
      </trkpt>
      <trkpt lat="43.83255" lon="1.69955">
        <ele>174.4</ele>
        <time>2019-12-04T13:44:16.000Z</time>
      </trkpt>
      <trkpt lat="43.8325" lon="1.69965">
        <ele>174.5</ele>
        <time>2019-12-04T13:44:24.000Z</time>
      </trkpt>
      <trkpt lat="43.83243" lon="1.69974">
        <ele>174.6</ele>
        <time>2019-12-04T13:44:31.000Z</time>
      </trkpt>
      <trkpt lat="43.83238" lon="1.69984">
        <ele>174.7</ele>
        <time>2019-12-04T13:44:38.000Z</time>
      </trkpt>
      <trkpt lat="43.83233" lon="1.69997">
        <ele>175</ele>
        <time>2019-12-04T13:44:47.000Z</time>
      </trkpt>
      <trkpt lat="43.83228" lon="1.70008">
        <ele>175.2</ele>
        <time>2019-12-04T13:44:54.000Z</time>
      </trkpt>
      <trkpt lat="43.83224" lon="1.7002">
        <ele>175.3</ele>
        <time>2019-12-04T13:45:2.000Z</time>
      </trkpt>
      <trkpt lat="43.83216" lon="1.7003">
        <ele>175.4</ele>
        <time>2019-12-04T13:45:9.000Z</time>
      </trkpt>
      <trkpt lat="43.83209" lon="1.70038">
        <ele>175.5</ele>
        <time>2019-12-04T13:45:17.000Z</time>
      </trkpt>
      <trkpt lat="43.83205" lon="1.7005">
        <ele>175.6</ele>
        <time>2019-12-04T13:45:26.000Z</time>
      </trkpt>
      <trkpt lat="43.832" lon="1.70063">
        <ele>175.6</ele>
        <time>2019-12-04T13:45:33.000Z</time>
      </trkpt>
      <trkpt lat="43.83194" lon="1.70072">
        <ele>175.6</ele>
        <time>2019-12-04T13:45:41.000Z</time>
      </trkpt>
      <trkpt lat="43.83186" lon="1.70078">
        <ele>175.4</ele>
        <time>2019-12-04T13:45:53.000Z</time>
      </trkpt>
      <trkpt lat="43.83191" lon="1.70089">
        <ele>177.5</ele>
        <time>2019-12-04T13:52:28.000Z</time>
      </trkpt>
      <trkpt lat="43.83181" lon="1.70087">
        <ele>177.7</ele>
        <time>2019-12-04T13:52:41.000Z</time>
      </trkpt>
      <trkpt lat="43.83173" lon="1.70081">
        <ele>177.8</ele>
        <time>2019-12-04T13:52:53.000Z</time>
      </trkpt>
      <trkpt lat="43.83164" lon="1.70075">
        <ele>177.9</ele>
        <time>2019-12-04T13:53:3.000Z</time>
      </trkpt>
      <trkpt lat="43.83157" lon="1.70067">
        <ele>178.2</ele>
        <time>2019-12-04T13:53:13.000Z</time>
      </trkpt>
      <trkpt lat="43.83148" lon="1.70065">
        <ele>178.7</ele>
        <time>2019-12-04T13:53:20.000Z</time>
      </trkpt>
      <trkpt lat="43.83139" lon="1.7007">
        <ele>179.1</ele>
        <time>2019-12-04T13:53:26.000Z</time>
      </trkpt>
      <trkpt lat="43.83131" lon="1.70078">
        <ele>179.9</ele>
        <time>2019-12-04T13:53:36.000Z</time>
      </trkpt>
      <trkpt lat="43.83124" lon="1.70087">
        <ele>181</ele>
        <time>2019-12-04T13:53:47.000Z</time>
      </trkpt>
      <trkpt lat="43.83118" lon="1.70098">
        <ele>181.8</ele>
        <time>2019-12-04T13:53:56.000Z</time>
      </trkpt>
      <trkpt lat="43.83114" lon="1.7011">
        <ele>182.8</ele>
        <time>2019-12-04T13:54:6.000Z</time>
      </trkpt>
      <trkpt lat="43.83112" lon="1.70123">
        <ele>184</ele>
        <time>2019-12-04T13:54:17.000Z</time>
      </trkpt>
      <trkpt lat="43.83109" lon="1.70137">
        <ele>184.8</ele>
        <time>2019-12-04T13:54:25.000Z</time>
      </trkpt>
      <trkpt lat="43.83107" lon="1.7015">
        <ele>185.8</ele>
        <time>2019-12-04T13:54:35.000Z</time>
      </trkpt>
      <trkpt lat="43.83104" lon="1.70163">
        <ele>186.8</ele>
        <time>2019-12-04T13:54:45.000Z</time>
      </trkpt>
      <trkpt lat="43.831" lon="1.70175">
        <ele>187.7</ele>
        <time>2019-12-04T13:54:54.000Z</time>
      </trkpt>
      <trkpt lat="43.83099" lon="1.70189">
        <ele>188.3</ele>
        <time>2019-12-04T13:55:2.000Z</time>
      </trkpt>
      <trkpt lat="43.83096" lon="1.70202">
        <ele>188.8</ele>
        <time>2019-12-04T13:55:10.000Z</time>
      </trkpt>
      <trkpt lat="43.83094" lon="1.70214">
        <ele>189.2</ele>
        <time>2019-12-04T13:55:18.000Z</time>
      </trkpt>
      <trkpt lat="43.83091" lon="1.70227">
        <ele>189.6</ele>
        <time>2019-12-04T13:55:26.000Z</time>
      </trkpt>
      <trkpt lat="43.83086" lon="1.70238">
        <ele>190</ele>
        <time>2019-12-04T13:55:34.000Z</time>
      </trkpt>
      <trkpt lat="43.8308" lon="1.70248">
        <ele>190.5</ele>
        <time>2019-12-04T13:55:43.000Z</time>
      </trkpt>
      <trkpt lat="43.83075" lon="1.7026">
        <ele>190.8</ele>
        <time>2019-12-04T13:55:52.000Z</time>
      </trkpt>
      <trkpt lat="43.83071" lon="1.70271">
        <ele>191.2</ele>
        <time>2019-12-04T13:56:0.000Z</time>
      </trkpt>
      <trkpt lat="43.83066" lon="1.70283">
        <ele>191.8</ele>
        <time>2019-12-04T13:56:10.000Z</time>
      </trkpt>
      <trkpt lat="43.83059" lon="1.70293">
        <ele>192.5</ele>
        <time>2019-12-04T13:56:20.000Z</time>
      </trkpt>
      <trkpt lat="43.83055" lon="1.70305">
        <ele>192.9</ele>
        <time>2019-12-04T13:56:28.000Z</time>
      </trkpt>
      <trkpt lat="43.83049" lon="1.70316">
        <ele>193.4</ele>
        <time>2019-12-04T13:56:38.000Z</time>
      </trkpt>
      <trkpt lat="43.83045" lon="1.70328">
        <ele>193.7</ele>
        <time>2019-12-04T13:56:48.000Z</time>
      </trkpt>
      <trkpt lat="43.83041" lon="1.7034">
        <ele>193.9</ele>
        <time>2019-12-04T13:56:57.000Z</time>
      </trkpt>
      <trkpt lat="43.83038" lon="1.70352">
        <ele>194.4</ele>
        <time>2019-12-04T13:57:7.000Z</time>
      </trkpt>
      <trkpt lat="43.83033" lon="1.70363">
        <ele>194.7</ele>
        <time>2019-12-04T13:57:16.000Z</time>
      </trkpt>
      <trkpt lat="43.83033" lon="1.70376">
        <ele>195</ele>
        <time>2019-12-04T13:57:24.000Z</time>
      </trkpt>
      <trkpt lat="43.83032" lon="1.70389">
        <ele>195.5</ele>
        <time>2019-12-04T13:57:31.000Z</time>
      </trkpt>
      <trkpt lat="43.83026" lon="1.704">
        <ele>195.9</ele>
        <time>2019-12-04T13:57:40.000Z</time>
      </trkpt>
      <trkpt lat="43.83024" lon="1.70414">
        <ele>196.4</ele>
        <time>2019-12-04T13:57:49.000Z</time>
      </trkpt>
      <trkpt lat="43.83019" lon="1.70426">
        <ele>196.9</ele>
        <time>2019-12-04T13:57:58.000Z</time>
      </trkpt>
      <trkpt lat="43.83017" lon="1.70438">
        <ele>197.3</ele>
        <time>2019-12-04T13:58:9.000Z</time>
      </trkpt>
      <trkpt lat="43.83015" lon="1.70451">
        <ele>197.7</ele>
        <time>2019-12-04T13:58:16.000Z</time>
      </trkpt>
      <trkpt lat="43.83012" lon="1.70463">
        <ele>198.1</ele>
        <time>2019-12-04T13:58:23.000Z</time>
      </trkpt>
      <trkpt lat="43.8301" lon="1.70475">
        <ele>198.8</ele>
        <time>2019-12-04T13:58:32.000Z</time>
      </trkpt>
      <trkpt lat="43.83007" lon="1.70487">
        <ele>199.1</ele>
        <time>2019-12-04T13:58:39.000Z</time>
      </trkpt>
      <trkpt lat="43.83002" lon="1.70498">
        <ele>199.5</ele>
        <time>2019-12-04T13:58:48.000Z</time>
      </trkpt>
      <trkpt lat="43.82997" lon="1.70509">
        <ele>199.7</ele>
        <time>2019-12-04T13:58:55.000Z</time>
      </trkpt>
      <trkpt lat="43.82996" lon="1.70522">
        <ele>199.9</ele>
        <time>2019-12-04T13:59:2.000Z</time>
      </trkpt>
      <trkpt lat="43.82993" lon="1.70536">
        <ele>200</ele>
        <time>2019-12-04T13:59:10.000Z</time>
      </trkpt>
      <trkpt lat="43.8299" lon="1.70548">
        <ele>200.3</ele>
        <time>2019-12-04T13:59:17.000Z</time>
      </trkpt>
      <trkpt lat="43.82987" lon="1.70561">
        <ele>200.5</ele>
        <time>2019-12-04T13:59:24.000Z</time>
      </trkpt>
      <trkpt lat="43.82985" lon="1.70573">
        <ele>200.7</ele>
        <time>2019-12-04T13:59:31.000Z</time>
      </trkpt>
      <trkpt lat="43.82982" lon="1.70586">
        <ele>200.9</ele>
        <time>2019-12-04T13:59:38.000Z</time>
      </trkpt>
      <trkpt lat="43.82979" lon="1.70598">
        <ele>201</ele>
        <time>2019-12-04T13:59:46.000Z</time>
      </trkpt>
      <trkpt lat="43.82976" lon="1.7061">
        <ele>201.3</ele>
        <time>2019-12-04T13:59:54.000Z</time>
      </trkpt>
      <trkpt lat="43.82972" lon="1.70622">
        <ele>201.5</ele>
        <time>2019-12-04T14:00:1.000Z</time>
      </trkpt>
      <trkpt lat="43.82967" lon="1.70634">
        <ele>201.8</ele>
        <time>2019-12-04T14:00:8.000Z</time>
      </trkpt>
      <trkpt lat="43.82962" lon="1.70644">
        <ele>202</ele>
        <time>2019-12-04T14:00:15.000Z</time>
      </trkpt>
      <trkpt lat="43.82957" lon="1.70655">
        <ele>202.3</ele>
        <time>2019-12-04T14:00:22.000Z</time>
      </trkpt>
      <trkpt lat="43.82952" lon="1.70666">
        <ele>202.7</ele>
        <time>2019-12-04T14:00:29.000Z</time>
      </trkpt>
      <trkpt lat="43.82948" lon="1.70677">
        <ele>203.1</ele>
        <time>2019-12-04T14:00:36.000Z</time>
      </trkpt>
      <trkpt lat="43.82943" lon="1.70688">
        <ele>203.7</ele>
        <time>2019-12-04T14:00:44.000Z</time>
      </trkpt>
      <trkpt lat="43.82936" lon="1.70698">
        <ele>204.1</ele>
        <time>2019-12-04T14:00:51.000Z</time>
      </trkpt>
      <trkpt lat="43.82931" lon="1.70708">
        <ele>204.3</ele>
        <time>2019-12-04T14:00:58.000Z</time>
      </trkpt>
      <trkpt lat="43.82926" lon="1.70719">
        <ele>204.7</ele>
        <time>2019-12-04T14:01:6.000Z</time>
      </trkpt>
      <trkpt lat="43.82921" lon="1.7073">
        <ele>204.9</ele>
        <time>2019-12-04T14:01:13.000Z</time>
      </trkpt>
      <trkpt lat="43.82915" lon="1.70741">
        <ele>205.1</ele>
        <time>2019-12-04T14:01:21.000Z</time>
      </trkpt>
      <trkpt lat="43.8291" lon="1.70753">
        <ele>205.2</ele>
        <time>2019-12-04T14:01:29.000Z</time>
      </trkpt>
      <trkpt lat="43.82906" lon="1.70766">
        <ele>205.3</ele>
        <time>2019-12-04T14:01:37.000Z</time>
      </trkpt>
      <trkpt lat="43.82901" lon="1.70779">
        <ele>205</ele>
        <time>2019-12-04T14:01:44.000Z</time>
      </trkpt>
      <trkpt lat="43.82898" lon="1.70791">
        <ele>204.6</ele>
        <time>2019-12-04T14:01:50.000Z</time>
      </trkpt>
      <trkpt lat="43.82894" lon="1.70804">
        <ele>203.9</ele>
        <time>2019-12-04T14:01:59.000Z</time>
      </trkpt>
      <trkpt lat="43.82889" lon="1.70815">
        <ele>203.3</ele>
        <time>2019-12-04T14:02:7.000Z</time>
      </trkpt>
      <trkpt lat="43.82885" lon="1.70827">
        <ele>202.7</ele>
        <time>2019-12-04T14:02:15.000Z</time>
      </trkpt>
      <trkpt lat="43.82884" lon="1.7084">
        <ele>201.9</ele>
        <time>2019-12-04T14:02:22.000Z</time>
      </trkpt>
      <trkpt lat="43.82881" lon="1.70853">
        <ele>201</ele>
        <time>2019-12-04T14:02:29.000Z</time>
      </trkpt>
      <trkpt lat="43.82877" lon="1.70865">
        <ele>200.3</ele>
        <time>2019-12-04T14:02:37.000Z</time>
      </trkpt>
      <trkpt lat="43.82871" lon="1.70874">
        <ele>199.5</ele>
        <time>2019-12-04T14:02:44.000Z</time>
      </trkpt>
      <trkpt lat="43.82865" lon="1.70884">
        <ele>198.8</ele>
        <time>2019-12-04T14:02:50.000Z</time>
      </trkpt>
      <trkpt lat="43.82858" lon="1.70896">
        <ele>198.1</ele>
        <time>2019-12-04T14:02:58.000Z</time>
      </trkpt>
      <trkpt lat="43.82851" lon="1.70903">
        <ele>197.4</ele>
        <time>2019-12-04T14:03:4.000Z</time>
      </trkpt>
      <trkpt lat="43.82845" lon="1.70913">
        <ele>196.6</ele>
        <time>2019-12-04T14:03:11.000Z</time>
      </trkpt>
      <trkpt lat="43.82837" lon="1.70921">
        <ele>195.8</ele>
        <time>2019-12-04T14:03:18.000Z</time>
      </trkpt>
      <trkpt lat="43.82831" lon="1.7093">
        <ele>195.1</ele>
        <time>2019-12-04T14:03:25.000Z</time>
      </trkpt>
      <trkpt lat="43.82823" lon="1.70939">
        <ele>194.3</ele>
        <time>2019-12-04T14:03:33.000Z</time>
      </trkpt>
      <trkpt lat="43.82815" lon="1.70946">
        <ele>193.5</ele>
        <time>2019-12-04T14:03:41.000Z</time>
      </trkpt>
      <trkpt lat="43.82809" lon="1.70957">
        <ele>192.4</ele>
        <time>2019-12-04T14:03:50.000Z</time>
      </trkpt>
      <trkpt lat="43.82801" lon="1.70962">
        <ele>191.7</ele>
        <time>2019-12-04T14:03:57.000Z</time>
      </trkpt>
      <trkpt lat="43.82792" lon="1.70969">
        <ele>190.9</ele>
        <time>2019-12-04T14:04:5.000Z</time>
      </trkpt>
      <trkpt lat="43.82784" lon="1.70975">
        <ele>190.4</ele>
        <time>2019-12-04T14:04:13.000Z</time>
      </trkpt>
      <trkpt lat="43.82775" lon="1.70981">
        <ele>189.7</ele>
        <time>2019-12-04T14:04:22.000Z</time>
      </trkpt>
      <trkpt lat="43.82767" lon="1.70986">
        <ele>189.2</ele>
        <time>2019-12-04T14:04:30.000Z</time>
      </trkpt>
      <trkpt lat="43.82758" lon="1.70991">
        <ele>188.4</ele>
        <time>2019-12-04T14:04:38.000Z</time>
      </trkpt>
      <trkpt lat="43.82749" lon="1.70995">
        <ele>187.5</ele>
        <time>2019-12-04T14:04:48.000Z</time>
      </trkpt>
      <trkpt lat="43.8274" lon="1.70999">
        <ele>186.7</ele>
        <time>2019-12-04T14:04:55.000Z</time>
      </trkpt>
      <trkpt lat="43.82732" lon="1.71004">
        <ele>186.2</ele>
        <time>2019-12-04T14:05:1.000Z</time>
      </trkpt>
      <trkpt lat="43.82723" lon="1.71008">
        <ele>185.2</ele>
        <time>2019-12-04T14:05:11.000Z</time>
      </trkpt>
      <trkpt lat="43.82714" lon="1.71012">
        <ele>184.6</ele>
        <time>2019-12-04T14:05:18.000Z</time>
      </trkpt>
      <trkpt lat="43.82705" lon="1.71017">
        <ele>184.2</ele>
        <time>2019-12-04T14:05:24.000Z</time>
      </trkpt>
      <trkpt lat="43.82695" lon="1.71022">
        <ele>183.9</ele>
        <time>2019-12-04T14:05:30.000Z</time>
      </trkpt>
      <trkpt lat="43.82687" lon="1.71028">
        <ele>183.6</ele>
        <time>2019-12-04T14:05:37.000Z</time>
      </trkpt>
      <trkpt lat="43.82678" lon="1.71035">
        <ele>183.2</ele>
        <time>2019-12-04T14:05:45.000Z</time>
      </trkpt>
      <trkpt lat="43.8267" lon="1.71042">
        <ele>182.9</ele>
        <time>2019-12-04T14:05:51.000Z</time>
      </trkpt>
      <trkpt lat="43.82665" lon="1.71054">
        <ele>182.4</ele>
        <time>2019-12-04T14:06:1.000Z</time>
      </trkpt>
      <trkpt lat="43.8267" lon="1.71065">
        <ele>182.1</ele>
        <time>2019-12-04T14:06:9.000Z</time>
      </trkpt>
      <trkpt lat="43.82662" lon="1.7107">
        <ele>181.8</ele>
        <time>2019-12-04T14:08:16.000Z</time>
      </trkpt>
      <trkpt lat="43.82657" lon="1.71081">
        <ele>181.5</ele>
        <time>2019-12-04T14:08:26.000Z</time>
      </trkpt>
      <trkpt lat="43.82651" lon="1.71091">
        <ele>181.1</ele>
        <time>2019-12-04T14:08:37.000Z</time>
      </trkpt>
      <trkpt lat="43.82643" lon="1.71098">
        <ele>180.7</ele>
        <time>2019-12-04T14:08:44.000Z</time>
      </trkpt>
      <trkpt lat="43.82637" lon="1.71109">
        <ele>179.9</ele>
        <time>2019-12-04T14:08:54.000Z</time>
      </trkpt>
      <trkpt lat="43.8263" lon="1.71119">
        <ele>179.2</ele>
        <time>2019-12-04T14:09:4.000Z</time>
      </trkpt>
      <trkpt lat="43.82623" lon="1.71128">
        <ele>178.4</ele>
        <time>2019-12-04T14:09:13.000Z</time>
      </trkpt>
      <trkpt lat="43.82616" lon="1.71137">
        <ele>177.4</ele>
        <time>2019-12-04T14:09:22.000Z</time>
      </trkpt>
      <trkpt lat="43.82607" lon="1.71142">
        <ele>176.5</ele>
        <time>2019-12-04T14:09:31.000Z</time>
      </trkpt>
      <trkpt lat="43.82598" lon="1.71147">
        <ele>175.9</ele>
        <time>2019-12-04T14:09:41.000Z</time>
      </trkpt>
      <trkpt lat="43.82588" lon="1.7115">
        <ele>175.3</ele>
        <time>2019-12-04T14:09:50.000Z</time>
      </trkpt>
      <trkpt lat="43.82579" lon="1.71151">
        <ele>174.6</ele>
        <time>2019-12-04T14:10:0.000Z</time>
      </trkpt>
      <trkpt lat="43.82569" lon="1.71153">
        <ele>174.1</ele>
        <time>2019-12-04T14:10:9.000Z</time>
      </trkpt>
      <trkpt lat="43.8256" lon="1.71156">
        <ele>173.3</ele>
        <time>2019-12-04T14:10:19.000Z</time>
      </trkpt>
      <trkpt lat="43.82551" lon="1.7116">
        <ele>172.7</ele>
        <time>2019-12-04T14:10:28.000Z</time>
      </trkpt>
      <trkpt lat="43.82542" lon="1.71165">
        <ele>172.3</ele>
        <time>2019-12-04T14:10:35.000Z</time>
      </trkpt>
      <trkpt lat="43.82533" lon="1.7117">
        <ele>172</ele>
        <time>2019-12-04T14:10:44.000Z</time>
      </trkpt>
      <trkpt lat="43.82525" lon="1.71174">
        <ele>171.6</ele>
        <time>2019-12-04T14:10:53.000Z</time>
      </trkpt>
      <trkpt lat="43.82515" lon="1.71176">
        <ele>171.1</ele>
        <time>2019-12-04T14:11:3.000Z</time>
      </trkpt>
      <trkpt lat="43.82507" lon="1.71183">
        <ele>170.9</ele>
        <time>2019-12-04T14:11:12.000Z</time>
      </trkpt>
      <trkpt lat="43.82506" lon="1.71195">
        <ele>170.2</ele>
        <time>2019-12-04T14:11:25.000Z</time>
      </trkpt>
      <trkpt lat="43.82507" lon="1.71208">
        <ele>169.8</ele>
        <time>2019-12-04T14:11:35.000Z</time>
      </trkpt>
      <trkpt lat="43.82506" lon="1.71221">
        <ele>169.6</ele>
        <time>2019-12-04T14:11:44.000Z</time>
      </trkpt>
      <trkpt lat="43.82503" lon="1.71234">
        <ele>169.3</ele>
        <time>2019-12-04T14:11:54.000Z</time>
      </trkpt>
      <trkpt lat="43.82498" lon="1.71245">
        <ele>169.1</ele>
        <time>2019-12-04T14:12:4.000Z</time>
      </trkpt>
      <trkpt lat="43.82491" lon="1.71255">
        <ele>169</ele>
        <time>2019-12-04T14:12:13.000Z</time>
      </trkpt>
      <trkpt lat="43.82483" lon="1.71262">
        <ele>168.7</ele>
        <time>2019-12-04T14:12:22.000Z</time>
      </trkpt>
      <trkpt lat="43.82475" lon="1.71271">
        <ele>168.5</ele>
        <time>2019-12-04T14:12:30.000Z</time>
      </trkpt>
      <trkpt lat="43.82468" lon="1.71279">
        <ele>168.1</ele>
        <time>2019-12-04T14:12:39.000Z</time>
      </trkpt>
      <trkpt lat="43.82462" lon="1.71289">
        <ele>167.8</ele>
        <time>2019-12-04T14:12:48.000Z</time>
      </trkpt>
      <trkpt lat="43.82453" lon="1.71297">
        <ele>167.2</ele>
        <time>2019-12-04T14:12:57.000Z</time>
      </trkpt>
      <trkpt lat="43.82446" lon="1.71305">
        <ele>166.8</ele>
        <time>2019-12-04T14:13:4.000Z</time>
      </trkpt>
      <trkpt lat="43.82438" lon="1.71314">
        <ele>166.1</ele>
        <time>2019-12-04T14:13:13.000Z</time>
      </trkpt>
      <trkpt lat="43.8243" lon="1.71321">
        <ele>165.5</ele>
        <time>2019-12-04T14:13:22.000Z</time>
      </trkpt>
      <trkpt lat="43.82423" lon="1.71329">
        <ele>165</ele>
        <time>2019-12-04T14:13:30.000Z</time>
      </trkpt>
      <trkpt lat="43.82414" lon="1.71334">
        <ele>164.8</ele>
        <time>2019-12-04T14:13:37.000Z</time>
      </trkpt>
      <trkpt lat="43.82408" lon="1.71343">
        <ele>164.4</ele>
        <time>2019-12-04T14:13:46.000Z</time>
      </trkpt>
      <trkpt lat="43.82399" lon="1.71351">
        <ele>164.1</ele>
        <time>2019-12-04T14:13:55.000Z</time>
      </trkpt>
      <trkpt lat="43.82392" lon="1.7136">
        <ele>163.9</ele>
        <time>2019-12-04T14:14:5.000Z</time>
      </trkpt>
      <trkpt lat="43.82385" lon="1.71369">
        <ele>163.8</ele>
        <time>2019-12-04T14:14:14.000Z</time>
      </trkpt>
      <trkpt lat="43.82377" lon="1.71376">
        <ele>163.6</ele>
        <time>2019-12-04T14:14:24.000Z</time>
      </trkpt>
      <trkpt lat="43.82368" lon="1.71381">
        <ele>163.3</ele>
        <time>2019-12-04T14:14:34.000Z</time>
      </trkpt>
      <trkpt lat="43.8236" lon="1.71388">
        <ele>163.2</ele>
        <time>2019-12-04T14:14:43.000Z</time>
      </trkpt>
      <trkpt lat="43.82352" lon="1.71396">
        <ele>163.1</ele>
        <time>2019-12-04T14:14:52.000Z</time>
      </trkpt>
      <trkpt lat="43.82344" lon="1.71404">
        <ele>163</ele>
        <time>2019-12-04T14:15:0.000Z</time>
      </trkpt>
      <trkpt lat="43.82338" lon="1.71412">
        <ele>163</ele>
        <time>2019-12-04T14:15:8.000Z</time>
      </trkpt>
      <trkpt lat="43.82329" lon="1.71419">
        <ele>162.9</ele>
        <time>2019-12-04T14:15:17.000Z</time>
      </trkpt>
      <trkpt lat="43.82321" lon="1.71426">
        <ele>162.8</ele>
        <time>2019-12-04T14:15:27.000Z</time>
      </trkpt>
      <trkpt lat="43.82312" lon="1.71432">
        <ele>162.8</ele>
        <time>2019-12-04T14:15:36.000Z</time>
      </trkpt>
      <trkpt lat="43.82303" lon="1.71436">
        <ele>162.8</ele>
        <time>2019-12-04T14:15:46.000Z</time>
      </trkpt>
      <trkpt lat="43.82293" lon="1.71438">
        <ele>162.8</ele>
        <time>2019-12-04T14:15:55.000Z</time>
      </trkpt>
      <trkpt lat="43.82284" lon="1.71441">
        <ele>162.9</ele>
        <time>2019-12-04T14:16:4.000Z</time>
      </trkpt>
      <trkpt lat="43.82274" lon="1.71443">
        <ele>163.1</ele>
        <time>2019-12-04T14:16:13.000Z</time>
      </trkpt>
      <trkpt lat="43.82265" lon="1.71445">
        <ele>163.2</ele>
        <time>2019-12-04T14:16:21.000Z</time>
      </trkpt>
      <trkpt lat="43.82257" lon="1.71448">
        <ele>163.4</ele>
        <time>2019-12-04T14:16:31.000Z</time>
      </trkpt>
      <trkpt lat="43.82247" lon="1.71453">
        <ele>163.5</ele>
        <time>2019-12-04T14:16:40.000Z</time>
      </trkpt>
      <trkpt lat="43.82238" lon="1.71456">
        <ele>163.6</ele>
        <time>2019-12-04T14:16:48.000Z</time>
      </trkpt>
      <trkpt lat="43.8223" lon="1.71462">
        <ele>163.5</ele>
        <time>2019-12-04T14:16:57.000Z</time>
      </trkpt>
      <trkpt lat="43.8222" lon="1.71465">
        <ele>163.1</ele>
        <time>2019-12-04T14:17:5.000Z</time>
      </trkpt>
      <trkpt lat="43.82212" lon="1.71473">
        <ele>162.8</ele>
        <time>2019-12-04T14:17:15.000Z</time>
      </trkpt>
      <trkpt lat="43.82205" lon="1.71483">
        <ele>162.6</ele>
        <time>2019-12-04T14:17:24.000Z</time>
      </trkpt>
      <trkpt lat="43.82199" lon="1.71492">
        <ele>162.5</ele>
        <time>2019-12-04T14:17:33.000Z</time>
      </trkpt>
      <trkpt lat="43.82189" lon="1.71497">
        <ele>162.5</ele>
        <time>2019-12-04T14:17:41.000Z</time>
      </trkpt>
      <trkpt lat="43.82183" lon="1.71508">
        <ele>162.1</ele>
        <time>2019-12-04T14:17:51.000Z</time>
      </trkpt>
      <trkpt lat="43.82177" lon="1.71518">
        <ele>161.6</ele>
        <time>2019-12-04T14:17:59.000Z</time>
      </trkpt>
      <trkpt lat="43.82169" lon="1.71526">
        <ele>161.1</ele>
        <time>2019-12-04T14:18:8.000Z</time>
      </trkpt>
      <trkpt lat="43.82165" lon="1.71537">
        <ele>160.5</ele>
        <time>2019-12-04T14:18:17.000Z</time>
      </trkpt>
      <trkpt lat="43.82161" lon="1.7155">
        <ele>159.6</ele>
        <time>2019-12-04T14:18:26.000Z</time>
      </trkpt>
      <trkpt lat="43.82153" lon="1.71559">
        <ele>158.7</ele>
        <time>2019-12-04T14:18:36.000Z</time>
      </trkpt>
      <trkpt lat="43.82146" lon="1.71569">
        <ele>157.9</ele>
        <time>2019-12-04T14:18:45.000Z</time>
      </trkpt>
      <trkpt lat="43.82146" lon="1.71582">
        <ele>157.1</ele>
        <time>2019-12-04T14:18:53.000Z</time>
      </trkpt>
      <trkpt lat="43.82143" lon="1.71594">
        <ele>156</ele>
        <time>2019-12-04T14:19:1.000Z</time>
      </trkpt>
      <trkpt lat="43.8214" lon="1.71607">
        <ele>154.8</ele>
        <time>2019-12-04T14:19:10.000Z</time>
      </trkpt>
      <trkpt lat="43.82139" lon="1.7162">
        <ele>153.5</ele>
        <time>2019-12-04T14:19:18.000Z</time>
      </trkpt>
      <trkpt lat="43.82139" lon="1.71633">
        <ele>152</ele>
        <time>2019-12-04T14:19:26.000Z</time>
      </trkpt>
      <trkpt lat="43.82137" lon="1.71646">
        <ele>150.6</ele>
        <time>2019-12-04T14:19:35.000Z</time>
      </trkpt>
      <trkpt lat="43.82134" lon="1.71658">
        <ele>149.4</ele>
        <time>2019-12-04T14:19:43.000Z</time>
      </trkpt>
      <trkpt lat="43.82132" lon="1.7167">
        <ele>148.6</ele>
        <time>2019-12-04T14:19:51.000Z</time>
      </trkpt>
      <trkpt lat="43.82127" lon="1.71682">
        <ele>147.5</ele>
        <time>2019-12-04T14:19:59.000Z</time>
      </trkpt>
      <trkpt lat="43.82125" lon="1.71695">
        <ele>146.3</ele>
        <time>2019-12-04T14:20:8.000Z</time>
      </trkpt>
      <trkpt lat="43.82125" lon="1.71708">
        <ele>145.5</ele>
        <time>2019-12-04T14:20:17.000Z</time>
      </trkpt>
      <trkpt lat="43.82125" lon="1.71721">
        <ele>144.6</ele>
        <time>2019-12-04T14:20:26.000Z</time>
      </trkpt>
      <trkpt lat="43.82128" lon="1.71735">
        <ele>143.8</ele>
        <time>2019-12-04T14:20:35.000Z</time>
      </trkpt>
      <trkpt lat="43.82132" lon="1.71746">
        <ele>143.4</ele>
        <time>2019-12-04T14:20:43.000Z</time>
      </trkpt>
      <trkpt lat="43.82136" lon="1.71761">
        <ele>143</ele>
        <time>2019-12-04T14:20:52.000Z</time>
      </trkpt>
      <trkpt lat="43.8214" lon="1.71773">
        <ele>142.6</ele>
        <time>2019-12-04T14:21:1.000Z</time>
      </trkpt>
      <trkpt lat="43.82147" lon="1.71782">
        <ele>142.1</ele>
        <time>2019-12-04T14:21:11.000Z</time>
      </trkpt>
      <trkpt lat="43.82156" lon="1.71786">
        <ele>141.9</ele>
        <time>2019-12-04T14:21:18.000Z</time>
      </trkpt>
      <trkpt lat="43.82164" lon="1.71794">
        <ele>141.7</ele>
        <time>2019-12-04T14:21:26.000Z</time>
      </trkpt>
      <trkpt lat="43.82171" lon="1.71802">
        <ele>141.4</ele>
        <time>2019-12-04T14:21:33.000Z</time>
      </trkpt>
      <trkpt lat="43.8218" lon="1.71807">
        <ele>141</ele>
        <time>2019-12-04T14:21:40.000Z</time>
      </trkpt>
      <trkpt lat="43.8219" lon="1.71807">
        <ele>142.2</ele>
        <time>2019-12-04T14:21:48.000Z</time>
      </trkpt>
      <trkpt lat="43.82199" lon="1.7181">
        <ele>141.8</ele>
        <time>2019-12-04T14:21:56.000Z</time>
      </trkpt>
      <trkpt lat="43.82209" lon="1.71815">
        <ele>140.9</ele>
        <time>2019-12-04T14:22:5.000Z</time>
      </trkpt>
      <trkpt lat="43.8222" lon="1.71817">
        <ele>140</ele>
        <time>2019-12-04T14:22:16.000Z</time>
      </trkpt>
      <trkpt lat="43.82228" lon="1.71824">
        <ele>139.2</ele>
        <time>2019-12-04T14:22:36.000Z</time>
      </trkpt>
      <trkpt lat="43.82225" lon="1.7182">
        <ele>139</ele>
        <time>2019-12-04T14:23:8.000Z</time>
      </trkpt>
    </trkseg>
  </trk>
</gpx>